     2.11           OBSERVATION DATA    G (GPS)             RINEX VERSION / TYPE
teqc 2010Oct21 OPUS Account 20111027 14:23:22UTC            PGM / RUN BY / DATE
K 1524                                                      MARKER NAME
1214                                                        MARKER NUMBER
CSMIDDLETON NGS                                             OBSERVER / AGENCY
0220390632 TRIMBLE R7 2.28                                  REC # / TYPE / VERS
11909788 TRM41249.00 NONE                                   ANT # / TYPE
  -758409.3273 -5529378.5814  3077113.6040                  APPROX POSITION XYZ
        1.9990        0.0000        0.0000                  ANTENNA: DELTA H/E/N
     1     1                                                WAVELENGTH FACT L1/2
     5    L1    L2    C1    P1    P2                        # / TYPES OF OBSERV
    15                                                      LEAP SECONDS
  2011     8    13     0     0   30.0000000     GPS         TIME OF FIRST OBS
                                                            END OF HEADER
 11  8 13  0  0 30.0000000  0  8G17G09G12G02G04G05G10G28
   2699041.71157   2109794.68055  22412269.8284                   22412267.9694
  -4948919.14857  -3849934.73854  22583132.4224                   22583132.1174
  -7853007.68057  -6111445.84854  22941704.9774                   22941702.1484
 -16187852.95357 -12607509.56256  21021563.8834                   21021559.8524
 -15567004.03158 -12120867.74656  20568378.3754                   20568376.3914
  -3484879.71156  -2707165.52353  23998458.7034                   23998459.3164
 -13455021.18757 -10476625.19155  21584343.5314                   21584341.8954
  15791699.30556  11741959.60553  23668745.4694                   23668745.5554
 11  8 13  0  1  0.0000000  0  8G17G09G12G02G04G05G10G28
   2760755.33247   2157883.21945  22424013.1414                   22424011.7274
  -4880511.50447  -3796630.10244  22596150.2814                   22596149.3754
  -7921454.79747  -6164781.23044  22928679.8134                   22928677.5084
 -16200332.44547 -12617233.81246  21019189.3594                   21019185.3164
 -15493983.17648 -12063968.38746  20582273.8524                   20582272.0124
  -3569704.85546  -2773262.81243  23982317.1804                   23982318.2274
 -13491430.59447 -10504996.10245  21577414.6094                   21577413.2734
  15905256.65646  11830445.76243  23690355.3914                   23690354.9964
 11  8 13  0  1 30.0000000  0  8G17G09G12G02G04G05G10G28
   2822620.80547   2206090.05545  22435786.3364                   22435784.2194
  -4811575.61747  -3742913.86344  22609268.5164                   22609267.6604
  -7989661.80147  -6217929.52044  22915700.3834                   22915698.0984
 -16212394.48847 -12626632.78546  21016893.7974                   21016889.5594
 -15420547.73848 -12006745.98046  20596248.0554                   20596246.0864
  -3654463.53546  -2839308.33244  23966187.5554                   23966188.5554
 -13527315.60947 -10532958.39845  21570586.3054                   21570584.3284
  16019131.78946  11919179.52743  23712024.2894                   23712024.7154
 11  8 13  0  2  0.0000000  0  8G17G09G12G02G04G05G10G28
   2884633.71947   2254411.78945  22447586.8834                   22447584.6524
  -4742119.73847  -3688792.44944  22622485.2344                   22622484.6604
  -8057631.31647  -6270892.76644  22902766.1334                   22902764.2154
 -16224044.52047 -12635710.70346  21014677.1484                   21014672.7034
 -15346705.38348 -11949206.49246  20610299.7194                   20610297.7544
  -3739158.45746  -2905304.16043  23950070.1644                   23950071.5634
 -13562678.58247 -10560513.90645  21563856.5004                   21563855.3914
  16133318.14546  12008155.80943  23733753.8524                   23733753.1134
 11  8 13  0  2 30.0000000  0  8G17G09G12G02G04G05G10G28
   2946791.96947   2302846.78145  22459415.0084                   22459413.1724
  -4672148.59447  -3634269.52044  22635800.7114                   22635799.6644
  -8125363.68747  -6323671.22745  22889877.1804                   22889875.1604
 -16235285.21147 -12644469.66046  21012537.8284                   21012533.8484
 -15272460.87547 -11891353.64146  20624428.4614                   20624426.2154
  -3823789.22346  -2971250.04344  23933965.3204                   23933966.8794
 -13597519.21947 -10587662.41445  21557226.7424                   21557225.1484
  16247811.25846  12097371.10543  23755540.8674                   23755541.1724
 11  8 13  0  3  0.0000000  0  8G17G09G12G02G04G05G10G28
   3009097.15647   2351396.25445  22471271.6174                   22471269.5664
  -4601664.38747  -3579346.80944  22649212.6564                   22649211.8954
  -8192855.30147  -6376262.07845  22877034.2274                   22877031.3404
 -16246115.91447 -12652909.14146  21010476.8524                   21010472.3954
 -15197815.57848 -11833188.48446  20638632.4534                   20638630.4494
  -3908352.19546  -3037143.08644  23917874.3594                   23917874.9264
 -13631833.88347 -10614401.06245  21550696.8134                   21550695.3874
  16362610.34846  12186824.85243  23777387.7814                   23777386.6524
 11  8 13  0  3 30.0000000  0  8G17G09G12G02G04G05G10G28
   3071548.62947   2400059.71545  22483155.3984                   22483153.2194
  -4530670.75847  -3524027.13744  22662722.7734                   22662722.4024
  -8260104.33647  -6428663.92245  22864237.2194                   22864234.5124
 -16256537.77047 -12661030.05146  21008493.7664                   21008489.8444
 -15122772.83648 -11774713.62946  20652912.9384                   20652910.9574
  -3992845.31246  -3102981.70343  23901795.5084                   23901795.3554
 -13665620.90647 -10640728.56645  21544267.3524                   21544265.7234
  16477712.57446  12276514.82843  23799290.4774                   23799289.8094
 11  8 13  0  4  0.0000000  0  8G17G09G12G02G04G05G10G28
   3134154.05947   2448843.15645  22495069.1094                   22495066.7584
  -4459163.64547  -3468307.35944  22676330.0704                   22676329.9774
  -8327101.67247  -6480869.61345  22851487.6024                   22851485.3324
 -16266544.43747 -12668827.43746  21006589.5004                   21006585.6334
 -15047327.88748 -11715925.37146  20667269.6334                   20667267.7814
  -4077258.87946  -3168758.35244  23885731.9534                   23885732.0944
 -13698871.00847 -10666637.68745  21537940.1414                   21537938.3204
  16593123.42646  12366445.28543  23821252.1334                   23821251.2114
 11  8 13  0  4 30.0000000  0  8G17G09G12G02G04G05G10G28
   1621494.37147   1270147.27045  22207219.0474                   22207217.1254
  -5962565.23447  -4639789.16044  22390242.4694                   22390241.8984
  -9969267.82847  -7760479.59844  22538993.4534                   22538991.4454
 -17851558.39547 -13903903.22746  20704971.4844                   20704967.4734
 -16546902.65248 -12884425.19946  20381910.0394                   20381907.9574
  -5737014.66446  -4462074.39143  23569890.2344                   23569890.6724
 -15307004.05947 -11919728.33645  21231922.6804                   21231921.0084
  15133423.02346  11229016.31643  23543480.6724                   23543480.1024
 11  8 13  0  5  0.0000000  0  8G17G09G12G02G04G05G10G28
   1684404.95347   1319168.46945  22219190.9774                   22219188.4964
  -5890043.92247  -4583279.10244  22404042.7194                   22404042.4884
 -10035758.25047  -7812290.28145  22526341.2424                   22526338.8134
 -17860739.95747 -13911057.66446  20703224.4844                   20703219.8204
 -16470665.10947 -12825019.32446  20396417.4694                   20396415.7074
  -5821264.85246  -4527723.73843  23553858.1334                   23553858.2384
 -15339176.35547 -11944797.60545  21225800.3134                   21225798.8754
  15249441.25446  11319420.04743  23565558.0164                   23565557.8984
 11  8 13  0  5 30.0000000  0  8G17G09G12G02G04G05G10G28
   1747468.14547   1368308.59045  22231191.4774                   22231189.0514
  -5817020.90247  -4526378.10544  22417938.2584                   22417937.9804
 -10101992.43447  -7863901.30545  22513736.7424                   22513734.8094
 -17869510.41047 -13917891.77046  20701555.1564                   20701551.2074
 -16394035.84048 -12765308.21546  20410999.8754                   20410997.6604
  -5905429.88746  -4593306.70343  23537841.3364                   23537842.7504
 -15370806.76647 -11969444.62945  21219781.2584                   21219779.2234
  15365759.60246  11410057.67243  23587693.2274                   23587692.2424
 11  8 13  0  6  0.0000000  0  8G17G09G12G02G04G05G10G28
   1810683.50447   1417567.27345  22243220.9144                   22243218.6174
  -5743499.78947  -4469088.98044  22431929.6954                   22431929.0004
 -10167968.47347  -7915311.18045  22501182.0784                   22501179.9654
 -17877870.62147 -13924406.19146  20699964.6254                   20699960.0394
 -16317017.54748 -12705293.96146  20425655.7194                   20425653.8914
  -5989507.55946  -4658821.57044  23521842.5944                   23521842.8594
 -15401893.25847 -11993667.81645  21213865.9224                   21213864.2464
  15482375.53946  11500927.16042  23609884.1174                   23609883.6334
 11  8 13  0  6 30.0000000  0  8G17G09G12G02G04G05G10G28
   1874050.38747   1466944.05145  22255279.0704                   22255277.0474
  -5669485.19947  -4411415.32444  22446013.8914                   22446013.2974
 -10233685.17247  -7966518.96144  22488676.7274                   22488674.3554
 -17885822.81247 -13930602.69146  20698450.9534                   20698446.7854
 -16239614.43448 -12644979.84846  20440384.9694                   20440383.5824
  -6073496.82046  -4724267.53944  23505859.3674                   23505859.7344
 -15432435.12947 -12017466.62145  21208053.3984                   21208051.9534
  15599285.66046  11592025.87942  23632131.6644                   23632130.8164
 11  8 13  0  7  0.0000000  0  8G17G09G12G02G04G05G10G28
   1937570.48847   1516440.21144  22267367.0004                   22267364.3094
  -5594977.99647  -4353357.80944  22460192.1334                   22460192.0044
 -10299138.54347  -8017521.54345  22476220.9064                   22476218.9144
 -17893365.45347 -13936480.04346  20697015.6724                   20697011.6844
 -16161827.01647 -12584366.27346  20455187.6954                   20455185.8524
  -6157393.00446  -4789640.98844  23489894.5004                   23489894.6914
 -15462427.84847 -12040837.52745  21202345.6954                   21202344.8164
  15716490.10246  11683353.89842  23654434.5314                   23654433.6054
 11  8 13  0  7 30.0000000  0  8G17G09G12G02G04G05G10G28
   2001241.75047   1566054.15645  22279482.4224                   22279480.7074
  -5519984.01247  -4294921.00444  22474462.9534                   22474462.8754
 -10364328.82047  -8068319.10945  22463816.0084                   22463813.7074
 -17900501.66847 -13942040.71146  20695657.7584                   20695653.5704
 -16083660.62148 -12523457.39846  20470062.5474                   20470060.0704
  -6241196.15646  -4854941.97344  23473946.8444                   23473948.2304
 -15491871.87947 -12063780.88745  21196743.1564                   21196741.3984
  15833984.50846  11774907.98042  23676792.7584                   23676792.2114
 11  8 13  0  8  0.0000000  0  8G17G09G12G02G04G05G10G28
   2065065.09447   1615786.59845  22291628.4064                   22291625.8014
  -5444505.75847  -4236106.81644  22488826.8204                   22488825.5744
 -10429252.96547  -8118909.28545  22451460.8914                   22451459.4344
 -17907231.86747 -13947284.99646  20694377.2344                   20694372.9694
 -16005117.12147 -12462254.67246  20485008.8754                   20485006.5744
  -6324902.80946  -4920167.73844  23458017.5084                   23458018.7854
 -15520764.40647 -12086294.49245  21191244.9924                   21191243.1844
  15951766.64846  11866686.11342  23699206.2274                   23699206.1214
 11  8 13  0  8 30.0000000  0  8G17G09G12G02G04G05G10G28
   2129045.48047   1665641.43045  22303803.2974                   22303801.0704
  -5368541.87947  -4176914.25444  22503281.3524                   22503281.5434
 -10493904.37147  -8169286.94545  22439158.7734                   22439156.3364
 -17913552.03947 -13952209.80146  20693174.5554                   20693170.1884
 -15926194.74648 -12400756.72346  20500026.8444                   20500024.8954
  -6408505.95346  -4985312.85244  23442108.2194                   23442108.8524
 -15549098.73047 -12108373.14545  21185852.9064                   21185851.5784
  16069839.33246  11958690.66442  23721675.0704                   23721675.1954
 11  8 13  0  9  0.0000000  0  8G17G09G12G02G04G05G10G28
   2193181.79747   1715617.76645  22316008.1954                   22316006.0904
  -5292097.00447  -4117346.88344  22517828.8054                   22517828.7274
 -10558281.85947  -8219451.17244  22426908.0004                   22426905.2704
 -17919464.07847 -13956816.57046  20692049.3524                   20692045.3444
 -15846897.25847 -12338966.47346  20515116.5084                   20515114.6954
  -6492004.18046  -5050376.22344  23426219.4064                   23426220.0164
 -15576873.95347 -12130016.13745  21180567.5164                   21180566.0824
  16188199.33246  12050919.13742  23744197.8984                   23744198.2774
 11  8 13  0  9 30.0000000  0  8G17G09G12G02G04G05G10G28
   2257468.88347   1765711.58645  22328241.5944                   22328239.4264
  -5215180.21947  -4057411.77044  22532465.6724                   22532465.7034
 -10622388.85247  -8269404.62945  22414709.2974                   22414706.2734
 -17924974.59047 -13961110.46546  20691000.8674                   20690996.2464
 -15767233.04747 -12276890.46946  20530276.3134                   20530274.2704
  -6575400.44147  -5115360.16444  23410349.6174                   23410350.0634
 -15604093.57847 -12151226.19545  21175388.0944                   21175386.1764
  16306838.86746  12143365.41843  23766775.2114                   23766774.7934
 11  8 13  0 10  0.0000000  0  8G17G09G12G02G04G05G10G28
   2321915.09847   1815929.39845  22340505.2114                   22340503.3324
  -5137786.15647  -3997104.76644  22547193.1564                   22547192.5904
 -10686214.46147  -8319138.81245  22402562.7344                   22402560.8554
 -17930075.74247 -13965085.37946  20690029.9384                   20690025.7624
 -15687196.02747 -12214523.96946  20545506.8134                   20545505.2734
  -6658683.84046  -5180256.14144  23394500.5084                   23394501.4304
 -15630746.39547 -12171994.58645  21170316.1804                   21170314.2544
  16425763.97746  12236034.23843  23789406.1564                   23789406.1134
 11  8 13  0 10 30.0000000  0  8G17G09G12G02G04G05G10G28
   2386515.08247   1866267.05145  22352798.2504                   22352795.2934
  -5059924.28147  -3936433.23044  22562010.4224                   22562009.8164
 -10749762.82847  -8368656.95745  22390470.4454                   22390467.9844
 -17934774.36347 -13968746.63346  20689135.8134                   20689131.5164
 -15606795.24647 -12151874.00846  20560805.9694                   20560804.4064
  -6741857.86346  -5245066.91044  23378673.3674                   23378674.0204
 -15656837.06247 -12192324.94145  21165351.5084                   21165349.1914
  16544966.64546  12328919.32443  23812088.3674                   23812089.1254
 11  8 13  0 11  0.0000000  0  8G17G09G12G02G04G05G10G28
   2451271.37947   1916726.50845  22365121.3524                   22365118.3984
  -4981596.03147  -3875398.30144  22576915.4694                   22576914.9964
 -10813029.48047  -8417955.60545  22378430.4844                   22378428.7584
 -17939069.11747 -13972093.18746  20688318.6094                   20688314.0554
 -15526031.34447 -12088941.10946  20576175.1644                   20576173.1764
  -6824917.68746  -5309788.68744  23362867.6644                   23362867.1214
 -15682361.58247 -12212214.14845  21160493.7664                   21160492.0824
  16664446.99246  12422020.75043  23834827.2664                   23834825.4184
 11  8 13  0 11 30.0000000  0  8G17G09G12G02G04G05G10G28
   2516178.84047   1967303.73845  22377472.7344                   22377470.2464
  -4902808.99247  -3814005.88344  22591907.3054                   22591908.0904
 -10876016.64147  -8467036.47745  22366444.2734                   22366442.3524
 -17942965.19148 -13975129.09046  20687576.8524                   20687572.9144
 -15444911.46947 -12025730.82846  20591612.1644                   20591610.0434
  -6907865.21546  -5374422.97744  23347082.8674                   23347083.3524
 -15707322.03547 -12231663.81645  21155744.0784                   21155742.2464
  16784198.19146  12515333.24643  23857614.1724                   23857613.9264
 11  8 13  0 12  0.0000000  0  8G17G09G12G02G04G05G10G28
   2581245.53147   2018005.05145  22389854.3754                   22389852.1334
  -4823559.22347  -3752252.85944  22606989.3984                   22606988.4064
 -10938714.19547  -8515891.68045  22354512.9304                   22354511.4614
 -17946456.20747 -13977849.35246  20686913.0864                   20686908.3444
 -15363430.75447 -11962239.37146  20607117.7114                   20607115.2034
  -6990690.77346  -5438962.21144  23331321.7344                   23331321.8754
 -15731709.09447 -12250666.68745  21151103.3134                   21151101.3674
  16904225.08646  12608860.59043  23880454.1804                   23880453.5944
 11  8 13  0 12 30.0000000  0  8G17G09G12G02G04G05G10G28
   2646472.64547   2068831.37945  22402266.6954                   22402264.2934
  -4743849.34446  -3690141.33244  22622157.4144                   22622156.9144
 -11001120.00047  -8564519.55545  22342637.7814                   22342635.9574
 -17949542.22747 -13980254.03146  20686325.8364                   20686321.6844
 -15281591.25847 -11898468.34446  20622690.9614                   20622689.1684
  -7073390.54346  -5503403.43744  23315584.6174                   23315584.8244
 -15755519.75447 -12269220.42245  21146572.2664                   21146571.0594
  17024526.37546  12702601.75043  23903347.3594                   23903347.3914
 11  8 13  0 13  0.0000000  0  8G17G09G12G02G04G05G10G28
   2711859.34847   2119782.05145  22414709.2584                   22414707.1604
  -4663683.92646  -3627674.85544  22637412.2424                   22637412.0474
 -11063232.60947  -8612918.95745  22330818.9144                   22330816.6804
 -17952225.43447 -13982344.82846  20685814.7974                   20685811.0164
 -15199396.71147 -11834420.66046  20638332.0784                   20638330.0394
  -7155963.37146  -5567745.74644  23299871.3984                   23299871.0824
 -15778753.64147 -12287324.72345  21142151.2584                   21142149.2624
  17145098.82846  12796554.20343  23926290.7504                   23926290.9264
 11  8 13  0 13 30.0000000  0  8G17G09G12G02G04G05G10G28
   2777403.98047   2170855.78145  22427182.0554                   22427179.9734
  -4583067.56646  -3564856.96544  22652753.0784                   22652752.8754
 -11125050.88747  -8661089.02745  22319054.5474                   22319052.9614
 -17954507.70347 -13984123.20346  20685381.1334                   20685376.1484
 -15116851.14148 -11770099.45746  20654039.9144                   20654037.7344
  -7238407.71946  -5631987.97744  23284183.1094                   23284182.6484
 -15801410.06647 -12304979.04745  21137839.4844                   21137837.7234
  17265938.71546  12890715.02042  23949287.0084                   23949286.4344
 11  8 13  0 14  0.0000000  0  8G17G09G12G02G04G05G10G28
   2843109.02747   2222054.52045  22439685.2424                   22439682.8094
  -4502002.12546  -3501689.15644  22668179.3134                   22668179.1414
 -11186571.34447  -8709027.00445  22307347.8284                   22307345.8244
 -17956388.71147 -13985588.91046  20685023.0164                   20685018.2384
 -15033955.88747 -11705505.78146  20669814.7194                   20669812.6604
  -7320719.53146  -5696126.89144  23268518.7194                   23268519.1684
 -15823485.28947 -12322180.48445  21133639.0234                   21133636.6884
  17387045.46145  12985083.79742  23972332.9384                   23972332.1724
 11  8 13  0 14 30.0000000  0  8G17G09G12G02G04G05G10G28
   2908975.93847   2273379.37145  22452219.1724                   22452216.7114
  -4420489.47747  -3438172.87544  22683690.9454                   22683690.4264
 -11247789.83247  -8756729.70345  22295698.6564                   22295696.1644
 -17957867.23447 -13986741.00046  20684741.4304                   20684737.2154
 -14950711.66847 -11640640.18446  20685655.6414                   20685653.2814
  -7402894.74646  -5760159.39844  23252882.1414                   23252880.8634
 -15844975.58247 -12338926.13345  21129549.0784                   21129547.3444
  17508418.66045  13079660.12942  23995429.2814                   23995428.5944
 11  8 13  0 15  0.0000000  0  8G17G09G12G02G04G05G10G28
   2975003.49647   2324829.40644  22464784.0944                   22464781.6604
  -4338535.28946  -3374312.54344  22699285.9694                   22699285.5004
 -11308705.88347  -8804196.75045  22284106.6414                   22284103.5434
 -17958946.41447 -13987581.91046  20684535.8524                   20684531.4224
 -14867123.43447 -11575506.50846  20701561.2894                   20701559.4454
  -7484932.71546  -5824084.94544  23237270.5864                   23237269.7304
 -15865881.21947 -12355216.21145  21125571.1174                   21125569.3874
  17630053.94146  13174440.78542  24018575.4844                   24018574.4694
 11  8 13  0 15 30.0000000  0  8G17G09G12G02G04G05G10G28
   3041187.83647   2376401.60944  22477377.6644                   22477376.2504
  -4256146.39546  -3310113.46144  22714964.4774                   22714963.3524
 -11369320.93447  -8851429.24245  22272571.7664                   22272569.9304
 -17959630.60947 -13988115.02746  20684405.6724                   20684401.7814
 -14783197.22347 -11510109.47746  20717532.3754                   20717530.4494
  -7566834.17646  -5887904.09844  23221683.9224                   23221684.4694
 -15886204.03147 -12371052.12145  21121703.4064                   21121701.7154
  17751945.37546  13269421.06642  24041771.3054                   24041769.7154
 11  8 13  0 16  0.0000000  0  8G17G09G12G02G04G05G10G28
   3107534.54347   2428100.32845  22490003.1954                   22490001.4574
  -4173321.36747  -3245574.54744  22730725.2814                   22730725.3284
 -11429628.03147  -8898421.76645  22261095.4924                   22261093.0044
 -17959915.76248 -13988337.21946  20684351.9924                   20684347.1094
 -14698930.84447 -11444447.37946  20733567.6024                   20733565.9304
  -7648591.56247  -5951611.02044  23206126.8754                   23206127.3594
 -15905936.97747 -12386428.40645  21117948.4924                   21117947.1804
  17874095.57846  13364603.00842  24065014.9224                   24065014.0314
 11  8 13  0 16 30.0000000  0  8G17G09G12G02G04G05G10G28
   3174042.29347   2479924.50844  22502659.6414                   22502657.3594
  -4090065.06646  -3180699.57444  22746567.8914                   22746567.9694
 -11489626.23847  -8945173.61345  22249678.4924                   22249676.1844
 -17959804.33247 -13988250.37546  20684373.0084                   20684368.4454
 -14614328.46947 -11378523.45746  20749666.8834                   20749665.3754
  -7730203.87546  -6015204.87144  23190596.5394                   23190595.9774
 -15925080.04347 -12401345.03945  21114305.2274                   21114304.2584
  17996501.03946  13459983.79342  24088307.8674                   24088307.4184
 11  8 13  0 17  0.0000000  0  8G17G09G12G02G04G05G10G28
   3240714.35547   2531876.73045  22515346.9844                   22515344.2934
  -4006377.85546  -3115488.82044  22762493.5784                   22762493.2464
 -11549310.21947  -8991680.59045  22238321.0394                   22238318.7384
 -17959294.40647 -13987853.02346  20684470.0234                   20684465.2894
 -14529389.94947 -11312337.60546  20765830.3594                   20765828.3834
  -7811665.32447  -6078681.19144  23175094.4304                   23175093.9734
 -15943628.22747 -12415798.13345  21110776.0234                   21110774.2194
  18119162.13346  13555563.77742  24111650.0864                   24111650.4924
 11  8 13  0 17 30.0000000  0  8G17G09G12G02G04G05G10G28
   3307548.70347   2583955.43044  22528065.4064                   22528063.3914
  -3922265.44146  -3049946.76244  22778499.6254                   22778499.1764
 -11608679.83247  -9037942.60245  22227023.4224                   22227021.2584
 -17958388.91047 -13987147.42246  20684641.9694                   20684637.7154
 -14444119.67647 -11245893.24246  20782056.3674                   20782054.6564
  -7892975.47347  -6142039.62544  23159621.8674                   23159621.2544
 -15961581.74247 -12429787.84045  21107359.6724                   21107357.3164
  18242074.84846  13651339.85243  24135039.6804                   24135039.5474
 11  8 13  0 18  0.0000000  0  8G17G09G12G02G04G05G10G28
   3374541.71147   2636157.74244  22540813.3594                   22540811.6254
  -3837735.50047  -2984079.34844  22794585.6174                   22794585.1564
 -11667737.04747  -9083961.19945  22215784.6954                   22215782.6844
 -17957092.91447 -13986137.54746  20684888.5004                   20684884.4264
 -14358524.85547 -11179195.97746  20798344.7974                   20798342.5784
  -7974135.89846  -6205281.40244  23144176.7664                   23144177.4344
 -15978943.19547 -12443316.21545  21104055.4924                   21104053.9614
  18365232.58246  13747306.84043  24158476.0864                   24158475.8524
 11  8 13  0 18 30.0000000  0  8G17G09G12G02G04G05G10G28
   3441698.65647   2688487.79344  22553592.9224                   22553591.0514
  -3752786.67247  -2917885.53544  22810751.1644                   22810750.6024
 -11726474.36747  -9129730.51245  22204607.9224                   22204605.2274
 -17955402.35548 -13984820.21946  20685210.1954                   20685206.1054
 -14272603.02747 -11112243.91445  20814694.9064                   20814693.3054
  -8055138.98046  -6268400.57844  23128762.8134                   23128762.1724
 -15995705.79347 -12456377.94945  21100866.1644                   21100863.9454
  18488637.91846  13843466.77043  24181958.0704                   24181959.3164
 11  8 13  0 19  0.0000000  0  8G17G09G12G02G04G05G10G28
   3509018.83247   2740945.03545  22566404.3054                   22566402.0164
  -3667423.48447  -2851368.83244  22826995.4774                   22826994.4144
 -11784890.60247  -9175249.61745  22193491.8984                   22193489.3094
 -17953319.38348 -13983197.10946  20685606.6804                   20685602.3324
 -14186357.73047 -11045039.78546  20831107.2584                   20831105.0274
  -8135982.99647  -6331395.81244  23113378.8914                   23113377.8134
 -16011868.96547 -12468972.58645  21097790.6564                   21097788.2734
  18612287.47746  13939817.02743  24205489.0234                   24205489.4534
 11  8 13  0 19 30.0000000  0  8G17G09G12G02G04G05G10G28
   3576499.06647   2793527.02044  22579244.4614                   22579242.6954
  -3581653.12547  -2784534.86344  22843316.1724                   22843316.3444
 -11842987.14147  -9220519.60945  22182435.8204                   22182433.6764
 -17950848.37948 -13981271.63346  20686077.3364                   20686072.7704
 -14099795.48047 -10977588.68446  20847579.2894                   20847577.5864
  -8216668.89546  -6394267.84444  23098024.1484                   23098024.1374
 -16027434.57447 -12481101.60945  21094828.2734                   21094826.0004
  18736175.48445  14036353.02343  24229065.1334                   24229064.8714
 11  8 13  0 20  0.0000000  0  8G17G09G12G02G04G05G10G28
   3644141.75047   2846235.57044  22592116.7424                   22592114.4654
  -3495476.39146  -2717384.24244  22859715.1564                   22859715.0864
 -11900759.28147  -9265536.82045  22171442.4144                   22171439.9804
 -17947987.70747 -13979042.52346  20686621.7814                   20686616.7344
 -14012916.06647 -10909890.44945  20864111.9144                   20864110.4064
  -8297191.14547  -6457012.34844  23082701.7664                   23082700.8404
 -16042398.23047 -12492761.55945  21091980.6094                   21091978.6994
  18860302.23045  14133075.06342  24252684.3754                   24252684.9064
 11  8 13  0 20 30.0000000  0  8G17G09G12G02G04G05G10G28
   3711948.14547   2899071.69145  22605019.5784                   22605018.0594
  -3408896.06646  -2649919.16844  22876190.8984                   22876191.0704
 -11958203.69147  -9310298.66045  22160511.2034                   22160508.5084
 -17944737.64547 -13976509.98846  20687239.7344                   20687235.1414
 -13925721.72747 -10841946.81245  20880704.3444                   20880702.8364
  -8377546.99647  -6519627.20344  23067410.1174                   23067409.3554
 -16056757.54747 -12503950.60245  21089248.4774                   21089246.0354
  18984665.94545  14229981.74642  24276351.6414                   24276350.6914
 11  8 13  0 21  0.0000000  0  8G17G09G12G02G04G05G10G28
   3779917.53947   2952034.84044  22617954.5474                   22617951.9064
  -3321916.88747  -2582143.29344  22892743.3444                   22892743.1884
 -12015319.29347  -9354804.29345  22149642.8524                   22149639.5984
 -17941100.43047 -13973675.77346  20687931.5634                   20687927.4184
 -13838216.04347 -10773760.57445  20897356.1254                   20897354.5354
  -8457734.44147  -6582110.83244  23052150.6334                   23052150.8874
 -16070512.09447 -12514668.40245  21086630.8834                   21086629.0354
  19109263.67645  14327070.78142  24300061.2664                   24300060.3554
 11  8 13  0 21 30.0000000  0  7G17G09G12G02G04G05G10
   3848052.21547   3005126.76644  22630919.9384                   22630918.1334
  -3234539.84046  -2514057.13744  22909370.2584                   22909369.8364
 -12072101.69147  -9399050.29345  22138836.7664                   22138834.4144
 -17937074.87547 -13970538.96946  20688698.0704                   20688693.8674
 -13750399.58647 -10705332.16846  20914066.9774                   20914065.3594
  -8537748.77047  -6644459.57444  23036924.7894                   23036924.1484
 -16083658.05947 -12524911.98045  21084128.9384                   21084127.3094
 11  8 13  0 22  0.0000000  0  7G17G09G12G02G04G05G10
   3916348.44547   3058344.59044  22643915.6954                   22643913.9924
  -3146773.27046  -2445667.67244  22926072.2974                   22926070.7664
 -12128552.38347  -9443037.79345  22128094.8594                   22128092.8054
 -17932666.18747 -13967103.60946  20689536.7504                   20689532.8094
 -13662278.94147 -10636666.73446  20930836.2974                   20930833.5274
  -8617591.32447  -6706674.45744  23021731.5634                   23021729.7854
 -16096197.91447 -12534683.26645  21081742.7664                   21081741.0594
 11  8 13  0 22 30.0000000  0  7G17G09G12G02G04G05G10
   3984808.52347   3111690.07844  22656943.8364                   22656941.4224
  -3058618.13346  -2376975.43044  22942845.8754                   22942846.6254
 -12184667.48047  -9486763.81245  22117416.3754                   22117413.8834
 -17927873.12947 -13963368.73046  20690449.0004                   20690444.0164
 -13573854.87947 -10567764.88346  20947662.7814                   20947660.8754
  -8697257.35247  -6768751.77044  23006570.9924                   23006570.5744
 -16108128.27347 -12543979.62145  21079472.4534                   21079470.8634
 11  8 13  0 23  0.0000000  0  7G17G09G12G02G04G05G10
   4053431.46147   3165162.47344  22670002.0164                   22670000.2114
  -2970079.55146  -2307984.40644  22959695.7584                   22959695.6724
 -12240446.11347  -9530227.63745  22106802.1644                   22106799.6884
 -17922698.17248 -13959336.26646  20691433.4694                   20691429.2384
 -13485131.43047 -10498629.73845  20964545.7504                   20964543.9304
  -8776745.71147  -6830690.65644  22991445.0314                   22991444.1484
 -16119448.75847 -12552800.74245  21077318.0704                   21077316.6334
 11  8 13  0 23 30.0000000  0  7G17G09G12G02G04G05G10
   4122217.72747   3218762.13744  22683091.6884                   22683089.8284
  -2881161.16446  -2238697.44144  22976615.8284                   22976616.3794
 -12295885.71147  -9573427.28545  22096252.1334                   22096249.2814
 -17917142.51647 -13955007.16046  20692490.9694                   20692486.2464
 -13396111.14547 -10429263.28945  20981486.3674                   20981484.4344
  -8856053.80547  -6892489.06244  22976353.2034                   22976352.4804
 -16130157.96947 -12561145.56245  21075280.7504                   21075278.8284
 11  8 13  0 24  0.0000000  0  7G17G09G12G02G04G05G10
   4191172.36347   3272493.01244  22696213.3914                   22696211.3444
  -2791861.35946  -2169113.28144  22993608.6094                   22993608.5514
 -12350979.00847  -9616357.09445  22085768.2274                   22085765.7034
 -17911201.87147 -13950378.06246  20693621.3444                   20693617.1414
 -13306791.45747 -10359663.52746  20998483.4694                   20998481.3674
  -8935173.46147  -6954140.62144  22961296.5474                   22961296.7234
 -16140249.03547 -12569008.70345  21073360.2114                   21073358.4534
 11  8 13  0 24 30.0000000  0  7G17G09G12G02G04G05G10
   4260288.37947   3326349.63344  22709365.8754                   22709363.6564
  -2702191.50046  -2099240.68744  23010673.8444                   23010672.4884
 -12405731.31247  -9659021.20345  22075349.1724                   22075346.9104
 -17904885.18047 -13945455.94946  20694823.6564                   20694819.1024
 -13217182.63747 -10289838.47746  21015535.3134                   21015532.9064
  -9014109.97347  -7015649.48444  22946275.8594                   22946275.2664
 -16149728.26247 -12576395.08645  21071556.1884                   21071554.5474
 11  8 13  0 25  0.0000000  0  7G17G09G12G02G04G05G10
   4329564.56647   3380331.07045  22722548.3524                   22722546.8714
  -2612156.74646  -2029083.80544  23027805.8594                   23027805.7074
 -12460141.75847  -9701418.92245  22064995.5944                   22064993.2194
 -17898194.74647 -13940242.60546  20696096.4924                   20696091.8444
 -13127288.72747 -10219791.27045  21032641.0084                   21032640.0514
  -9092862.25447  -7077014.78544  22931289.3284                   22931289.5274
 -16158595.82447 -12583304.85245  21069868.8754                   21069867.2624
 11  8 13  0 25 30.0000000  0  7G17G09G12G02G04G05G10
   4398996.10247   3434433.52744  22735760.8754                   22735759.1684
  -2521765.38346  -1958649.05944  23045007.2584                   23045006.8634
 -12514213.01247  -9743552.34445  22054705.1334                   22054703.6254
 -17891136.57047 -13934742.72346  20697439.5394                   20697435.2344
 -13037117.40247 -10149527.90645  21049800.4924                   21049798.1094
  -9171432.16447  -7138237.97744  22916337.8204                   22916338.6454
 -16166855.09447 -12589740.62945  21068297.3984                   21068295.1134
 11  8 13  0 26  0.0000000  0  7G17G09G12G02G04G05G10
   4468585.24647   3488658.82444  22749003.1024                   22749001.3164
  -2431019.39146  -1887938.00044  23062275.2194                   23062275.2504
 -12567940.88747  -9785418.18045  22044481.7974                   22044479.6954
 -17883709.96547 -13928955.74646  20698852.8524                   20698848.4534
 -12946669.34048 -10079048.91046  21067011.8754                   21067010.1134
  -9249815.18747  -7199315.53944  22901422.0864                   22901421.7464
 -16174502.57847 -12595699.68445  21066842.0004                   21066840.2384
 11  8 13  0 26 30.0000000  0  7G17G09G12G02G04G05G10
   4538331.93047   3543006.87544  22762275.2664                   22762273.9064
  -2339922.91046  -1816953.85544  23079609.7974                   23079610.5204
 -12621323.60547  -9827015.07845  22034323.5944                   22034320.4734
 -17875916.44547 -13922882.86746  20700336.0634                   20700331.5944
 -12855947.73847 -10008356.76246  21084275.5784                   21084274.0274
  -9328009.12147  -7260245.78144  22886541.6484                   22886542.0314
 -16181537.65247 -12601181.53545  21065503.0704                   21065501.4494
 11  8 13  0 27  0.0000000  0  7G17G09G12G02G04G05G10
   4608239.33647   3597480.14544  22775578.9304                   22775577.1174
  -2248475.70346  -1745696.23844  23097012.3284                   23097012.5904
 -12674355.79347  -9868338.85245  22024232.1094                   22024229.5314
 -17867753.91047 -13916522.43446  20701889.1024                   20701884.4344
 -12764951.88348  -9937450.90645  21101591.7584                   21101590.2584
  -9406008.25447  -7321024.20745  22871699.6484                   22871699.0514
 -16187955.88747 -12606182.73845  21064281.5394                   21064279.9224
 11  8 13  0 27 30.0000000  0  7G17G09G12G02G04G05G10
   4678311.73847   3652081.99244  22788913.2114                   22788910.7114
  -2156678.56646  -1674166.10543  23114481.3524                   23114480.8164
 -12727031.33647  -9909384.70745  22014207.8204                   22014205.3204
 -17859219.81647 -13909872.46946  20703512.9694                   20703508.6844
 -12673680.88347  -9866330.65246  21118959.6884                   21118958.3524
  -9483805.99247  -7381645.72344  22856894.9384                   22856894.4224
 -16193752.28547 -12610699.38345  21063178.3284                   21063176.8204
 11  8 13  0 28  0.0000000  0  7G17G09G12G02G04G05G10
   4748540.76647   3706805.88344  22802277.6414                   22802275.3834
  -2064543.55146  -1602372.64544  23132013.9144                   23132013.6414
 -12779356.29347  -9950157.38345  22004250.4454                   22004248.5084
 -17850324.01247 -13902940.66046  20705205.7194                   20705201.3364
 -12582145.82847  -9795004.64145  21136378.9924                   21136376.7854
  -9561408.88347  -7442115.40245  22842127.4694                   22842126.6684
 -16198934.14147 -12614737.15645  21062192.2894                   21062190.6564
 11  8 13  0 28 30.0000000  0  7G17G09G12G02G04G05G10
   4818932.62147   3761656.62944  22815673.0084                   22815670.6644
  -1972068.23446  -1530314.05144  23149610.7034                   23149611.5434
 -12831323.24647  -9990651.09045  21994361.0784                   21994358.9024
 -17841061.84047 -13895723.37146  20706968.7034                   20706963.9264
 -12490343.36747  -9723470.25445  21153848.1644                   21153846.2384
  -9638808.03147  -7502426.34045  22827398.9774                   22827398.3524
 -16203494.28547 -12618290.49645  21061324.8204                   21061323.1254
 11  8 13  0 29  0.0000000  0  7G17G09G12G02G04G05G10
   4889489.07446   3816635.67644  22829098.7894                   22829097.1884
  -1879254.73446  -1457991.90244  23167273.1334                   23167272.9414
 -12882928.07847 -10030862.63345  21984541.4224                   21984538.8794
 -17831432.63747 -13888220.08646  20708800.7734                   20708796.0434
 -12398274.62547  -9651728.38745  21171368.2114                   21171366.3524
  -9715998.88747  -7562574.95344  22812710.1564                   22812709.0004
 -16207429.77047 -12621357.07845  21060575.9454                   21060574.0004
 11  8 13  0 29 30.0000000  0  7G17G09G12G02G04G05G10
   4960203.41047   3871737.72744  22842554.7034                   22842553.0314
  -1786113.99647  -1385414.75044  23184997.4384                   23184997.6414
 -12934175.72347 -10070795.84845  21974789.4694                   21974787.0864
 -17821444.84847 -13880437.37546  20710701.5474                   20710696.5474
 -12305949.46147  -9579786.70345  21188936.8754                   21188935.2624
  -9792986.02747  -7622564.82444  22798059.0864                   22798059.4454
 -16210747.21547 -12623942.07845  21059944.8204                   21059942.6414
 11  8 13  0 30  0.0000000  0  7G17G09G12G02G04G05G10
   5031082.13746   3926967.87144  22856043.1174                   22856040.8094
  -1692643.15646  -1312580.39544  23202783.7814                   23202784.4144
 -12985057.31647 -10110443.83245  21965106.5164                   21965104.3284
 -17811092.89547 -13872370.91446  20712671.4924                   20712667.0554
 -12213363.78947  -9507642.02745  21206555.0554                   21206553.9734
  -9869760.39147  -7682388.91844  22783449.6484                   22783449.2074
 -16213438.68447 -12626039.29745  21059432.2974                   21059430.5514
 11  8 13  0 30 30.0000000  0  7G17G09G12G02G04G05G10
   5102120.88346   3982322.69944  22869561.7734                   22869559.4734
  -1598850.92646  -1239495.62144  23220632.1334                   23220632.6524
 -13035575.50447 -10149808.64545  21955493.4694                   21955490.9804
 -17800383.37147 -13864025.82446  20714709.6414                   20714704.9414
 -12120525.14547  -9435300.23045  21224221.9844                   21224219.9494
  -9946324.11347  -7742048.86345  22768880.4844                   22768879.8914
 -16215507.94947 -12627651.68745  21059038.8364                   21059036.6254
 11  8 13  0 31  0.0000000  0  7G17G09G12G02G04G05G10
   5173319.53546   4037802.12144  22883110.4304                   22883108.7304
  -1504741.16046  -1166163.39544  23238540.8674                   23238541.3094
 -13085728.42647 -10188888.83645  21945949.6484                   21945946.8364
 -17789317.39147 -13855402.98046  20716815.0004                   20716810.5514
 -12027436.55547  -9362763.67645  21241936.5234                   21241933.9184
 -10022675.09847  -7801543.03145  22754351.2114                   22754350.4774
 -16216953.80147 -12628778.31245  21058763.4304                   21058761.5204
 11  8 13  0 31 30.0000000  0  7G17G09G12G02G04G05G10
   5244686.14846   4093412.43444  22896690.9694                   22896688.7704
  -1410309.75847  -1092580.56644  23256510.6254                   23256510.9264
 -13135505.95747 -10227676.51645  21936477.2424                   21936475.3054
 -17777888.55547 -13846497.38346  20718990.3754                   20718985.3484
 -11934092.51247  -9290028.05945  21259698.6954                   21259697.1054
 -10098802.90247  -7860863.30945  22739864.1174                   22739863.9224
 -16217767.52347 -12629412.34845  21058609.0394                   21058606.6024
 11  8 13  0 32  0.0000000  0  7G17G09G12G02G04G05G10
   5316214.24246   4149148.57444  22910302.7034                   22910300.6174
  -1315567.12547  -1018755.20344  23274540.2424                   23274539.5314
 -13184912.89147 -10266175.41045  21927075.6644                   21927073.4414
 -17766104.60247 -13837315.07446  20721232.3524                   20721228.1054
 -11840502.91847  -9217101.11745  21277508.8054                   21277506.8244
 -10174711.42247  -7920012.70745  22725419.1724                   22725418.6174
 -16217955.28147 -12629558.62145  21058572.5634                   21058570.9384
 11  8 13  0 32 30.0000000  0  7G17G09G12G02G04G05G10
   5387903.28947   4205010.12944  22923944.4614                   22923942.4654
  -1220517.93746   -944690.97744  23292626.9304                   23292627.5274
 -13233947.51647 -10304384.21545  21917744.5234                   21917741.9304
 -17753967.92647 -13827857.91046  20723541.7194                   20723537.0664
 -11746670.88347  -9143985.25445  21295363.8134                   21295362.0314
 -10250398.80547  -7978989.79345  22711016.6954                   22711015.8204
 -16217516.55147 -12629216.72745  21058656.2344                   21058654.4144
 11  8 13  0 33  0.0000000  0  7G17G09G12G02G04G05G10
   5459750.47347   4260994.93044  22937616.7424                   22937614.1094
  -1125169.09047   -870393.23844  23310771.2894                   23310771.9534
 -13282610.63347 -10342303.51645  21908484.4844                   21908481.8524
 -17741482.53947 -13818129.02346  20725917.9694                   20725913.4344
 -11652601.81247  -9070684.69545  21313265.2974                   21313262.7704
 -10325865.36347  -8037794.81645  22696656.2584                   22696655.2974
 -16216453.34447 -12628388.23445  21058858.7424                   21058857.1484
 11  8 13  0 33 30.0000000  0  7G17G09G12G02G04G05G10
   5531761.71146   4317107.59044  22951319.5234                   22951317.1804
  -1029518.43046   -795860.33644  23328973.2894                   23328973.4264
 -13330894.63347 -10379927.40245  21899296.2814                   21899293.4064
 -17728643.95347 -13808124.93046  20728360.5234                   20728356.2664
 -11558292.88347  -8997197.21145  21331211.1644                   21331208.9884
 -10401102.97747  -8096421.43445  22682338.3524                   22682338.0314
 -16214759.22347 -12627068.10945  21059181.2274                   21059178.9924
 11  8 13  0 34  0.0000000  0  7G17G09G12G02G04G05G10
   5603932.82846   4373344.80944  22965052.9614                   22965051.3714
   -933574.19146   -721098.63744  23347230.8594                   23347231.4064
 -13378801.83647 -10417257.68445  21890180.1254                   21890177.8054
 -17715458.00847 -13797850.14846  20730870.0864                   20730865.4924
 -11463751.17247  -8923528.35545  21349201.8914                   21349200.0634
 -10476113.59447  -8154871.16845  22668064.1804                   22668063.8634
 -16212437.46947 -12625258.91445  21059623.0634                   21059620.3404
 11  8 13  0 34 30.0000000  0  7G17G09G12G02G04G05G10
   5676267.08247   4429709.16444  22978818.2974                   22978815.9494
   -837337.28546   -646108.88744  23365544.5474                   23365544.2544
 -13426326.77047 -10454290.08645  21881135.5864                   21881133.3634
 -17701923.07847 -13787303.44546  20733445.6334                   20733441.1954
 -11368976.06247  -8849677.63345  21367236.9384                   21367235.4734
 -10550891.36347  -8213139.49245  22653834.2344                   22653833.8594
 -16209484.56247 -12622957.93445  21060184.7424                   21060182.4184
 11  8 13  0 35  0.0000000  0  7G17G09G12G02G04G05G10
   5748759.43446   4486196.69544  22992613.3134                   22992611.0164
   -740816.31647   -570897.79743  23383910.8914                   23383911.3794
 -13473472.59047 -10491027.08245  21872164.7734                   21872161.9224
 -17688045.52747 -13776489.75446  20736086.6564                   20736082.2114
 -11273975.34047  -8775651.12145  21385315.1564                   21385313.3364
 -10625438.46547  -8271228.05945  22639648.4534                   22639648.0044
 -16205904.60947 -12620168.33245  21060865.8524                   21060864.3554
 11  8 13  0 35 30.0000000  0  8G17G09G12G02G04G05G10G25
   5821425.35546   4542819.50044  23006441.0314                   23006438.8524
   -644000.03146   -495456.59844  23402335.4614                   23402335.3364
 -13520222.21947 -10527455.35545  21863268.4844                   21863265.7074
 -17673811.65647 -13765398.41846  20738795.1094                   20738790.6214
 -11178736.62547  -8701439.16045  21403438.1254                   21403437.1484
 -10699737.92647  -8329123.66045  22625509.5004                   22625509.1484
 -16201681.82847 -12616877.82445  21061669.8444                   21061667.4304
  -1691391.67656  -1309621.02053  24756298.6564                   24756299.9694
 11  8 13  0 36  0.0000000  0  8G17G09G12G02G04G05G10G25
   5894248.54746   4599564.84844  23020298.7114                   23020296.5124
   -546908.71146   -419801.08244  23420810.8054                   23420811.3554
 -13566589.74647 -10563585.89145  21854444.9304                   21854442.6094
 -17659239.19147 -13754043.23846  20741568.1334                   20741563.3404
 -11083278.99247  -8627056.60545  21421603.3674                   21421601.5554
 -10773803.23447  -8386836.79345  22611415.1334                   22611414.8164
 -16196831.92247 -12613098.66445  21062591.8834                   21062589.9344
  -1771074.04746  -1371711.12543  24741135.2664                   24741136.6564
 11  8 13  0 36 30.0000000  0  8G17G09G12G02G04G05G10G25
   5967230.91447   4656434.21144  23034187.0314                   23034184.2704
   -449544.77346   -343933.16843  23439339.0314                   23439339.2114
 -13612571.59847 -10599415.89145  21845695.2034                   21845692.7074
 -17644327.85547 -13742424.00046  20744406.0234                   20744400.8324
 -10987603.39147  -8552504.21945  21439810.1174                   21439808.1334
 -10847630.27747  -8444364.30145  22597366.4534                   22597365.4654
 -16191352.26247 -12608828.78145  21063634.7274                   21063632.8914
  -1850631.35546  -1433703.78143  24725996.0164                   24725997.3674
 11  8 13  0 37  0.0000000  0  8G17G09G12G02G04G05G10G25
   6040370.66446   4713426.23044  23048104.7114                   23048101.9344
   -351913.61346   -267857.02344  23457917.0234                   23457917.7274
 -13658167.24247 -10634944.95345  21837018.2194                   21837016.0634
 -17629080.78147 -13730543.14846  20747307.0704                   20747302.1054
 -10891714.21547  -8477785.40645  21458057.3054                   21458055.3054
 -10921218.18747  -8501705.46545  22583363.1094                   22583362.3134
 -16185243.95747 -12604069.05145  21064797.5634                   21064795.9654
  -1930063.20746  -1495598.71143  24710881.1334                   24710881.7114
 11  8 13  0 37 30.0000000  0  8G17G09G12G02G04G05G10G25
   6113670.54746   4770543.02344  23062053.4144                   23062051.3284
   -254016.41446   -191573.59444  23476546.5944                   23476547.2504
 -13703372.10547 -10670169.51645  21828416.0394                   21828413.8634
 -17613496.56247 -13718399.57446  20750272.7894                   20750268.2814
 -10795611.25447  -8402900.00045  21476344.8284                   21476343.1644
 -10994561.78147  -8558856.23445  22569406.2664                   22569405.7704
 -16178504.01247 -12598817.11745  21066079.7034                   21066077.8594
  -2009364.70746  -1557392.00043  24695790.6884                   24695790.8134
 11  8 13  0 38  0.0000000  0  8G17G09G12G02G04G05G10G25
   6187130.26247   4827784.37944  23076031.8984                   23076029.8484
   -155858.14846   -115086.74244  23495226.0554                   23495226.5704
 -13748185.33647 -10705088.89545  21819888.4614                   21819886.0314
 -17597577.80547 -13705995.32846  20753301.5784                   20753297.4694
 -10699298.33247  -8327850.99645  21494673.1094                   21494670.8244
 -11067659.64547  -8615815.54745  22555496.3524                   22555495.6054
 -16171132.75447 -12593073.27045  21067482.2814                   21067480.9574
  -2088535.03146  -1619083.09843  24680724.0864                   24680726.0864
 11  8 13  0 38 30.0000000  0  8G17G09G12G02G04G05G10G25
   6260751.66846   4885151.69144  23090042.3674                   23090040.2074
    -57440.30146    -38397.62144  23513954.1414                   23513954.4804
 -13792602.10947 -10739699.35245  21811436.0784                   21811433.5314
 -17581323.50447 -13693329.61346  20756395.0554                   20756390.3594
 -10602775.71947  -8252638.59445  21513040.1954                   21513038.8444
 -11140506.82847  -8672579.51245  22541633.8834                   22541632.8914
 -16163127.46947 -12586835.37545  21069005.8364                   21069004.1604
  -2167569.77046  -1680668.57443  24665684.6484                   24665686.3094
 11  8 13  0 39  0.0000000  0  8G17G09G12G02G04G05G10G25
   6334543.76246   4942652.02044  23104083.6484                   23104082.2814
     41242.18446     38497.71944  23532732.3914                   23532732.6954
 -13836611.81647 -10773992.60945  21803061.1564                   21803058.6454
 -17564726.40247 -13680396.79346  20759553.1644                   20759548.4734
 -10506037.28947  -8177258.02745  21531449.1414                   21531447.4024
 -11213091.96947  -8729139.28145  22527821.2424                   22527820.7934
 -16154478.87947 -12580096.20345  21070651.8054                   21070649.9144
  -2246458.28546  -1742140.07443  24650672.3914                   24650674.1094
 11  8 13  0 39 30.0000000  0  8G17G09G12G02G04G05G10G25
   4833083.04347   3772682.60944  22818365.5554                   22818363.8834
  -1435238.12146  -1112006.51644  23251768.1484                   23251767.5784
 -15455640.31647 -12035573.24245  21494970.5474                   21494968.2664
 -19123213.95747 -14894802.66846  20462983.0004                   20462978.1564
 -11984509.00447  -9329313.95345  21250105.6884                   21250103.8014
 -12860841.68047 -10013100.02345  22214264.8754                   22214264.0514
 -17720612.67647 -13800460.18045  20772626.6334                   20772624.8444
  -3900627.45746  -3031103.01243  24335893.8524                   24335896.2304
 11  8 13  0 40  0.0000000  0  8G17G09G12G02G04G05G10G25
   4907213.09046   3830446.27344  22832471.3134                   22832470.3594
  -1336042.79746  -1034711.53143  23270644.4614                   23270644.4774
 -15498834.08247 -12069230.71145  21486750.9924                   21486748.4024
 -19105939.87947 -14881342.34846  20466269.9224                   20466265.4184
 -11887351.14147  -9253606.56245  21268593.6564                   21268592.2774
 -12932899.93747 -10069249.24645  22200552.4774                   22200551.8484
 -17710680.18747 -13792720.56245  20774516.6334                   20774514.8054
  -3979221.47746  -3092345.01643  24320938.9304                   24320939.9574
 11  8 13  0 40 30.0000000  0  8G17G09G12G02G04G05G10G25
   4981508.64147   3888338.87544  22846610.2034                   22846608.5274
  -1236599.61746   -957223.41743  23289568.0314                   23289568.4534
 -15541620.25447 -12102570.55945  21478609.2344                   21478606.8094
 -19088332.65247 -14867622.41846  20469620.2034                   20469615.9774
 -11789990.36347  -9177741.06645  21287121.1414                   21287119.7814
 -13004693.71947 -10125192.37545  22186890.3914                   22186890.0044
 -17700107.95747 -13784482.44545  20776528.2274                   20776526.5274
  -4057668.10546  -3153472.19544  24306011.0864                   24306012.0594
 11  8 13  0 41  0.0000000  0  8G17G09G12G02G04G05G10G25
   5055970.43447   3946361.02744  22860779.1414                   22860778.3554
  -1136912.82846   -879545.46543  23308536.8594                   23308538.1644
 -15583996.66047 -12135591.09845  21470544.9144                   21470542.3204
 -19070393.91047 -14853644.17646  20473034.1254                   20473029.8324
 -11692429.68447  -9101719.78545  21305686.3054                   21305684.7074
 -13076220.79747 -10180927.68445  22173279.3594                   22173278.7814
 -17688895.70347 -13775745.60545  20778661.9144                   20778660.1564
  -4135965.58246  -3214483.13744  24291110.9304                   24291112.7974
 11  8 13  0 41 30.0000000  0  8G17G09G12G02G04G05G10G25
   5130604.34047   4004517.27344  22874982.0314                   22874980.1684
  -1036980.09846   -801675.87543  23327554.1644                   23327554.5234
 -15625955.27347 -12168286.07845  21462560.2274                   21462557.9264
 -19052118.96547 -14839403.95746  20476511.9144                   20476507.2734
 -11594665.41447  -9025539.86745  21324289.7974                   21324288.3914
 -13147472.70347 -10236448.58245  22159720.7504                   22159719.6914
 -17677036.93047 -13766504.98445  20780918.4144                   20780916.5124
  -4214105.62946  -3275371.46944  24276241.5704                   24276242.7274
 11  8 13  0 42  0.0000000  0  8G17G09G12G02G04G05G10G25
   5205404.44146   4062803.03144  22889216.2034                   22889214.0084
   -936811.45346   -723622.43743  23346615.6724                   23346615.8754
 -15667500.19947 -12200658.72345  21454654.7894                   21454652.5044
 -19033515.50047 -14824907.74246  20480051.8524                   20480047.4224
 -11496706.50047  -8949208.27745  21342931.1564                   21342929.4804
 -13218452.93047 -10291757.78545  22146213.4224                   22146212.4104
 -17664537.66447 -13756765.27745  20783297.0234                   20783295.0474
  -4292092.48046  -3336140.40243  24261401.4924                   24261402.4264
 11  8 13  0 42 30.0000000  0  8G17G09G12G02G04G05G10G25
   5280372.33246   4121219.51244  22903481.7424                   22903480.4064
   -836409.17246   -645386.93443  23365721.6334                   23365722.0944
 -15708627.34447 -12232705.78946  21446828.9144                   21446825.8134
 -19014583.15247 -14810155.26646  20483654.4774                   20483650.1374
 -11398553.61347  -8872725.53145  21361609.1644                   21361607.5164
 -13289157.30947 -10346852.03545  22132758.6564                   22132757.6454
 -17651396.01247 -13746525.00445  20785798.1174                   20785796.1724
  -4369922.28546  -3396786.94544  24246590.3284                   24246592.0554
 11  8 13  0 43  0.0000000  0  8G17G09G12G02G04G05G10G25
   5355507.64846   4179766.44944  22917780.0314                   22917778.1954
   -735777.99246   -566973.11343  23384871.1804                   23384871.7974
 -15749336.65247 -12264427.28146  21439081.6484                   21439079.3164
 -18995324.39847 -14795148.44546  20487319.5944                   20487314.7624
 -11300210.27047  -8796094.39545  21380323.2194                   21380321.7274
 -13359584.50447 -10401730.31645  22119356.3984                   22119355.9884
 -17637612.37947 -13735784.49245  20788420.7584                   20788419.0664
  -4447593.87146  -3457310.20343  24231809.5864                   24231811.6684
 11  8 13  0 43 30.0000000  0  8G17G09G12G02G04G05G10G25
   5430814.47346   4238447.03544  22932110.3754                   22932108.2624
   -634917.54746   -488380.62543  23404064.2664                   23404065.5314
 -15789621.15247 -12295817.75446  21431415.8444                   21431413.6764
 -18975736.25847 -14779884.94946  20491047.0084                   20491042.7234
 -11201674.77747  -8719313.52745  21399074.1564                   21399072.3134
 -13429727.72347 -10456387.30545  22106008.8364                   22106007.6884
 -17623182.48447 -13724540.39545  20791166.4304                   20791164.6764
  -4525100.81646  -3517705.18743  24217061.0314                   24217062.6054
 11  8 13  0 44  0.0000000  0  8G17G09G12G02G04G05G10G25
   5506290.65646   4297259.59444  22946472.3134                   22946471.2934
   -533834.00446   -409614.28943  23423299.1954                   23423300.5704
 -15829481.39547 -12326877.64146  21423830.9844                   21423828.4964
 -18955822.54348 -14764367.74646  20494836.3204                   20494831.7814
 -11102952.16447  -8642386.82845  21417860.0474                   21417858.8014
 -13499586.50847 -10510822.65245  22092715.3054                   22092714.4024
 -17608108.30947 -13712794.26245  20794035.0474                   20794033.4454
  -4602443.45746  -3577972.14543  24202343.1564                   24202344.8484
 11  8 13  0 44 30.0000000  0  8G17G09G12G02G04G05G10G25
   5581937.23046   4356204.91444  22960868.2114                   22960866.3834
   -432530.30446   -330676.40743  23442577.2034                   23442578.5664
 -15868914.52047 -12357604.71145  21416326.6644                   21416324.4184
 -18935584.10947 -14748597.53546  20498687.1884                   20498682.7544
 -11004043.78547  -8565315.39845  21436681.7274                   21436680.3874
 -13569157.69147 -10565033.89545  22079476.2194                   22079475.0204
 -17592388.41047 -13700544.97745  20797027.0704                   20797024.8634
  -4679618.66846  -3638108.63343  24187657.5784                   24187658.3554
 11  8 13  0 45  0.0000000  0  8G17G09G12G02G04G05G10G25
   5657751.26646   4415280.71944  22975294.9384                   22975292.9924
   -331013.03146   -251572.11743  23461896.0704                   23461896.0744
 -15907921.52347 -12387999.75045  21408903.9694                   21408901.5274
 -18915025.41047 -14732577.76246  20502599.8984                   20502595.3524
 -10904955.38347  -8488103.68745  21455538.2814                   21455536.6134
 -13638441.41447 -10619021.13345  22066291.8984                   22066290.5944
 -17576025.63347 -13687794.73845  20800140.0394                   20800138.7114
  -4756627.24646  -3698115.34443  24173003.1414                   24173003.7234
 11  8 13  0 45 30.0000000  0  8G17G09G12G02G04G05G10G25
   5733736.82046   4474490.18044  22989754.5634                   22989752.6334
   -229282.71546   -172301.81643  23481254.3984                   23481254.8794
 -15946496.37147 -12418058.03146  21401563.3834                   21401560.6764
 -18894143.92647 -14716306.46146  20506573.3444                   20506568.6644
 -10805685.35947  -8410750.45345  21474428.4384                   21474427.0784
 -13707431.54747 -10672779.60945  22053164.2894                   22053162.6564
 -17559016.25047 -13674540.66045  20803376.8594                   20803374.9224
  -4833463.41446  -3757987.66043  24158381.7584                   24158382.0474
 11  8 13  0 46  0.0000000  0  8G17G09G12G02G04G05G10G25
   5809898.57446   4533836.95344  23004248.0084                   23004246.4264
   -127338.27046    -92864.70343  23500653.5394                   23500654.0394
 -15984632.93447 -12447774.81245  21394306.3134                   21394303.6524
 -18872936.62547 -14699781.27746  20510608.6484                   20510604.1764
 -10706231.89147  -8333254.26645  21493353.4064                   21493351.8914
 -13776121.06247 -10726303.84445  22040092.6804                   22040091.3054
 -17541355.35247 -13660778.91045  20806737.4304                   20806736.0234
  -4910120.31246  -3817720.28543  24143794.1954                   24143794.9654
 11  8 13  0 46 30.0000000  0  8G17G09G12G02G04G05G10G25
   5886228.82846   4593315.03544  23018773.1094                   23018771.3524
    -25191.99246    -13270.30543  23520091.5234                   23520092.1524
 -16022337.34847 -12477154.84846  21387131.3914                   21387128.9414
 -18851413.25047 -14683009.80946  20514704.9614                   20514700.3014
 -10606605.59047  -8255623.40645  21512311.5704                   21512310.2894
 -13844515.77047 -10779598.34445  22027077.0234                   22027076.0784
 -17523051.05547 -13646515.80945  20810221.1174                   20810219.1914
  -4986604.02346  -3877317.95743  24129240.1954                   24129240.3444
 11  8 13  0 47  0.0000000  0  8G17G09G12G02G04G05G10G25
   5962729.51246   4652925.91844  23033330.1414                   23033328.8594
     77154.62546     66480.20343  23539567.5704                   23539568.3834
 -16059605.12147 -12506194.66045  21380039.2664                   21380036.6414
 -18829573.11347 -14665991.50846  20518860.7814                   20518856.5274
 -10506806.69147  -8177858.05145  21531302.8594                   21531301.4144
 -13912610.89547 -10832659.41445  22014119.1954                   22014118.2274
 -17504101.27747 -13631749.73445  20813827.2194                   20813825.0944
  -5062910.26246  -3936777.37143  24114719.4304                   24114720.0594
 11  8 13  0 47 30.0000000  0  8G17G09G12G02G04G05G10G25
   6039394.74646   4712665.01244  23047919.3364                   23047917.3554
    179691.95746    146379.30543  23559079.7734                   23559080.6564
 -16096440.90247 -12534897.84446  21373029.7114                   21373027.2344
 -18807423.70747 -14648732.21946  20523075.6954                   20523071.4964
 -10406843.78547  -8099964.90245  21550325.0314                   21550323.8094
 -13980410.02047 -10885489.81245  22001217.0394                   22001216.6994
 -17484511.77747 -13616485.17645  20817554.7194                   20817552.9064
  -5139042.79746  -3996101.41443  24100231.9534                   24100232.9064
 11  8 13  0 48  0.0000000  0  8G17G09G12G02G04G05G10G25
   6116232.00046   4772538.18444  23062541.4924                   23062539.5474
    282423.47346    226429.72344  23578628.9614                   23578630.3284
 -16132834.84847 -12563256.75046  21366104.7974                   21366101.7544
 -18784958.99647 -14631227.24646  20527350.5944                   20527346.1724
 -10306711.89847  -8021940.08245  21569379.9384                   21569378.5474
 -14047902.93747 -10938081.61745  21988373.4144                   21988372.9224
 -17464275.14547 -13600716.35945  20821405.7034                   20821403.8954
  -5214991.91046  -4055282.49643  24085779.1334                   24085780.4884
 11  8 13  0 48 30.0000000  0  8G17G09G12G02G04G05G10G25
   6193242.29346   4832546.17244  23077195.5944                   23077193.7424
    385345.75846    306628.77343  23598214.2584                   23598216.0664
 -16168784.62947 -12591269.55946  21359263.4844                   21359260.5864
 -18762179.93047 -14613477.32046  20531685.2034                   20531680.9614
 -10206412.71547  -7943784.90245  21588466.0394                   21588464.8554
 -14115086.82447 -10990432.61345  21975588.9454                   21975588.0004
 -17443390.81647 -13584442.85245  20825379.7504                   20825377.6644
  -5290754.93746  -4114318.59443  24071362.0634                   24071363.5274
 11  8 13  0 49  0.0000000  0  8G17G09G12G02G04G05G10G25
   6270420.90246   4892685.33644  23091882.3444                   23091880.8094
    488450.52346    386970.04743  23617834.2504                   23617835.4924
 -16204293.27347 -12618938.61745  21352506.1724                   21352503.8244
 -18739092.96947 -14595487.48046  20536078.6644                   20536074.1374
 -10105953.59447  -7865505.10245  21607582.9844                   21607581.3404
 -14181963.90647 -11042544.55145  21962862.4694                   21962861.6334
 -17421863.59047 -13567668.37945  20829476.1414                   20829474.5434
  -5366334.60246  -4173211.80143  24056979.5394                   24056981.0984
 11  8 13  0 49 30.0000000  0  8G17G09G12G02G04G05G10G25
   6347770.79347   4952957.96544  23106601.8204                   23106599.7544
    591736.56346    467452.55143  23637489.6484                   23637490.4804
 -16239355.90247 -12646260.14546  21345834.5554                   21345831.1524
 -18715696.45347 -14577256.41446  20540530.3914                   20540526.4494
 -10005334.19947  -7787100.40245  21626730.1484                   21626728.9734
 -14248528.85247 -11094413.27045  21950195.6564                   21950194.6564
 -17399690.73847 -13550390.83245  20833695.8204                   20833693.6844
  -5441725.72746  -4231958.11343  24042632.7274                   24042634.2344
 11  8 13  0 50  0.0000000  0  8G17G09G12G02G04G05G10G25
   6425291.89546   5013364.02044  23121352.9694                   23121351.3164
    695199.95346    548073.24643  23657178.1024                   23657179.6054
 -16273970.51647 -12673232.57846  21339247.0394                   21339244.5204
 -18691992.11347 -14558785.49646  20545041.6024                   20545037.2384
  -9904556.68447  -7708572.49645  21645907.8674                   21645906.0084
 -14314779.23047 -11146036.86345  21937588.1884                   21937587.5274
 -17376872.26247 -13532610.19145  20838038.0084                   20838035.5004
  -5516926.19147  -4290555.83644  24028322.6484                   24028324.0394
 11  8 13  0 50 30.0000000  0  8G17G09G12G02G04G05G10G25
   6502981.22347   5073901.15644  23136137.2734                   23136135.4804
    798833.84846    628826.83643  23676898.9304                   23676901.1724
 -16308138.72347 -12699857.15646  21332745.0234                   21332742.6054
 -18667984.87147 -14540078.54346  20549610.0234                   20549605.3164
  -9803626.94947  -7629925.98445  21665114.0234                   21665112.2814
 -14380715.79747 -11197415.94545  21925041.2034                   21925039.9384
 -17353411.32847 -13514328.93745  20842502.7894                   20842500.4494
  -5591936.98846  -4349005.78144  24014048.6644                   24014050.2974
 11  8 13  0 51  0.0000000  0  8G17G09G12G02G04G05G10G25
   6580838.34047   5134569.05144  23150952.8284                   23150951.6644
    902633.80146    709709.79343  23696651.0634                   23696653.3054
 -16341858.94547 -12726132.65646  21326328.2114                   21326325.7034
 -18643676.55147 -14521136.97746  20554235.7274                   20554231.4384
  -9702547.80147  -7551163.03545  21684348.7344                   21684347.0164
 -14446336.70747 -11248549.05145  21912554.3054                   21912552.8054
 -17329308.91447 -13495547.82045  20847088.6254                   20847087.1604
  -5666756.56246  -4407306.72744  23999811.0554                   23999812.5474
 11  8 13  0 51 30.0000000  0  8G17G09G12G02G04G05G10G25
   6658860.99647   5195365.91844  23165800.3134                   23165798.6214
   1006593.68046    790717.39543  23716435.0234                   23716436.0124
 -16375131.72347 -12752059.48046  21319996.5474                   21319993.9534
 -18619071.18047 -14501963.94546  20558917.8054                   20558913.5864
  -9601324.17247  -7472287.52045  21703610.7424                   21703609.4384
 -14511641.84847 -11299436.09845  21900126.9304                   21900125.0664
 -17304567.73047 -13476268.97345  20851797.0704                   20851794.7114
  -5741384.97746  -4465458.70743  23985609.2424                   23985610.7194
 11  8 13  0 52  0.0000000  0  8G17G09G12G02G04G05G10G25
   6737057.71146   5256298.39844  23180680.6954                   23180678.8874
   1110718.19546    871853.30943  23736248.9304                   23736250.4654
 -16407946.89147 -12777629.73446  21313752.0634                   21313749.6684
 -18594161.49247 -14482553.77746  20563658.2114                   20563653.7194
  -9499949.75847  -7393294.50445  21722901.5554                   21722900.0434
 -14576619.90247 -11350068.27345  21887761.5314                   21887760.7544
 -17279179.16847 -13456485.66445  20856628.0474                   20856625.8954
  -5815811.62546  -4523453.48443  23971447.3984                   23971447.9304
 11  8 13  0 52 30.0000000  0  8G17G09G12G02G04G05G10G25
   6815426.06647   5317364.62144  23195593.5314                   23195592.2304
   1215000.86746    953112.43443  23756093.5784                   23756094.7854
 -16440304.91847 -12802843.77046  21307594.4774                   21307591.8054
 -18568951.84047 -14462909.87946  20568455.0314                   20568450.7194
  -9398429.64147  -7314187.95345  21742220.5554                   21742219.2504
 -14641271.36347 -11400445.97745  21875458.8914                   21875457.6024
 -17253145.79747 -13436199.91845  20861582.2424                   20861579.9264
  -5890036.62546  -4581291.14543  23957321.9454                   23957322.6954
 11  8 13  0 53  0.0000000  0  8G17G09G12G02G04G05G10G25
   6893969.69946   5378567.43044  23210539.5234                   23210538.0634
   1319441.24246   1034494.46943  23775967.8674                   23775968.7274
 -16472200.96147 -12827697.82046  21301524.7034                   21301522.6174
 -18543440.61747 -14443030.98446  20573310.1254                   20573304.9144
  -9296762.96947  -7234967.19945  21761566.8054                   21761565.1454
 -14705590.82047 -11450564.94945  21863219.4534                   21863218.5394
 -17226465.03547 -13415409.71145  20866659.3054                   20866657.2344
  -5964054.80146  -4638967.61743  23943237.0314                   23943237.1844
 11  8 13  0 53 30.0000000  0  8G17G09G12G02G04G05G10G25
   6972679.19946   5439899.46144  23225517.5864                   23225516.3204
   1424026.43446   1115989.34043  23795869.9774                   23795870.7194
 -16503641.78547 -12852197.14846  21295542.1174                   21295538.7974
 -18517638.40647 -14422925.35946  20578219.9774                   20578215.2504
  -9194961.14547  -7155641.14545  21780939.5704                   21780937.6054
 -14769584.43447 -11500430.03145  21851041.5554                   21851040.6644
 -17199146.01247 -13394122.15245  20871858.0554                   20871855.9844
  -6037872.85546  -4696488.13743  23929189.1334                   23929189.8554
 11  8 13  0 54  0.0000000  0  8G17G09G12G02G04G05G10G25
   7051566.11347   5501369.74644  23240529.2504                   23240528.1374
   1528763.87546   1197602.84043  23815800.2664                   23815801.2664
 -16534614.81647 -12876331.96546  21289648.1334                   21289645.4224
 -18491535.43747 -14402585.37546  20583186.8984                   20583182.6844
  -9093015.18747  -7076202.76245  21800338.8594                   21800337.5124
 -14833238.70347 -11550030.68445  21838929.1884                   21838927.1764
 -17171177.98847 -13372328.87945  20877180.1414                   20877178.0634
  -6111477.23046  -4753842.13743  23915183.4384                   23915183.9384
 11  8 13  0 54 30.0000000  0  8G17G09G12G02G04G05G10G25
   7130632.11746   5562979.57044  23255575.5314                   23255574.1174
   1633651.31646   1279333.23843  23835759.8134                   23835761.9304
 -16565116.80947 -12900099.74646  21283843.8444                   21283841.0634
 -18465131.48447 -14382010.84846  20588211.2974                   20588207.3244
  -8990925.93047  -6996652.71945  21819766.0474                   21819764.1644
 -14896549.78147 -11599363.91445  21826880.5554                   21826879.4654
 -17142559.86747 -13350029.02045  20882626.0234                   20882624.1024
  -6184864.34046  -4811026.84043  23901218.0634                   23901218.8444
 11  8 13  0 55  0.0000000  0  8G17G09G12G02G04G05G10G25
   7209866.90646   5624720.90244  23270653.1094                   23270651.8404
   1738674.39546   1361169.31343  23855745.2424                   23855746.1094
 -16595156.38347 -12923507.19946  21278127.4534                   21278124.6844
 -18438438.65247 -14361211.23846  20593290.9534                   20593286.5474
  -8888706.03147  -6917000.87545  21839217.4924                   21839216.4454
 -14959525.56647 -11648435.87945  21814896.8204                   21814895.4804
 -17113302.37547 -13327230.96945  20888193.2664                   20888191.6414
  -6258042.20346  -4868048.50443  23887292.4534                   23887293.0984
 11  8 13  0 55 30.0000000  0  8G17G09G12G02G04G05G10G25
   7289275.69946   5686597.82444  23285763.9774                   23285762.5004
   1843834.48046   1443112.15643  23875757.0784                   23875757.8204
 -16624726.37547 -12946548.73846  21272500.4384                   21272497.8594
 -18411453.64847 -14340183.96146  20598425.7734                   20598421.9024
  -8786352.83647  -6837245.16045  21858694.3834                   21858693.6374
 -15022158.38747 -11697240.59845  21802978.2814                   21802976.9924
 -17083400.80947 -13303931.02745  20893883.1174                   20893881.3244
  -6331003.60946  -4924901.49244  23873408.6644                   23873409.9024
 11  8 13  0 56  0.0000000  0  8G17G09G12G02G04G05G10G25
   7368861.90246   5748612.97743  23300909.5784                   23300907.5354
   1949131.23046   1525161.47343  23895794.5314                   23895795.0274
 -16653821.28547 -12969220.07446  21266963.7424                   21266961.3984
 -18384174.55147 -14318927.52046  20603617.1334                   20603612.8094
  -8683865.51247  -6757384.93445  21878197.5084                   21878196.2424
 -15084442.76247 -11745773.82045  21791126.1254                   21791124.5664
 -17052852.28947 -13280126.98445  20899696.4144                   20899694.8874
  -6403743.01646  -4981581.47344  23859566.6174                   23859567.9654
 11  8 13  0 56 30.0000000  0  8G17G09G12G02G04G05G10G25
   7448617.27046   5810759.95343  23316085.8834                   23316083.7074
   2054552.97746   1607308.23443  23915855.4534                   23915856.8244
 -16682448.65647 -12991527.10546  21261516.0944                   21261513.7664
 -18356611.10547 -14297449.50446  20608862.0704                   20608857.9774
  -8581254.26247  -6677428.14545  21897724.1724                   21897722.3714
 -15146384.49247 -11794040.03545  21779338.7424                   21779337.5434
 -17021665.40247 -13255825.50445  20905631.5554                   20905629.5394
  -6476266.27046  -5038093.03144  23845765.3914                   23845766.6804
 11  8 13  0 57  0.0000000  0  8G17G09G12G02G04G05G10G25
   7528546.96546   5873042.75844  23331296.3754                   23331293.5944
   2160100.87946   1689553.26643  23935940.4064                   23935941.8674
 -16710601.08247 -13013464.04746  21256158.8134                   21256156.1604
 -18328759.52347 -14275746.97746  20614161.9844                   20614158.0474
  -8478516.29747  -6597372.60945  21917274.3204                   21917273.3754
 -15207975.96947 -11842033.32845  21767618.2734                   21767616.7814
 -16989835.55147 -13231023.00445  20911688.6564                   20911686.0704
  -6548566.00046  -5094430.41843  23832007.7584                   23832008.5084
 11  8 13  0 57 30.0000000  0  8G17G09G12G02G04G05G10G25
   7608656.49646   5935465.71543  23346540.9614                   23346538.8164
   2265776.43846   1771897.82043  23956049.9224                   23956051.6804
 -16738271.38747 -13035025.31246  21250893.4064                   21250890.8794
 -18300616.22347 -14253817.12946  20619517.8054                   20619513.3484
  -8375648.59447  -6517215.97744  21936849.7584                   21936847.9064
 -15269209.44547 -11889747.65645  21755965.3674                   21755964.6214
 -16957357.94147 -13205715.77045  20917869.0084                   20917866.7034
  -6620634.77747  -5150587.85944  23818293.3674                   23818293.9574
 11  8 13  0 58  0.0000000  0  8G17G09G12G02G04G05G10G25
   7688937.52046   5998022.28543  23361817.3594                   23361815.4614
   2371567.32046   1854332.19943  23976181.7194                   23976182.5084
 -16765466.41047 -13056216.22746  21245718.5864                   21245715.9384
 -18272191.32447 -14231667.85546  20624926.6254                   20624922.4304
  -8272662.08247  -6436966.77344  21956447.4534                   21956446.0664
 -15330091.00847 -11937187.77745  21744380.3284                   21744379.1294
 -16924241.68747 -13179910.87945  20924170.6414                   20924168.5594
  -6692478.76247  -5206570.13344  23804621.4534                   23804623.0514
 11  8 13  0 58 30.0000000  0  8G17G09G12G02G04G05G10G25
   7769392.69946   6060714.58643  23377127.9454                   23377126.0554
   2477472.36746   1936855.52343  23996334.3834                   23996335.5744
 -16792181.91847 -13077033.50846  21240634.1644                   21240631.7274
 -18243483.76247 -14209298.33646  20630389.7664                   20630385.6524
  -8169556.24247  -6356624.58645  21976067.5944                   21976066.0204
 -15390615.68747 -11984349.80145  21732862.5704                   21732861.2424
 -16890484.84047 -13153606.82445  20930594.4844                   20930592.1094
  -6764093.06647  -5262373.44944  23790993.9144                   23790995.0554
 11  8 13  0 59  0.0000000  0  8G17G09G12G02G04G05G10G25
   7850025.19946   6123545.07044  23392472.2344                   23392470.7074
   2583491.21546   2019467.54743  24016509.2194                   24016510.8204
 -16818412.95747 -13097473.26646  21235643.0784                   21235640.3674
 -18214491.95747 -14186707.31646  20635906.4614                   20635902.4774
  -8066330.15647  -6276188.67645  21995711.1414                   21995709.1254
 -15450778.28547 -12031229.68745  21721414.7424                   21721412.8554
 -16856084.77047 -13126801.56245  20937140.2504                   20937138.3134
  -6835472.34046  -5317993.65243  23777411.2814                   23777412.0864
 11  8 13  0 59 30.0000000  0  8G17G09G12G02G04G05G10G25
   7930834.49646   6186513.31344  23407848.7974                   23407847.4454
   2689619.39846   2102164.77743  24036704.9454                   24036706.1334
 -16844158.61747 -13117534.80546  21230743.4224                   21230741.1254
 -18185218.17247 -14163896.57846  20641477.5004                   20641472.7664
  -7962986.75047  -6195661.35545  22015376.1094                   22015374.8204
 -15510576.72747 -12077825.80946  21710034.4614                   21710033.5124
 -16821042.55547 -13099495.93745  20943808.5164                   20943806.6884
  -6906614.87946  -5373429.34443  23763872.1254                   23763873.7704
 11  8 13  1  0  0.0000000  0  8G17G09G12G02G04G05G10G25
   8011819.42246   6249618.41444  23423260.3594                   23423257.8954
   2795851.76246   2184943.16843  24056919.7974                   24056921.0944
 -16869418.14547 -13137217.54746  21225937.1724                   21225934.3634
 -18155664.77347 -14140867.96146  20647101.0164                   20647096.7074
  -7859529.50847  -6115045.33645  22035063.7504                   22035062.3244
 -15570010.18047 -12124137.52745  21698725.1094                   21698723.8954
 -16785360.39547 -13071691.65245  20950598.3754                   20950597.1884
  -6977519.69146  -5428679.81644  23750380.3754                   23750381.8364
 11  8 13  1  0 30.0000000  0  8G17G09G12G02G04G05G10G25
   8092977.16046   6312858.16444  23438704.3284                   23438702.3634
   2902181.52346   2267797.44943  24077153.8134                   24077155.6054
 -16894193.41047 -13156522.94146  21221222.6884                   21221219.7734
 -18125836.79347 -14117625.36746  20652777.4064                   20652772.8524
  -7755963.63347  -6034344.67245  22054771.4924                   22054769.9734
 -15629078.96947 -12170165.10245  21687484.6334                   21687482.9844
 -16749042.06247 -13043391.64145  20957509.6644                   20957507.7544
  -7048187.58246  -5483745.70344  23736932.5944                   23736934.0634
 11  8 13  1  1  0.0000000  0  8G17G09G12G02G04G05G10G25
   8174310.94946   6376235.15244  23454181.3524                   23454179.8364
   3008608.75446   2350727.70343  24097406.6804                   24097408.4844
 -16918478.97347 -13175446.73046  21216600.8594                   21216598.8054
 -18095732.02047 -14094167.11346  20658506.0314                   20658501.8984
  -7652287.86347  -5953558.37545  22074500.4224                   22074499.1294
 -15687777.65247 -12215904.27045  21676313.8834                   21676313.1604
 -16712084.24647 -13014593.34845  20964542.5704                   20964540.8204
  -7118612.71546  -5538622.39544  23723531.0474                   23723532.4454
 11  8 13  1  1 30.0000000  0  8G17G09G12G02G04G05G10G25
   8255827.47746   6439754.48844  23469693.9064                   23469692.1454
   3115136.09446   2433735.94943  24117677.7114                   24117679.4844
 -16942266.89847 -13193982.76246  21212074.4774                   21212071.6564
 -18065345.67647 -14070489.44546  20664288.1024                   20664284.0084
  -7548497.76247  -5872682.99645  22094251.3834                   22094250.0004
 -15746097.26247 -12261348.06645  21665216.6174                   21665215.3634
 -16674481.52047 -12985292.51645  20971698.4774                   20971696.2734
  -7188786.28146  -5593303.05544  23710177.5784                   23710178.8984
 11  8 13  1  2  0.0000000  0  8G17G09G12G02G04G05G10G25
   8337515.90646   6503407.80944  23485238.7974                   23485237.2974
   3221748.82446   2516810.72743  24137965.2344                   24137968.1414
 -16965566.29347 -13212138.12146  21207640.2194                   21207637.6374
 -18034690.21147 -14046602.08646  20670121.6174                   20670117.1684
  -7444606.82847  -5791729.03945  22114021.1644                   22114019.5044
 -15804046.62147 -12306503.35545  21654189.2194                   21654187.8714
 -16636245.53547 -12955498.23845  20978974.6024                   20978972.3714
  -7258717.03946  -5647794.52044  23696870.1414                   23696871.3524
 11  8 13  1  2 30.0000000  0  8G17G09G12G02G04G05G10G25
   8419377.24646   6567195.86344  23500816.7424                   23500814.4144
   3328444.04346   2599949.75443  24158270.0634                   24158270.8054
 -16988374.72747 -13229910.91446  21203300.3284                   21203297.5594
 -18003766.51247 -14022505.69546  20676006.4384                   20676002.5354
  -7340615.94547  -5710697.18745  22133809.7664                   22133808.1564
 -15861622.28547 -12351367.44545  21643232.4774                   21643231.9264
 -16597376.37147 -12925210.58245  20986371.0084                   20986369.2384
  -7328401.75846  -5702094.28943  23683609.7034                   23683610.4414
 11  8 13  1  3  0.0000000  0  8G17G09G12G02G04G05G10G25
   8501416.20346   6631122.31644  23516427.4064                   23516425.9224
   3435223.15246   2683154.15243  24178589.4224                   24178590.2234
 -17010685.57447 -13247295.98046  21199055.0944                   21199052.1764
 -17972571.21547 -13998197.68446  20681942.5554                   20681938.3484
  -7236522.55947  -5629585.48044  22153617.7504                   22153616.7154
 -15918816.96947 -12395934.68045  21632348.8754                   21632347.7544
 -16557869.97347 -12894426.37945  20993888.9924                   20993886.7424
  -7397833.30546  -5756196.75843  23670397.1174                   23670397.5744
 11  8 13  1  3 30.0000000  0  8G17G09G12G02G04G05G10G25
   8583634.87146   6695188.80144  23532073.8054                   23532071.6764
   3542084.35546   2766422.53943  24198924.0864                   24198925.9414
 -17032496.28547 -13264291.37146  21194904.1644                   21194901.4844
 -17941104.30947 -13973678.01646  20687930.8204                   20687926.0904
  -7132327.30947  -5548394.39844  22173445.6334                   22173444.6954
 -15975627.02747 -12440202.19545  21621538.5474                   21621536.8444
 -16517725.67247 -12863145.10945  21001528.0314                   21001525.6374
  -7467007.62946  -5810098.79343  23657233.4694                   23657234.2114
 11  8 13  1  4  0.0000000  0  8G17G09G12G02G04G05G10G25
   8666028.64146   6759391.74644  23547752.2424                   23547750.4964
   3649019.61346   2849748.62943  24219273.2894                   24219275.3594
 -17053808.89847 -13280898.62146  21190848.2664                   21190845.9694
 -17909371.15647 -13948950.87146  20693969.3364                   20693964.7974
  -7028036.20347  -5467128.63344  22193291.6254                   22193290.4344
 -16032054.24247 -12484171.39846  21610800.5394                   21610799.2464
 -16476948.06647 -12831370.35545  21009288.0704                   21009285.4224
  -7535926.68447  -5863801.91444  23644119.0634                   23644119.6884
 11  8 13  1  4 30.0000000  0  8G17G09G12G02G04G05G10G25
   8748594.46546   6823728.71144  23563464.0084                   23563463.0044
   3756021.61746   2933126.69943  24239635.6884                   24239636.5904
 -17074624.57047 -13297118.51246  21186887.3204                   21186884.7544
 -17877376.80547 -13924020.21146  20700057.4534                   20700053.1994
  -6923655.02347  -5385792.66044  22213154.9614                   22213152.9844
 -16088099.64547 -12527843.07845  21600135.2274                   21600133.9924
 -16435541.96547 -12799105.85545  21017166.6414                   21017164.6804
  -7604591.64847  -5917307.04344  23631052.3204                   23631052.8634
 11  8 13  1  5  0.0000000  0  8G17G09G12G02G04G05G10G25
   8831340.62546   6888206.23044  23579209.2034                   23579208.5204
   3863095.58246   3016560.84843  24260010.8594                   24260012.3834
 -17094934.39147 -13312944.29746  21183022.3594                   21183019.6374
 -17845114.46947 -13898880.72346  20706196.5164                   20706192.0204
  -6819177.24247  -5304381.42645  22233036.4064                   22233035.1914
 -16143752.46147 -12571208.85246  21589544.9534                   21589543.7074
 -16393499.45347 -12766345.45745  21025167.5004                   21025165.6884
  -7672991.48047  -5970605.55944  23618036.2814                   23618037.1134
 11  8 13  1  5 30.0000000  0  8G17G09G12G02G04G05G10G25
   8914266.12946   6952823.48444  23594989.9224                   23594989.1994
   3970236.29746   3100047.02343  24280398.9924                   24280399.8714
 -17114738.12547 -13328375.73846  21179253.8984                   21179251.4224
 -17812587.01647 -13873534.65246  20712386.7974                   20712382.5704
  -6714606.20347  -5222897.52044  22252935.7344                   22252934.5274
 -16199011.88347 -12614268.07846  21579029.5164                   21579028.1214
 -16350822.96147 -12733091.04345  21033288.4454                   21033286.2974
  -7741125.37547  -6023696.84044  23605071.0234                   23605072.0204
 11  8 13  1  6  0.0000000  0  8G17G09G12G02G04G05G10G25
   8997369.31346   7017579.19144  23610803.2344                   23610803.0554
   4077438.89846   3183581.41443  24300799.0394                   24300800.9654
 -17134035.39547 -13343412.55946  21175581.7814                   21175578.9534
 -17779797.45347 -13847984.34046  20718626.5004                   20718621.6454
  -6609945.41447  -5141343.68444  22272852.0394                   22272850.6844
 -16253877.05547 -12657020.10946  21568588.8984                   21568587.7154
 -16307514.77347 -12699344.40245  21041529.3364                   21041527.4734
  -7808992.48047  -6076580.25444  23592156.0864                   23592156.7274
 11  8 13  1  6 30.0000000  0  8G17G09G12G02G04G05G10G25
   9080648.42246   7082471.98844  23626651.4224                   23626650.1454
   4184697.57446   3267159.53143  24321209.0164                   24321211.7934
 -17152826.33247 -13358054.83246  21172005.9384                   21172003.4844
 -17746749.16847 -13822232.42246  20724915.1724                   20724910.3524
  -6505199.03547  -5059723.15244  22292784.7424                   22292782.9184
 -16308347.64147 -12699464.65645  21558223.2974                   21558222.1524
 -16263578.10947 -12665108.03145  21049890.4844                   21049888.7234
  -7876592.37946  -6129255.42644  23579291.2974                   23579292.8324
 11  8 13  1  7  0.0000000  0  8G17G09G12G02G04G05G10G25
   9164104.40646   7147502.60943  23642532.7894                   23642531.3284
   4292009.33246   3350778.99243  24341629.3054                   24341631.7774
 -17171109.14847 -13372301.16046  21168527.0474                   21168524.3014
 -17713443.16047 -13796279.68046  20731253.0164                   20731248.6054
  -6400368.60947  -4978037.12544  22312733.1564                   22312730.9884
 -16362420.66447 -12741599.43045  21547933.3594                   21547932.3204
 -16219013.12947 -12630382.07845  21058370.8594                   21058368.9104
  -7943922.20346  -6181720.18044  23566479.8284                   23566480.2894
 11  8 13  1  7 30.0000000  0  8G17G09G12G02G04G05G10G25
   9247741.49246   7212674.34444  23658448.2814                   23658446.7624
   4399375.27046   3434440.66043  24362061.9774                   24362062.9534
 -17188877.79747 -13386146.84846  21165145.6644                   21165142.9414
 -17679876.29348 -13770123.67246  20737640.6174                   20737636.5204
  -6295451.28547  -4896283.40244  22332698.0634                   22332696.0474
 -16416089.43447 -12783419.18746  21537721.1024                   21537719.7074
 -16173816.10947 -12595163.61345  21066971.6644                   21066969.7154
  -8010974.92246  -6233969.01244  23553719.7734                   23553720.7584
 11  8 13  1  8  0.0000000  0  8G17G09G12G02G04G05G10G25
   9331558.32446   7277986.13743  23674397.7894                   23674397.1414
   4506790.48846   3518140.72443  24382501.8204                   24382504.6374
 -17206131.91047 -13399591.59846  21161862.4774                   21161859.4734
 -17646051.45747 -13743766.65646  20744077.5004                   20744072.7854
  -6190450.67647  -4814464.76644  22352679.1254                   22352677.4264
 -16469353.07847 -12824923.27346  21527585.0084                   21527583.2624
 -16127989.79347 -12559454.78945  21075692.2814                   21075690.0514
  -8077749.57446  -6286001.15244  23541012.4144                   23541013.7774
 11  8 13  1  8 30.0000000  0  8G17G09G12G02G04G05G10G25
   9415551.95346   7343435.74243  23690381.5554                   23690380.5904
   4614248.29346   3601874.00443  24402951.0704                   24402952.9264
 -17222873.62547 -13412637.07446  21158676.2424                   21158673.9224
 -17611973.50448 -13717212.40246  20750562.0554                   20750557.8444
  -6085371.80547  -4732585.14844  22372675.1564                   22372673.2814
 -16522212.50847 -12866112.38346  21517526.2424                   21517525.0824
 -16081538.66447 -12523259.10245  21084531.7194                   21084529.4924
  -8144247.07846  -6337817.33644  23528358.7734                   23528359.9024
 11  8 13  1  9  0.0000000  0  8G17G09G12G02G04G05G10G25
   9499726.62146   7409026.39143  23706399.9844                   23706397.4804
   4721749.05546   3685640.76243  24423407.7814                   24423409.0434
 -17239097.18047 -13425278.80146  21155589.0784                   21155586.6644
 -17577640.03948 -13690459.03946  20757095.3834                   20757090.8594
  -5980212.70347  -4650643.00844  22392686.4064                   22392684.5554
 -16574661.43047 -12906981.62146  21507545.6724                   21507544.2234
 -16034459.59847 -12486574.11345  21093490.8054                   21093488.3244
  -8210460.98846  -6389412.53144  23515758.7034                   23515759.7074
 11  8 13  1  9 30.0000000  0  8G17G09G12G02G04G05G10G25
   9584082.64546   7474758.34843  23722452.2114                   23722449.8554
   4829289.55546   3769438.50442  24443872.0314                   24443873.2034
 -17254800.71547 -13437515.31246  21152600.5164                   21152598.2034
 -17543051.75047 -13663507.11346  20763677.4454                   20763673.0004
  -5874974.82847  -4568639.49244  22412712.3134                   22412711.0864
 -16626697.26247 -12947528.96546  21497643.1094                   21497641.8164
 -15986753.20347 -12449400.29745  21102568.4144                   21102566.4024
  -8276388.59046  -6440784.64144  23503212.9064                   23503213.8524
 11  8 13  1 10  0.0000000  0  8G17G09G12G02G04G05G10G25
   9668621.82046   7540633.02743  23738540.2274                   23738538.3554
   4936868.06346   3853265.84842  24464343.4534                   24464345.1954
 -17269981.03547 -13449344.13746  21149711.9774                   21149709.3284
 -17508208.71148 -13636356.67246  20770308.1024                   20770303.3714
  -5769658.62947  -4486574.93444  22432753.1884                   22432751.8164
 -16678316.10547 -12987751.38746  21487820.7974                   21487818.9264
 -15938419.19547 -12411737.42645  21111766.0234                   21111764.2814
  -8342025.73846  -6491930.39144  23490722.6334                   23490723.6884
 11  8 13  1 10 30.0000000  0  8G17G09G12G02G04G05G10G25
   9753336.18046   7606644.25844  23754660.3054                   23754657.8404
   5044473.26246   3937114.00043  24484820.5084                   24484821.8094
 -17284644.62547 -13460770.30946  21146921.8054                   21146919.3484
 -17473120.06647 -13609014.85546  20776984.8444                   20776980.6684
  -5664273.79347  -4404456.90244  22452807.1804                   22452805.7544
 -16729523.57047 -13027653.25446  21478075.8364                   21478074.5434
 -15889466.39547 -12373592.37545  21121081.4844                   21121079.1604
  -8407378.04747  -6542854.23044  23478286.6414                   23478286.9844
 11  8 13  1 11  0.0000000  0  8G17G09G12G02G04G05G10G25
   9838226.71946   7672792.75843  23770814.0704                   23770812.5234
   5152102.52746   4020980.91843  24505300.9774                   24505303.2304
 -17298789.23047 -13471792.07846  21144230.0314                   21144227.3874
 -17437786.71148 -13581482.35246  20783708.5554                   20783704.3674
  -5558821.16847  -4322286.07044  22472874.4064                   22472873.0234
 -16780316.60547 -13067232.18046  21468410.6254                   21468409.1214
 -15839895.33647 -12334965.57045  21130514.8364                   21130512.5784
  -8472442.22347  -6593553.55944  23465905.4384                   23465906.1294
 11  8 13  1 11 30.0000000  0  8G17G09G12G02G04G05G10G25
   9923299.89846   7739083.55943  23787002.9384                   23787001.6724
   5259758.78945   4104868.89542  24525787.5164                   24525789.9534
 -17312407.10947 -13482403.41446  21141638.9454                   21141635.8404
 -17402203.51248 -13553755.17646  20790480.1414                   20790475.6024
  -5453296.49247  -4240059.08644  22492955.0944                   22492954.0824
 -16830686.54747 -13106481.43745  21458825.3674                   21458823.6804
 -15789700.50847 -12295852.70745  21140066.4774                   21140064.4184
  -8537209.33646  -6644021.41044  23453580.8054                   23453581.6524
 11  8 13  1 12  0.0000000  0  8G17G09G12G02G04G05G10G25
  10008556.06146   7805516.98143  23803226.7894                   23803224.9384
   5367438.79345   4188775.29343  24546278.8834                   24546279.8444
 -17325496.54347 -13492602.97746  21139147.7664                   21139145.3754
 -17366371.75048 -13525834.30546  20797298.4144                   20797294.2734
  -5347701.01247  -4157776.89544  22513048.9774                   22513048.5164
 -16880630.94147 -13145399.09046  21449321.2344                   21449319.7624
 -15738882.89147 -12256254.55945  21149736.4534                   21149734.3754
  -8601676.82046  -6694255.80544  23441312.2344                   23441313.7894
 11  8 13  1 12 30.0000000  0  8G17G09G12G02G04G05G10G25
   8518577.36746   6644494.66043  23519692.6564                   23519692.0314
   3899721.64546   3045099.51643  24266980.8204                   24266983.0594
 -18913477.62948 -14729990.84046  20836965.1644                   20836962.5594
 -18905712.72348 -14725320.77046  20504371.6254                   20504367.0634
  -6817454.19547  -5303039.12944  22233364.0704                   22233363.6024
 -18505570.29347 -14411585.53946  21140105.5634                   21140103.8834
 -17262863.30547 -13443771.76245  20859733.3364                   20859731.1174
 -10241265.44946  -7971857.32444  23129309.4224                   23129309.9654
 11  8 13  1 13  0.0000000  0  8G17G09G12G02G04G05G10G25
   8604200.48846   6711214.01243  23535987.2894                   23535985.6054
   4007439.16446   3129035.22343  24287479.0704                   24287481.1884
 -18925505.53547 -14739363.25046  20834676.2114                   20834673.5164
 -18869387.84447 -14697015.65246  20511284.2344                   20511279.7584
  -6711722.78546  -5220651.02044  22253484.3594                   22253483.1374
 -18554656.55147 -14449834.52046  21130764.9064                   21130763.0784
 -17210803.77347 -13403205.87945  20869639.4534                   20869637.1134
 -10305126.04747  -8021618.80944  23117157.4844                   23117158.3014
 11  8 13  1 13 30.0000000  0  8G17G09G12G02G04G05G10G25
   8690008.00446   6778077.03543  23552314.9224                   23552313.5704
   4115171.54745   3212982.49643  24307979.2034                   24307981.8284
 -18936999.54347 -14748319.62146  20832488.8674                   20832486.1954
 -18832817.40248 -14668519.20746  20518243.3594                   20518238.7504
  -6605925.01247  -5138211.21544  22273617.1644                   22273615.4964
 -18603309.64147 -14487745.96546  21121506.0704                   21121504.2734
 -17158124.12147 -13362156.79345  20879663.9614                   20879662.1054
 -10368678.56647  -8071140.23044  23105063.4844                   23105064.3284
 11  8 13  1 14  0.0000000  0  8G17G09G12G02G04G05G10G25
   8775989.99246   6845076.01243  23568677.2974                   23568675.5124
   4222904.93046   3296930.52043  24328481.2344                   24328483.3714
 -18947968.59047 -14756866.93746  20830402.1174                   20830398.7034
 -18796013.32047 -14639840.68046  20525246.7034                   20525242.7074
  -6500073.07847  -5055729.21944  22293759.7274                   22293759.0864
 -18651537.23847 -14525325.86346  21112328.7734                   21112326.9344
 -17104835.69147 -13320633.33245  20889804.6334                   20889802.6644
 -10431930.73047  -8120427.60544  23093027.1024                   23093027.8054
 11  8 13  1 14 30.0000000  0  8G17G09G12G02G04G05G10G25
   8862155.95346   6912218.31343  23585073.8754                   23585072.5984
   4330645.60246   3380884.27043  24348983.5634                   24348985.1684
 -18958402.06247 -14764996.91846  20828416.1644                   20828413.6294
 -18758967.55548 -14610973.85246  20532296.3204                   20532291.8484
  -6394159.08647  -4973198.85944  22313914.7814                   22313913.4104
 -18699327.85547 -14562565.25846  21103233.9304                   21103232.7814
 -17050930.79747 -13278629.50445  20900062.1724                   20900059.9534
 -10494870.76647  -8169471.78544  23081049.9454                   23081050.1484
 11  8 13  1 15  0.0000000  0  8G17G09G12G02G04G05G10G25
   8948504.84846   6979503.18843  23601504.5554                   23601504.0984
   4438389.20746   3464840.26643  24369486.0864                   24369488.0474
 -18968298.88347 -14772708.72346  20826533.1334                   20826530.8324
 -18721682.05547 -14581920.20346  20539391.2584                   20539386.9884
  -6288185.60947  -4890622.14544  22334080.9144                   22334079.7624
 -18746679.98447 -14599462.95346  21094223.8134                   21094221.7934
 -16996411.26247 -13236146.74645  20910436.6644                   20910434.9384
 -10557497.05147  -8218271.48044  23069132.2424                   23069133.3094
 11  8 13  1 15 30.0000000  0  8G17G09G12G02G04G05G10G25
   9035036.07046   7046930.12543  23617971.2424                   23617970.7154
   4546131.38346   3548795.13343  24389988.9774                   24389991.6764
 -18977659.07047 -14780002.37146  20824752.0704                   20824749.1884
 -18684159.32048 -14552681.71546  20546531.8834                   20546527.5004
  -6182155.44147  -4808001.27344  22354257.4694                   22354256.4534
 -18793592.36347 -14636018.00846  21085296.6024                   21085294.6564
 -16941279.27747 -13193186.75445  20920928.0784                   20920926.2814
 -10619807.93747  -8266825.41444  23057274.9384                   23057276.3714
 11  8 13  1 16  0.0000000  0  8G17G09G12G02G04G05G10G25
   9121751.08646   7114500.26643  23634472.8524                   23634471.9694
   4653870.32046   3632747.47743  24410492.0864                   24410493.8014
 -18986480.11347 -14786875.89146  20823072.8834                   20823070.4184
 -18646399.35948 -14523258.36346  20553716.9694                   20553712.8714
  -6076068.96947  -4725336.52344  22374445.9924                   22374444.3244
 -18840061.80547 -14672227.91046  21076453.9924                   21076452.0314
 -16885535.17647 -13149749.77745  20931536.0474                   20931534.1724
 -10681799.85247  -8315130.78944  23045478.2814                   23045479.1214
 11  8 13  1 16 30.0000000  0  8G17G09G12G02G04G05G10G25
   9208648.56646   7182212.60943  23651009.2504                   23651008.0004
   4761601.35246   3716693.69543  24430991.5234                   24430993.8754
 -18994761.73447 -14793329.08246  20821497.2344                   20821494.6484
 -18608404.98048 -14493652.34846  20560947.3054                   20560942.9344
  -5969929.11747  -4642630.16044  22394643.5864                   22394641.7544
 -18886087.72747 -14708092.21146  21067695.3594                   21067693.1024
 -16829181.50047 -13105837.80545  20942260.0084                   20942257.6994
 -10743471.57046  -8363186.65644  23033742.4694                   23033743.5864
 11  8 13  1 17  0.0000000  0  8G17G09G12G02G04G05G10G25
   9295722.82046   7250062.68444  23667579.0474                   23667577.6174
   4869315.20746   3800626.49243  24451489.3914                   24451489.9144
 -19002508.62547 -14799365.60246  20820023.6024                   20820020.3244
 -18570183.41048 -14463869.29746  20568220.3754                   20568215.9844
  -5863743.70747  -4559888.29744  22414849.3444                   22414848.3324
 -18931673.37147 -14743613.44546  21059020.0784                   21059018.5704
 -16772225.66047 -13061456.62545  20953097.9534                   20953095.8634
 -10804826.53947  -8410995.71944  23022067.1174                   23022068.1884
 11  8 13  1 17 30.0000000  0  8G17G09G12G02G04G05G10G25
   9382977.57446   7318053.38744  23684183.3914                   23684181.8634
   4977012.51646   3884546.37543  24471983.1884                   24471984.0274
 -19009715.73847 -14804981.50446  20818651.5944                   20818649.1294
 -18531732.12548 -14433907.24646  20575537.4614                   20575533.1294
  -5757510.30147  -4477109.03944  22435065.0944                   22435063.9924
 -18976812.75447 -14778786.94946  21050431.1414                   21050429.0434
 -16714665.25847 -13016604.34845  20964051.2584                   20964049.5164
 -10865858.34846  -8458552.95744  23010453.0704                   23010453.4064
 11  8 13  1 18  0.0000000  0  8G17G09G12G02G04G05G10G25
   9470415.90646   7386187.14144  23700821.8914                   23700821.2704
   5084692.69146   3968452.94543  24492475.1484                   24492476.2664
 -19016378.90647 -14810173.55946  20817383.5634                   20817380.6174
 -18493049.78948 -14403765.16046  20582898.8134                   20582894.1884
  -5651227.85247  -4394291.55544  22455289.7584                   22455289.1764
 -19021501.23047 -14813609.09046  21041926.7194                   21041925.0984
 -16656498.91047 -12971279.90645  20975120.0084                   20975117.7704
 -10926561.97347  -8505854.48044  22998901.7974                   22998902.3404
 11  8 13  1 18 30.0000000  0  8G17G09G12G02G04G05G10G25
   9558036.80546   7454463.15243  23717495.8444                   23717494.2814
   5192351.65645   4052342.89143  24512961.7584                   24512963.4574
 -19022497.80147 -14814941.50446  20816219.0084                   20816216.4534
 -18454138.55147 -14373444.69946  20590303.5704                   20590299.3404
  -5544898.85947  -4311437.82844  22475523.9384                   22475522.6644
 -19065737.60947 -14848078.94146  21033508.6884                   21033506.6334
 -16597729.13747 -12925485.27345  20986303.4774                   20986301.2854
 -10986935.72347  -8552898.95344  22987412.3364                   22987414.3324
 11  8 13  1 19  0.0000000  0  8G17G09G12G02G04G05G10G25
   9645838.67246   7522880.16443  23734204.1484                   23734202.2424
   5299984.30545   4136212.47343  24533443.1334                   24533444.9964
 -19028072.68747 -14819285.54346  20815158.2424                   20815155.4574
 -18415001.58647 -14342948.35546  20597750.8834                   20597746.7074
  -5438526.59847  -4228550.37544  22495765.9064                   22495764.7584
 -19109521.09447 -14882195.89546  21025177.1884                   21025175.3444
 -16538358.86747 -12879222.71145  20997602.2274                   20997599.4414
 -11046978.73447  -8599685.69144  22975986.6094                   22975987.6484
 11  8 13  1 19 30.0000000  0  8G17G09G12G02G04G05G10G25
   9733823.16446   7591439.50044  23750947.3914                   23750944.8484
   5407588.96545   4220060.13743  24553919.3674                   24553922.0864
 -19033101.71147 -14823204.23446  20814201.2974                   20814198.4884
 -18375638.92647 -14312276.14546  20605241.3524                   20605236.9844
  -5332111.47746  -4145629.53544  22516016.2734                   22516014.7704
 -19152848.46547 -14915957.43746  21016932.2504                   21016930.2344
 -16478388.43447 -12832492.48445  21009012.8364                   21009011.3954
 -11106687.44147  -8646211.92644  22964626.1094                   22964625.7384
 11  8 13  1 20  0.0000000  0  8G17G09G12G02G04G05G10G25
   9821992.64546   7660142.96943  23767725.0084                   23767723.3324
   5515164.54745   4303885.15242  24574390.2664                   24574393.0044
 -19037580.78547 -14826694.40646  20813348.5474                   20813345.9304
 -18336049.39848 -14281427.15646  20612774.6414                   20612770.1644
  -5225652.68846  -4062674.64844  22536274.3364                   22536273.8404
 -19195715.44547 -14949360.22746  21008774.6024                   21008772.6094
 -16417817.07047 -12785294.00845  21020539.8054                   21020537.2344
 -11166056.83247  -8692473.77344  22953328.0944                   22953328.1764
 11  8 13  1 20 30.0000000  0  8G17G09G12G02G04G05G10G25
   9910343.52046   7728987.77343  23784537.6564                   23784536.4614
   5622704.37545   4387682.31342  24594853.8204                   24594856.9064
 -19041512.55547 -14829758.10546  20812600.8524                   20812597.9844
 -18296238.22348 -14250405.44946  20620350.7114                   20620346.0904
  -5119155.61346  -3979689.93444  22556539.9694                   22556539.3984
 -19238123.77347 -14982405.62946  21000704.3914                   21000703.1484
 -16356649.78147 -12737631.17645  21032179.7894                   21032177.5944
 -11225088.34047  -8738472.31644  22942094.1334                   22942095.0864
 11  8 13  1 21  0.0000000  0  8G17G09G12G02G04G05G10G25
   9998873.77746   7797972.37143  23801384.4384                   23801382.9614
   5730203.10945   4471447.42642  24615311.4774                   24615313.1604
 -19044897.79748 -14832395.93046  20811956.6094                   20811953.5044
 -18256208.53947 -14219213.47346  20627968.0084                   20627963.6844
  -5012623.48447  -3896677.90244  22576812.7194                   22576811.8714
 -19280072.82447 -15015093.14846  20992721.6254                   20992720.1094
 -16294890.13347 -12689506.75445  21043932.2424                   21043929.9064
 -11283781.29747  -8784207.05144  22930925.5394                   22930926.4384
 11  8 13  1 21 30.0000000  0  8G17G09G12G02G04G05G10G25
  10087586.76646   7867099.36343  23818265.9144                   23818263.9344
   5837660.69545   4555180.51642  24635760.0554                   24635761.9144
 -19047732.35547 -14834604.66846  20811417.4534                   20811414.4694
 -18215958.76648 -14187850.00846  20635627.0084                   20635623.1484
  -4906054.93047  -3813637.49644  22597091.8674                   22597091.0084
 -19321557.59847 -15047418.89846  20984827.8134                   20984825.7074
 -16232536.86747 -12640919.77745  21055797.8134                   21055795.2774
 -11342130.09047  -8829673.60244  22919821.5164                   22919822.4534
 11  8 13  1 22  0.0000000  0  8G17G09G12G02G04G05G10G25
  10176484.02346   7936369.93043  23835181.9844                   23835179.9964
   5945075.80145   4638880.52042  24656200.1804                   24656202.2464
 -19050012.98047 -14836381.76246  20810983.3364                   20810980.4224
 -18175488.58647 -14156314.79746  20643328.4844                   20643323.8984
  -4799449.83247  -3730568.62544  22617378.6724                   22617376.7424
 -19362574.62147 -15079380.16446  20977022.1564                   20977020.3674
 -16169589.82847 -12591870.12145  21067775.6094                   21067773.9494
 -11400130.75847  -8874868.89844  22908784.2584                   22908785.3594
 11  8 13  1 22 30.0000000  0  8G17G09G12G02G04G05G10G25
  10265565.40646   8005783.94943  23852133.3284                   23852131.5784
   6052444.95345   4722544.73042  24676631.6334                   24676634.5594
 -19051739.85547 -14837727.36746  20810654.4304                   20810651.8014
 -18134799.80148 -14124609.24646  20651071.2894                   20651066.9224
  -4692809.91447  -3647472.59844  22637670.9844                   22637669.8634
 -19403122.05147 -15110975.50446  20969306.5084                   20969304.6484
 -16106050.93047 -12542359.27045  21079866.4694                   21079864.6564
 -11457781.11347  -8919791.22744  22897813.5944                   22897814.0864
 11  8 13  1 23  0.0000000  0  8G17G09G12G02G04G05G10G25
  10354828.29746   8075339.48843  23869120.6254                   23869117.9414
   6159762.19546   4806168.54742  24697052.9064                   24697056.1604
 -19052913.89147 -14838642.19146  20810431.3444                   20810428.5124
 -18093895.87548 -14092736.05146  20658854.9614                   20658850.8364
  -4586139.47347  -3564352.80144  22657969.7034                   22657968.5864
 -19443200.60947 -15142205.51246  20961679.3364                   20961677.5474
 -16041924.60247 -12492390.68745  21092069.7504                   21092067.5164
 -11515081.32047  -8964440.70744  22886910.1564                   22886910.7234
 11  8 13  1 23 30.0000000  0  8G17G09G12G02G04G05G10G25
  10444275.73846   8145038.74643  23886141.2424                   23886139.0744
   6267027.48446   4889751.86342  24717465.5704                   24717467.1524
 -19053530.86747 -14839122.93746  20810313.8284                   20810310.9614
 -18052775.20748 -14060693.95746  20666679.7194                   20666675.4844
  -4479436.69946  -3481207.81344  22678274.3594                   22678273.4384
 -19482805.00047 -15173066.02746  20954143.1564                   20954141.2154
 -15977209.24647 -12441963.13345  21104384.1484                   21104382.5554
 -11572025.84447  -9008813.04744  22876074.0944                   22876074.4964
 11  8 13  1 24  0.0000000  0  8G17G09G12G02G04G05G10G25
  10533903.36345   8214878.44943  23903197.6804                   23903194.7774
   6374233.06246   4973288.61342  24737866.5234                   24737868.0204
 -19053594.30947 -14839172.37146  20810301.5084                   20810298.1054
 -18011443.71547 -14028487.59846  20674545.3834                   20674541.0824
  -4372707.94546  -3398042.57044  22698583.5944                   22698583.4344
 -19521937.96147 -15203559.19546  20946696.2584                   20946694.4654
 -15911911.32047 -12391081.62545  21116810.0314                   21116808.0634
 -11628616.89147  -9052909.93044  22865304.8284                   22865305.3954
 11  8 13  1 24 30.0000000  0  8G17G09G12G02G04G05G10G25
  10623715.40245   8284861.86742  23920287.8834                   23920285.3364
   6481379.95346   5056779.67642  24758256.1024                   24758257.0354
 -19053099.14547 -14838786.52746  20810395.9534                   20810392.6914
 -17969898.46947 -13996114.66846  20682451.1254                   20682446.6684
  -4265950.44146  -3314854.92644  22718899.8204                   22718898.9574
 -19560593.51247 -15233680.35246  20939340.2814                   20939338.5434
 -15846028.39147 -12339744.28545  21129347.7734                   21129345.3674
 -11684847.81647  -9096726.21144  22854604.3444                   22854605.0554
 11  8 13  1 25  0.0000000  0  8G17G09G12G02G04G05G10G25
  10713711.32046   8354988.51643  23937412.3364                   23937410.7114
   6588464.41446   5140222.09442  24778633.1254                   24778635.3954
 -19052045.00448 -14837965.10546  20810596.3444                   20810593.5234
 -17928141.63747 -13963576.88346  20690396.9614                   20690392.6604
  -4159166.21546  -3231646.48044  22739220.2734                   22739219.2074
 -19598770.30947 -15263428.46146  20932075.1254                   20932073.2734
 -15779562.78547 -12287952.90245  21141995.3834                   21141993.5904
 -11740716.78947  -9140260.44544  22843972.7504                   22843973.5784
 11  8 13  1 25 30.0000000  0  8G17G09G12G02G04G05G10G25
  10803890.86746   8425258.25443  23954574.0784                   23954572.7194
   6695483.12146   5223613.26643  24798998.6254                   24799001.1884
 -19050431.01647 -14836707.44946  20810903.3054                   20810901.1454
 -17886174.64147 -13930875.31646  20698383.7114                   20698378.4804
  -4052357.07446  -3148418.59444  22759546.0474                   22759544.1174
 -19636466.62547 -15292802.16846  20924901.8524                   20924899.6844
 -15712516.71547 -12235709.22345  21154753.7194                   21154751.7194
 -11796221.70747  -9183511.00444  22833410.6644                   22833410.8714
 11  8 13  1 26  0.0000000  0  8G17G09G12G02G04G05G10G25
  10894254.01246   8495671.08243  23971769.3364                   23971767.9574
   6802433.45746   5306951.12143  24819349.8594                   24819352.6994
 -19048256.30547 -14835012.85546  20811317.1804                   20811314.8674
 -17843998.61347 -13898010.87146  20706409.1334                   20706404.5314
  -3945523.98046  -3065172.04744  22779875.0394                   22779873.9844
 -19673680.18747 -15321799.70346  20917820.8674                   20917818.3014
 -15644891.78547 -12183014.47345  21167622.6254                   21167620.4344
 -11851359.78947  -9226475.72344  22822917.7664                   22822918.6724
 11  8 13  1 26 30.0000000  0  8G17G09G12G02G04G05G10G25
  10984806.83246   8566231.72343  23989002.0704                   23988999.8444
   6909317.93446   5390237.75843  24839689.6024                   24839692.0824
 -19045514.22347 -14832876.15646  20811839.3364                   20811836.3984
 -17801608.84447 -13864979.87146  20714475.1884                   20714470.6764
  -3838662.93046  -2981903.71544  22800209.8204                   22800208.9804
 -19710403.74647 -15350415.42646  20910831.9224                   20910830.1764
 -15576683.89847 -12129865.47345  21180601.7194                   21180599.5784
 -11906123.01247  -9269148.37144  22812497.2974                   22812498.0084
 11  8 13  1 27  0.0000000  0  7G17G12G02G04G05G10G25
  11075545.28546   8636936.97743  24006267.9774                   24006267.3134
 -19042207.75447 -14830299.68446  20812468.4384                   20812465.4534
 -17759010.76247 -13831786.56646  20722581.6954                   20722577.3014
  -3731779.08646  -2898617.60544  22820549.4064                   22820548.0204
 -19746639.09447 -15378650.70746  20903937.3594                   20903934.6524
 -15507898.77047 -12076266.67245  21193691.5394                   21193689.3984
 -11960512.88347  -9311530.05944  22802146.6334                   22802148.3204
 11  8 13  1 27 30.0000000  0  7G17G12G02G04G05G10G25
  11166469.81646   8707787.23443  24023570.5314                   24023569.4344
 -19038335.07447 -14827282.01246  20813205.6174                   20813202.4774
 -17716205.06247 -13798431.46546  20730726.7584                   20730722.8594
  -3624873.25446  -2815314.37144  22840893.0634                   22840892.0514
 -19782383.59447 -15406503.51246  20897134.6254                   20897132.9384
 -15438537.60947 -12022219.03145  21206889.9774                   21206888.3324
 -12014526.21947  -9353618.36344  22791868.5944                   22791869.5044
 11  8 13  1 28  0.0000000  0  7G17G12G02G04G05G10G25
  11257581.60246   8778783.40243  24040908.8284                   24040906.9964
 -19033894.28947 -14823821.65646  20814050.0864                   20814047.4144
 -17673191.96948 -13764914.76646  20738912.3524                   20738907.8244
  -3517945.97346  -2731994.43443  22861240.3674                   22861239.7034
 -19817634.77747 -15433971.91846  20890426.7114                   20890424.5164
 -15368601.52747 -11967723.37945  21220198.3594                   21220196.5124
 -12068159.87547  -9395410.78944  22781662.5864                   22781663.0434
 11  8 13  1 28 30.0000000  0  7G17G12G02G04G05G10G25
  11348878.97746   8849924.16443  24058281.6024                   24058280.7234
 -19028886.47347 -14819919.46546  20815003.5164                   20815000.4804
 -17629974.56647 -13731238.87546  20747136.4844                   20747131.9574
  -3411000.26247  -2648660.12144  22881591.3054                   22881590.6094
 -19852392.22747 -15461055.60246  20883812.3984                   20883810.1414
 -15298093.99647 -11912782.44145  21233615.4064                   21233613.7664
 -12121412.91047  -9436906.62944  22771528.6954                   22771529.5044
 11  8 13  1 29  0.0000000  0  7G17G12G02G04G05G10G25
  11440360.18046   8921208.16043  24075690.5474                   24075688.7344
 -19023312.72747 -14815576.28146  20816063.8754                   20816061.0394
 -17586555.85547 -13697406.11746  20755398.9454                   20755394.3284
  -3304039.23046  -2565313.87144  22901945.3914                   22901944.5044
 -19886656.06647 -15487754.63746  20877292.3524                   20877289.8164
 -15227018.43747 -11857398.89545  21247140.8364                   21247138.9534
 -12174284.78147  -9478105.44144  22761467.4384                   22761467.8164
 11  8 13  1 29 30.0000000  0  7G17G12G02G04G05G10G25
  11532028.37946   8992637.87543  24093134.2734                   24093132.6954
 -19017168.95747 -14810788.92646  20817232.9304                   20817230.3914
 -17542934.14147 -13663415.16846  20763699.9304                   20763695.6764
  -3197061.12546  -2481954.32044  22922302.6174                   22922301.8914
 -19920421.17247 -15514065.06646  20870866.8524                   20870864.6954
 -15155373.77047 -11801571.87145  21260774.3914                   21260772.8834
 -12226769.94947  -9519002.93744  22751480.2584                   22751480.9344
 11  8 13  1 30  0.0000000  0  7G17G12G02G04G05G10G25
  11623882.18046   9064212.23843  24110613.2894                   24110611.8524
 -19010455.59447 -14805557.73046  20818510.7664                   20818507.9454
 -17499111.57447 -13629267.72346  20772038.4144                   20772034.4694
  -3090068.59446  -2398583.51644  22942663.1334                   22942661.5984
 -19953687.10247 -15539986.51646  20864536.7344                   20864534.2734
 -15083163.30147 -11745303.96145  21274515.8364                   21274513.2154
 -12278867.30147  -9559598.22744  22741566.1804                   22741566.6214
 11  8 13  1 30 30.0000000  0  7G17G12G02G04G05G10G25
  11715919.85546   9135929.87543  24128127.6334                   24128125.9924
 -19003173.39847 -14799883.30146  20819896.4064                   20819893.7304
 -17455091.14147 -13594966.08646  20780415.4144                   20780411.3244
  -2983064.19146  -2315203.43443  22963025.0084                   22963023.8484
 -19986453.57447 -15565518.77746  20858301.5634                   20858299.1844
 -15010390.73847 -11688598.05945  21288364.3364                   21288361.9384
 -12330576.03147  -9599890.72344  22731726.2194                   22731726.6954
 11  8 13  1 31  0.0000000  0  7G17G12G02G04G05G10G25
  11808142.96946   9207792.01643  24145676.4224                   24145675.1604
 -18995320.21947 -14793763.94946  20821390.8834                   20821387.9534
 -17410872.58647 -13560510.08646  20788830.0704                   20788825.7504
  -2876047.90246  -2231814.11343  22983390.0164                   22983388.1844
 -20018717.62947 -15590659.55546  20852161.8834                   20852159.4844
 -14937056.56247 -11631454.52745  21302319.1024                   21302317.1884
 -12381892.38747  -9639877.45344  22721961.4694                   22721961.2854
 11  8 13  1 31 30.0000000  0  7G17G12G02G04G05G10G25
  11900557.02046   9279802.92243  24163263.0864                   24163261.0944
 -18986890.20347 -14787195.11746  20822995.5004                   20822992.6764
 -17366451.87147 -13525896.55546  20797283.3984                   20797278.8794
  -2769015.93446  -2148412.53143  23003757.1804                   23003755.7344
 -20050472.23047 -15615403.35246  20846118.7424                   20846117.1134
 -14863157.44547 -11573870.80145  21316381.5704                   21316379.5474
 -12432808.60547  -9679552.36745  22712272.5004                   22712272.4534
 11  8 13  1 32  0.0000000  0  7G17G12G02G04G05G10G25
  11993156.30146   9351958.19543  24180883.9304                   24180882.4694
 -18977887.65647 -14780180.14146  20824707.9534                   20824705.5784
 -17321835.78147 -13491130.77346  20805773.6954                   20805769.0784
  -2661974.91046  -2065003.92243  23024126.7664                   23024125.1804
 -20081721.02047 -15639753.00846  20840173.1884                   20840170.2074
 -14788700.93447 -11515852.73445  21330549.9304                   21330547.7934
 -12483327.71947  -9718917.85245  22702658.4774                   22702659.3714
 11  8 13  1 32 30.0000000  0  7G17G12G02G04G05G10G25
  12085941.29746   9424258.12943  24198540.8834                   24198539.0594
 -18968311.53947 -14772718.24246  20826530.1174                   20826527.8594
 -17277024.81247 -13456213.15246  20814300.5234                   20814295.9104
  -2554925.83246  -1981589.05943  23044497.0314                   23044495.8794
 -20112461.65647 -15663706.69946  20834322.9304                   20834320.7384
 -14713688.57047 -11457401.53945  21344824.7114                   21344822.4264
 -12533446.94947  -9757971.72745  22693121.3524                   22693121.7894
 11  8 13  1 33  0.0000000  0  7G17G12G02G04G05G10G25
  12178909.30946   9496700.70343  24216231.2894                   24216229.8984
 -18958164.19947 -14764811.22346  20828461.4064                   20828458.7544
 -17232023.48847 -13421147.19946  20822864.1024                   20822859.1804
  -2447872.49646  -1898170.88343  23064868.7114                   23064867.1134
 -20142695.56247 -15687265.53946  20828569.6804                   20828567.6564
 -14638125.01647 -11398520.84045  21359203.4064                   21359202.0124
 -12583166.87147  -9796714.46144  22683659.9304                   22683660.4844
 11  8 13  1 33 30.0000000  0  7G17G12G02G04G05G10G25
  12272055.21545   9569281.91843  24233956.7974                   24233955.0124
 -18947450.16447 -14756462.63346  20830500.5164                   20830497.6214
 -17186837.56247 -13385937.39846  20831462.5704                   20831458.4534
  -2340821.24646  -1814754.33243  23085240.2814                   23085238.8954
 -20172425.96947 -15710432.03946  20822912.1254                   20822909.3954
 -14562017.38747 -11339216.18745  21373686.5704                   21373684.3634
 -12632489.91447  -9835147.94944  22674274.0314                   22674274.2704
 11  8 13  1 34  0.0000000  0  7G17G12G02G04G05G10G25
  12365386.73045   9642007.68842  24251717.4924                   24251715.6454
 -18936160.66847 -14747665.62546  20832648.9454                   20832645.8284
 -17141460.42247 -13350578.59046  20840097.6884                   20840093.0004
  -2233765.34046  -1731334.12943  23105611.5474                   23105610.8324
 -20201643.16847 -15733198.63346  20817352.1564                   20817349.8524
 -14485360.21547 -11279483.33645  21388273.6254                   21388271.7464
 -12681405.93747  -9873264.26644  22664965.6094                   22664966.1684
 11  8 13  1 34 30.0000000  0  7G17G12G02G04G05G10G25
  12458900.29745   9714875.40243  24269512.0634                   24269510.6994
 -18924298.86347 -14738422.66046  20834905.7114                   20834903.0824
 -17095897.17647 -13315074.76646  20848767.9774                   20848763.5664
  -2126709.91046  -1647914.32043  23125983.7274                   23125982.8954
 -20230349.69547 -15755567.31646  20811888.9774                   20811886.8714
 -14408159.32847 -11219326.80145  21402964.9144                   21402962.7974
 -12729916.46547  -9911064.62545  22655733.9844                   22655734.5434
 11  8 13  1 35  0.0000000  0  7G17G12G02G04G05G10G25
  12552603.30945   9787890.71542  24287342.9304                   24287341.1024
 -18911856.31647 -14728727.16046  20837273.5784                   20837270.7704
 -17050141.10947 -13279420.68746  20857475.1484                   20857470.3094
  -2019648.23846  -1564489.61343  23146356.8914                   23146355.8874
 -20258535.78947 -15777530.45746  20806525.3754                   20806522.8954
 -14330408.78547 -11158741.96945  21417760.2504                   21417758.2274
 -12778011.30947  -9948541.07845  22646581.8284                   22646582.1294
 11  8 13  1 35 30.0000000  0  7G17G12G02G04G05G10G25
  12646486.64145   9861046.56343  24305209.2114                   24305207.1174
 -18898841.71947 -14718585.90646  20839749.9534                   20839747.6414
 -17004202.49647 -13243624.36746  20866216.9534                   20866212.2774
  -1912590.63346  -1481068.09043  23166729.9924                   23166728.1374
 -20286208.98047 -15799093.94146  20801259.2424                   20801257.2114
 -14252119.86747 -11097737.62545  21432658.3674                   21432656.1374
 -12825697.13747  -9985698.81645  22637507.4614                   22637508.0474
 11  8 13  1 36  0.0000000  0  7G17G12G02G04G05G10G25
  12740554.13345   9934345.85942  24323109.0944                   24323108.0704
 -18885250.77747 -14707995.54746  20842336.1884                   20842333.4494
 -16958078.89547 -13207683.89546  20874993.5164                   20874989.6764
  -1805534.62146  -1397647.82443  23187102.2814                   23187100.4104
 -20313364.21147 -15820253.81646  20796092.0234                   20796089.7344
 -14173291.37147 -11036312.81645  21447658.3674                   21447656.4144
 -12872968.05547 -10022533.25844  22628511.7114                   22628512.5704
 11  8 13  1 36 30.0000000  0  7G17G12G02G04G05G10G25
  12834806.82045  10007789.50042  24341044.3284                   24341043.2974
 -18871081.77347 -14696954.74646  20845032.8834                   20845029.9264
 -16911770.53147 -13171599.44546  20883805.9064                   20883801.7774
  -1698480.49246  -1314229.03144  23207472.8674                   23207471.9804
 -20339998.66447 -15841007.88346  20791023.5164                   20791021.5944
 -14093924.17647 -10974468.25045  21462761.6484                   21462760.0164
 -12919820.71947 -10059041.79745  22619596.6174                   22619596.8954
 11  8 13  1 37  0.0000000  0  8G17G29G12G02G04G05G10G25
  12929247.15645  10081379.37142  24359016.9534                   24359014.9024
  -4806087.11356  -3739010.48052  24720841.3054                   24720840.7504
 -18856331.70747 -14685461.16846  20847839.3754                   20847836.5704
 -16865275.69547 -13135369.69146  20892653.3914                   20892649.6054
  -1591426.30946  -1230810.21143  23227845.2734                   23227843.9654
 -20366108.09447 -15861352.85246  20786055.3914                   20786052.7344
 -14014017.87147 -10912203.58245  21477967.3674                   21477965.4804
 -12966249.97747 -10095220.40245  22610761.6484                   22610761.8874
 11  8 13  1 37 30.0000000  0  8G17G29G12G02G04G05G10G25
  13023867.68845  10155109.59843  24377021.9064                   24377020.1454
  -4861349.28946  -3782071.91443  24710325.2194                   24710324.1414
 -18841007.28947 -14673520.04346  20850755.4534                   20850753.1884
 -16818602.73047 -13099001.12946  20901535.2034                   20901531.1884
  -1484380.60246  -1147397.97343  23248215.7504                   23248213.7304
 -20391698.43747 -15881293.33246  20781185.2194                   20781182.9694
 -13933581.76247 -10849526.09445  21493273.5474                   21493271.8014
 -13012260.86347 -10131073.00845  22602005.2504                   22602006.2424
 11  8 13  1 38  0.0000000  0  8G17G29G12G02G04G05G10G25
  13118668.51646  10228980.37142  24395062.2194                   24395060.4844
  -4916691.00446  -3825195.26242  24699794.5004                   24699793.3914
 -18825108.39847 -14661131.27746  20853781.2114                   20853778.3244
 -16771753.23847 -13062495.01646  20910450.3524                   20910446.3874
  -1377344.62546  -1063993.29343  23268583.4694                   23268582.0124
 -20416768.17247 -15900828.13346  20776414.7344                   20776412.3794
 -13852618.07047 -10786437.48445  21508680.7344                   21508678.3444
 -13057851.15647 -10166597.87545  22593329.9144                   22593330.6024
 11  8 13  1 38 30.0000000  0  8G17G29G12G02G04G05G10G25
  13213642.94946  10302986.43843  24413134.6334                   24413133.0554
  -4972118.16445  -3868385.20742  24689245.7894                   24689245.2974
 -18808640.54747 -14648299.16846  20856914.5084                   20856911.7504
 -16724734.48847 -13025857.00846  20919397.9304                   20919393.3714
  -1270326.12246   -980602.26243  23288948.1724                   23288946.5514
 -20441322.03547 -15919960.96546  20771742.1724                   20771739.7074
 -13771135.65647 -10722944.68045  21524186.6094                   21524184.0904
 -13103024.99647 -10201798.24644  22584733.6024                   22584734.3874
 11  8 13  1 39  0.0000000  0  8G17G29G12G02G04G05G10G25
  13308797.06646  10377132.50843  24431242.5084                   24431240.0984
  -5027624.34045  -3911636.70342  24678683.9064                   24678682.8484
 -18791597.52047 -14635018.86746  20860157.8364                   20860155.2584
 -16677541.53147 -12989083.24646  20928378.1024                   20928374.0904
  -1163319.82046   -897220.71943  23309310.5554                   23309309.3284
 -20465352.71547 -15938686.11346  20767168.9774                   20767167.0634
 -13689130.61747 -10659044.63745  21539791.3054                   21539789.1414
 -13147774.10247 -10236667.64844  22576217.8134                   22576218.3954
 11  8 13  1 39 30.0000000  0  8G17G29G12G02G04G05G10G25
  13404135.65646  10451422.39843  24449384.1564                   24449382.1334
  -5083204.32045  -3954945.70742  24668107.4774                   24668106.6134
 -18773974.05547 -14621286.27046  20863511.7274                   20863508.7584
 -16630170.79747 -12952170.96546  20937392.8054                   20937388.4344
  -1056322.18046   -813845.96943  23329671.7114                   23329670.3404
 -20488853.96147 -15956998.71146  20762696.9224                   20762695.1374
 -13606600.40247 -10594735.37145  21555496.0554                   21555494.2464
 -13192091.44147 -10271200.62144  22567784.9774                   22567785.1684
 11  8 13  1 40  0.0000000  0  8G17G29G12G02G04G05G10G25
  13499649.28546  10525848.64543  24467561.5314                   24467558.9774
  -5138866.74646  -3998318.94943  24657515.2424                   24657514.1024
 -18755779.35547 -14607108.56246  20866973.9844                   20866971.3164
 -16582632.66047 -12915128.23045  20946438.9384                   20946434.5434
   -949343.13346   -730485.68843  23350030.1884                   23350027.6094
 -20511833.35247 -15974904.68046  20758324.3054                   20758322.3634
 -13523556.28547 -10530025.66045  21571299.0234                   21571296.5514
 -13235983.72747 -10305402.37144  22559432.7274                   22559432.3754
 11  8 13  1 40 30.0000000  0  8G17G29G12G02G04G05G10G25
  13595348.45346  10600419.49643  24485771.2584                   24485769.7544
  -5194600.34446  -4041747.67643  24646909.6254                   24646909.0004
 -18737002.42647 -14592477.16446  20870546.9694                   20870544.2274
 -16534917.82047 -12877947.80545  20955518.7274                   20955514.0664
   -842373.60946   -647132.83643  23370385.0474                   23370383.5434
 -20534279.11747 -15992394.83246  20754052.9534                   20754050.4964
 -13439990.51647 -10464909.46145  21587201.1484                   21587198.8524
 -13279438.42247 -10339263.13344  22551163.0314                   22551163.7774
 11  8 13  1 41  0.0000000  0  8G17G29G12G02G04G05G10G25
  13691231.03946  10675133.23843  24504017.3674                   24504014.8244
  -5250406.70346  -4085233.14143  24636290.1724                   24636289.6374
 -18717644.76647 -14577393.25846  20874230.3364                   20874227.7504
 -16487029.00447 -12840631.80945  20964631.6174                   20964626.9614
   -735416.67246   -563789.81343  23390738.7734                   23390736.7894
 -20556191.89147 -16009469.67246  20749883.3524                   20749880.7274
 -13355907.29347 -10399390.05545  21603201.6254                   21603199.3524
 -13322455.14847 -10372782.61744  22542977.3674                   22542977.9024
 11  8 13  1 41 30.0000000  0  8G17G29G12G02G04G05G10G25
  13787298.54346  10749991.10543  24522297.7274                   24522296.8794
  -5306283.56646  -4128773.55543  24625656.7974                   24625656.2774
 -18697704.31247 -14561855.23046  20878024.8914                   20878022.2814
 -16438965.62947 -12803179.80146  20973778.0234                   20973773.4804
   -628471.33646   -480455.80943  23411089.3284                   23411088.6374
 -20577568.41847 -16026126.66446  20745815.0554                   20745812.7304
 -13271307.02747 -10333467.76245  21619300.6174                   21619298.4104
 -13365029.92247 -10405957.72745  22534876.0394                   22534876.0234
 11  8 13  1 42  0.0000000  0  8G17G29G12G02G04G05G10G25
  13883550.40646  10824992.64143  24540613.3754                   24540612.6094
  -5362230.84846  -4172368.81643  24615010.3914                   24615009.8674
 -18677181.20347 -14545863.18046  20881930.2194                   20881927.6484
 -16390729.40647 -12765593.09845  20982957.3834                   20982952.0044
   -521539.07846   -397131.96543  23431438.2114                   23431436.9614
 -20598407.69547 -16042365.02046  20741849.5084                   20741847.3754
 -13186192.57447 -10267144.79345  21635497.2894                   21635495.1564
 -13407160.87147 -10438786.99244  22526858.2344                   22526858.6524
 11  8 13  1 42 30.0000000  0  8G17G29G12G02G04G05G10G25
  13979983.15645  10900135.03943  24558963.5554                   24558963.4384
  -5418251.43046  -4216021.20343  24604350.0634                   24604350.4574
 -18656078.64147 -14529419.61746  20885946.2424                   20885943.1334
 -16342324.72347 -12727875.13746  20992168.1954                   20992163.8204
   -414624.36746   -313821.84843  23451783.0634                   23451781.8834
 -20618712.03147 -16058186.52346  20737985.7194                   20737983.7194
 -13100569.69947 -10200425.64845  21651790.5634                   21651788.7544
 -13448849.35247 -10471271.46945  22518925.5784                   22518925.3834
 11  8 13  1 43  0.0000000  0  8G17G29G12G02G04G05G10G25
  14076587.69945  10975411.29743  24577348.2584                   24577346.1334
  -5474353.59846  -4259737.16443  24593674.0474                   24593673.3714
 -18634405.05147 -14512531.09046  20890070.5164                   20890067.6644
 -16293761.67247 -12690033.77345  21001408.9064                   21001404.2774
   -307736.89846   -230532.92643  23472123.9064                   23472122.1604
 -20638488.64147 -16073596.84046  20734222.2734                   20734219.9884
 -13014449.48847 -10133318.98845  21668178.5164                   21668176.7114
 -13490101.95347 -10503416.32444  22511074.8914                   22511075.1764
 11  8 13  1 43 30.0000000  0  8G17G29G12G02G04G05G10G25
  14173375.84045  11050830.62942  24595765.9924                   24595764.1134
  -5530524.97746  -4303507.03943  24582985.5634                   24582984.7154
 -18612148.77747 -14495188.52746  20894306.1954                   20894303.2704
 -16245029.49647 -12652060.62145  21010682.6094                   21010678.4024
   -200866.10946   -147256.95343  23492460.0474                   23492459.1134
 -20657724.88347 -16088586.06646  20730561.5944                   20730559.0634
 -12927822.51647 -10065817.42644  21684664.2504                   21684661.2114
 -13530904.67647 -10535210.57044  22503310.5394                   22503311.0664
 11  8 13  1 44  0.0000000  0  8G17G29G12G02G04G05G10G25
  14270348.21146  11126393.50843  24614219.6564                   24614217.4454
  -5586764.08646  -4347329.73843  24572282.8204                   24572282.1414
 -18589308.84848 -14477391.18746  20898652.3054                   20898649.5084
 -16196128.23847 -12613955.73446  21019988.2584                   21019983.5044
    -94012.01246    -63994.08243  23512794.0704                   23512792.0744
 -20676418.39847 -16103152.43046  20727004.4534                   20727002.0594
 -12840690.52747  -9997922.38345  21701243.6884                   21701242.0824
 -13571254.53147 -10566651.97345  22495632.0164                   22495632.1994
 11  8 13  1 44 30.0000000  0  8G17G29G12G02G04G05G10G25
  12792077.60245   9974494.30942  24332912.5084                   24332912.0314
  -7218502.68446  -5618814.31643  24261773.9304                   24261772.7814
 -20141314.62947 -15686746.32846  20603315.2424                   20603312.3404
 -17722487.81647 -13803326.80946  20729531.3444                   20729527.1994
  -1562602.37146  -1208350.21943  23233330.7504                   23233328.6644
 -22269998.98448 -17344903.49646  20423756.3594                   20423753.8134
 -14328483.21547 -11157241.35545  21418126.5554                   21418124.3554
 -15186580.92247 -11825347.80945  22188245.5084                   22188245.9774
 11  8 13  1 45  0.0000000  0  8G17G29G12G02G04G05G10G25
  12889403.91846  10050332.90643  24351433.6804                   24351432.4884
  -7274889.52046  -5662752.03543  24251043.3364                   24251042.6054
 -20117320.96947 -15668049.95746  20607880.8754                   20607878.8794
 -17673265.70347 -13764971.89846  20738898.1334                   20738893.6844
  -1455798.78546  -1125126.66443  23253654.0004                   23253653.0824
 -22287617.47747 -17358632.16846  20420403.6024                   20420401.0704
 -14240362.40647 -11088575.79345  21434894.7734                   21434892.9614
 -15226032.53947 -11856089.26245  22180737.7894                   22180738.3014
 11  8 13  1 45 30.0000000  0  8G17G29G12G02G04G05G10G25
  12986910.56645  10126312.00843  24369989.0944                   24369988.3404
  -7331345.66846  -5706743.76643  24240299.7114                   24240299.4654
 -20092745.81247 -15648900.48046  20612557.7814                   20612554.7114
 -17623881.10247 -13726490.36346  20748295.5554                   20748290.7544
  -1349017.78946  -1041920.70743  23273974.0784                   23273972.8054
 -22304692.76247 -17371937.55146  20417154.1254                   20417151.6994
 -14151747.12147 -11019524.91845  21451758.1334                   21451756.5204
 -15265028.08247 -11886475.36745  22173317.4774                   22173317.7704
 11  8 13  1 46  0.0000000  0  7G29G12G02G04G05G10G25
  -7387873.74246  -5750791.53143  24229542.5084                   24229542.6524
 -20067593.63347 -15629301.37146  20617343.7814                   20617340.7544
 -17574338.66447 -13687885.85246  20757723.2114                   20757718.9264
  -1242264.32446   -958736.19943  23294288.3674                   23294287.7034
 -22321227.42647 -17384821.68046  20414007.3754                   20414005.0044
 -14062643.25847 -10950093.34045  21468714.0554                   21468712.0474
 -15303569.06247 -11916507.25045  22165983.7734                   22165983.4144
 11  8 13  1 46 30.0000000  0  7G29G12G02G04G05G10G25
  -7444465.43746  -5794888.88743  24218774.9694                   24218773.3914
 -20041856.21947 -15609246.22746  20622241.4844                   20622238.8594
 -17524631.44147 -13649152.93746  20767182.4694                   20767178.0394
  -1135531.02746   -875567.39843  23314599.9534                   23314598.0084
 -22337212.10947 -17397277.24646  20410965.6334                   20410962.9734
 -13973045.03947 -10880276.53944  21485764.9924                   21485761.8554
 -15341645.23447 -11946176.95745  22158737.6334                   22158738.1884
 11  8 13  1 47  0.0000000  0  7G29G12G02G04G05G10G25
  -7501116.85546  -5839032.75842  24207993.5554                   24207992.4614
 -20015529.87547 -15588732.17246  20627251.1564                   20627248.3484
 -17474757.09847 -13610289.80945  20776673.0084                   20776668.5554
  -1028815.68746   -792412.60243  23334906.5004                   23334905.0704
 -22352642.63747 -17409300.99646  20408029.1484                   20408027.2974
 -13882952.00847 -10810074.16844  21502908.9844                   21502905.5234
 -15379251.38747 -11975480.40245  22151581.8054                   22151582.4884
 11  8 13  1 47 30.0000000  0  7G29G12G02G04G05G10G25
  -7557821.62145  -5883218.19543  24197203.3834                   24197202.0204
 -19988609.20347 -15567755.00046  20632374.0634                   20632371.1374
 -17424711.30147 -13571293.07045  20786196.5084                   20786191.6994
   -922113.61746   -709268.13743  23355210.5164                   23355210.4144
 -22367512.05547 -17420887.53146  20405199.9924                   20405197.8984
 -13792361.19147 -10739483.92644  21520147.2504                   21520144.9884
 -15416379.70747 -12004411.50445  22144516.2424                   22144517.1724
 11  8 13  1 48  0.0000000  0  7G29G12G02G04G05G10G25
  -7614578.34845  -5927444.14543  24186402.8204                   24186401.2274
 -19961093.59047 -15546314.23846  20637609.7274                   20637607.7584
 -17374494.11347 -13532162.78545  20795752.6724                   20795747.9804
   -815424.83646   -626134.04343  23375513.4774                   23375513.1604
 -22381818.77347 -17432035.59846  20402476.9924                   20402475.0044
 -13701273.91447 -10668506.83244  21537480.3284                   21537478.0514
 -15453027.39547 -12032968.11745  22137542.2194                   22137542.5354
 11  8 13  1 48 30.0000000  0  7G29G12G02G04G05G10G25
  -7671394.52345  -5971716.40643  24175591.6094                   24175589.6954
 -19932991.28547 -15524416.30945  20642957.8754                   20642955.3524
 -17324114.91047 -13492906.25445  20805339.1414                   20805334.8444
   -708758.64846   -543017.55943  23395811.2034                   23395809.8674
 -22395570.12147 -17442750.90246  20399860.4064                   20399858.2074
 -13609701.26247 -10597151.51244  21554905.5234                   21554904.0824
 -15489200.73447 -12061155.09445  22130658.9924                   22130659.2734
 11  8 13  1 49  0.0000000  0  7G29G12G02G04G05G10G25
  -7728278.16045  -6016041.25442  24164765.3594                   24164764.8484
 -19904311.13747 -15502068.11345  20648415.6564                   20648412.6484
 -17273583.24247 -13453530.91845  20814955.2734                   20814950.6294
   -602124.27046   -459925.80143  23416102.8204                   23416102.3204
 -22408773.30947 -17453039.07046  20397347.9144                   20397345.8364
 -13517654.14547 -10525426.48444  21572422.1884                   21572419.9884
 -15524906.22347 -12088977.52345  22123864.3134                   22123864.6724
 11  8 13  1 49 30.0000000  0  7G29G12G02G04G05G10G25
  -7785217.93046  -6060409.84042  24153930.0164                   24153929.5234
 -19875042.79347 -15479261.59446  20653985.1254                   20653981.8014
 -17222889.68047 -13414029.45346  20824602.0864                   20824597.2814
   -495512.44545   -376851.65643  23436389.8834                   23436390.0704
 -22421416.85547 -17462891.14546  20394942.1174                   20394939.9534
 -13425124.99647 -10453325.85244  21590029.7814                   21590027.7624
 -15560131.35947 -12116425.67245  22117161.4614                   22117161.4104
 11  8 13  1 50  0.0000000  0  7G29G12G02G04G05G10G25
  -7842217.41046  -6104824.95342  24143084.9304                   24143082.1954
 -19845190.11747 -15455999.73045  20659665.5164                   20659663.3794
 -17172039.04747 -13374405.58645  20834278.3284                   20834273.8984
   -388927.65246   -293798.59043  23456673.7424                   23456672.3404
 -22433503.91447 -17472309.55146  20392642.3444                   20392639.5514
 -13332120.14847 -10380854.53944  21607727.6644                   21607725.6884
 -15594878.12547 -12143501.04345  22110549.3914                   22110548.9654
 11  8 13  1 50 30.0000000  0  7G29G12G02G04G05G10G25
  -7899272.35946  -6149283.30543  24132227.6414                   24132225.2504
 -19814750.00447 -15432280.13745  20665458.4064                   20665455.5084
 -17121029.24247 -13334657.68745  20843985.7194                   20843980.8914
   -282367.69546   -210764.84043  23476950.1564                   23476949.5394
 -22445030.24247 -17481291.00846  20390448.2344                   20390446.4344
 -13238638.78547 -10308011.91444  21625516.8594                   21625515.0824
 -15629141.20747 -12170199.52744  22104029.4534                   22104028.8284
 11  8 13  1 51  0.0000000  0  7G29G12G02G04G05G10G25
  -7956391.53946  -6193791.69143  24121356.9844                   24121356.5594
 -19783731.79747 -15408110.07845  20671360.9774                   20671357.7854
 -17069870.60947 -13294793.82045  20853720.5314                   20853715.4964
   -175842.72746   -127758.38743  23497222.6174                   23497221.1174
 -22456004.36347 -17489842.18446  20388360.2194                   20388358.0434
 -13144692.98846 -10234807.39144  21643394.6174                   21643392.2544
 -15662928.12947 -12196526.98045  22097600.1254                   22097599.4264
 11  8 13  1 51 30.0000000  0  7G29G12G02G04G05G10G25
  -8013573.56646  -6238349.03943  24110475.6564                   24110474.7464
 -19752135.77347 -15383489.80146  20677373.0394                   20677370.2344
 -17018563.53947 -13254814.30546  20863483.2894                   20863478.9884
    -69352.74646    -44779.20743  23517486.0004                   23517485.0234
 -22466424.42647 -17497961.67246  20386377.1024                   20386374.7464
 -13050284.51247 -10161242.36745  21661359.7034                   21661358.2934
 -15696236.00047 -12222481.17245  22091261.0084                   22091260.9064
 11  8 13  1 52  0.0000000  0  7G29G12G02G04G05G10G25
  -8070817.84446  -6282954.94543  24099582.5944                   24099581.4574
 -19719961.99247 -15358419.30546  20683495.7194                   20683492.7114
 -16967108.91047 -13214719.78145  20873275.2344                   20873270.3014
     37101.15646     38171.90643  23537744.0864                   23537742.5394
 -22476289.62547 -17505648.79346  20384499.6484                   20384497.7664
 -12955416.32847 -10087319.10545  21679411.7734                   21679410.4104
 -15729063.16847 -12248060.77345  22085014.2584                   22085014.4574
 11  8 13  1 52 30.0000000  0  7G29G12G02G04G05G10G25
  -8128124.82846  -6327609.67243  24088676.9534                   24088676.0514
 -19687211.55147 -15332899.47746  20689727.9224                   20689724.9774
 -16915509.12947 -13174512.16046  20883094.3984                   20883089.7704
    143517.14846    121093.48043  23557994.3754                   23557992.6054
 -22485600.44147 -17512903.95346  20382728.0944                   20382725.6764
 -12860092.06647 -10013040.45344  21697552.3284                   21697549.6764
 -15761408.75047 -12273265.11345  22078858.6884                   22078859.5434
 11  8 13  1 53  0.0000000  0  7G29G12G02G04G05G10G25
  -8185496.82846  -6372315.04743  24077759.8054                   24077758.9414
 -19653888.31647 -15306933.30946  20696069.3364                   20696066.0904
 -16863768.21947 -13134194.56645  20892940.6094                   20892935.8524
    249891.23846    203982.39143  23578236.5704                   23578235.1684
 -22494359.43747 -17519729.11746  20381060.7734                   20381058.8134
 -12764317.78147  -9938411.14844  21715777.4454                   21715774.9694
 -15793274.15247 -12298095.27745  22072795.0474                   22072795.5744
 11  8 13  1 53 30.0000000  0  7G29G12G02G04G05G10G25
  -8242922.22746  -6417062.08243  24066832.9614                   24066830.7114
 -19619981.47747 -15280512.38345  20702521.1644                   20702518.3834
 -16811876.16047 -13093759.18745  20902815.1884                   20902810.4964
    356233.49246    286846.52343  23598472.7114                   23598470.7854
 -22502554.50847 -17526114.84446  20379501.6334                   20379499.7234
 -12668085.04347  -9863424.60544  21734090.3524                   21734087.5824
 -15824646.43747 -12322541.18745  22066825.5314                   22066826.1764
 11  8 13  1 54  0.0000000  0  7G29G12G02G04G05G10G25
  -8300400.18746  -6461850.05943  24055894.0634                   24055893.3914
 -19585491.71547 -15253637.24645  20709084.2894                   20709081.6374
 -16759834.31247 -13053207.10545  20912718.2734                   20912714.5124
    462542.86346    369684.94143  23618702.2734                   23618701.2114
 -22510185.18747 -17532060.80946  20378049.5634                   20378047.5354
 -12571396.74247  -9788083.07844  21752489.2504                   21752486.8134
 -15855524.05947 -12346601.66045  22060949.6484                   22060950.3404
 11  8 13  1 54 30.0000000  0  7G29G12G02G04G05G10G25
  -8357927.27746  -6506676.32443  24044946.5394                   24044946.3984
 -19550416.39547 -15226305.82845  20715759.3054                   20715756.3984
 -16707640.58647 -13012536.66045  20922650.7344                   20922645.6644
    568821.52345    452499.54343  23638927.2584                   23638925.5204
 -22517247.60547 -17537563.95746  20376706.0314                   20376703.4574
 -12474252.57046  -9712386.32844  21770974.9144                   21770972.2154
 -15885902.14847 -12370272.89144  22055169.9384                   22055169.2584
 11  8 13  1 55  0.0000000  0  7G29G12G02G04G05G10G25
  -8415509.27346  -6551545.37943  24033989.7734                   24033988.7154
 -19514762.58647 -15198523.62945  20722543.9614                   20722540.7814
 -16655302.49247 -12971753.71145  20932609.3524                   20932605.2774
    675062.28145    535284.48843  23659143.8364                   23659141.2814
 -22523747.98047 -17542629.15246  20375468.4384                   20375466.1564
 -12376661.80146  -9636341.57444  21789546.2274                   21789543.5204
 -15915785.50047 -12393558.60945  22049482.2274                   22049482.6054
 11  8 13  1 55 30.0000000  0  7G29G12G02G04G05G10G25
  -8473147.30945  -6596458.13743  24023020.8834                   24023021.5124
 -19478532.47347 -15170292.36745  20729438.5164                   20729435.2624
 -16602823.02747 -12930860.60245  20942596.7114                   20942592.2154
    781262.27045    618037.75443  23679352.1484                   23679351.4774
 -22529687.43047 -17547257.26246  20374338.5314                   20374336.1764
 -12278629.21546  -9559952.54744  21808200.4064                   21808198.6844
 -15945174.24647 -12416458.91444  22043889.8204                   22043889.9534
 11  8 13  1 56  0.0000000  0  7G29G12G02G04G05G10G25
  -8530839.25445  -6641412.87943  24012043.8834                   24012042.8324
 -19441725.39547 -15141611.51645  20736442.2344                   20736439.5664
 -16550201.80547 -12889857.03545  20952610.5634                   20952605.4494
    887422.00845    700759.60543  23699554.6094                   23699552.8984
 -22535063.93047 -17551446.72745  20373315.9774                   20373313.0044
 -12180156.04746  -9483220.21544  21826940.4224                   21826937.2114
 -15974065.04747 -12438971.19544  22038392.0944                   22038392.5044
 11  8 13  1 56 30.0000000  0  7G29G12G02G04G05G10G25
  -8588578.47345  -6686404.45743  24001055.7424                   24001055.0474
 -19404336.15647 -15112477.02745  20743557.3984                   20743554.2274
 -16497433.80147 -12848739.08645  20962651.3284                   20962646.8094
    993546.82445    783454.28142  23719749.9694                   23719748.3714
 -22539870.82846 -17555192.31245  20372400.5474                   20372398.2194
 -12081239.23446  -9406142.18443  21845763.7344                   21845760.6724
 -16002450.46147 -12461089.64844  22032990.5554                   22032990.7154
 11  8 13  1 57  0.0000000  0  7G29G12G02G04G05G10G25
  -8646367.75045  -6731434.97742  23990058.6724                   23990056.6054
 -19366369.09446 -15082892.28945  20750782.5554                   20750779.2194
 -16444524.02346 -12807510.65245  20972720.0394                   20972715.4064
   1099632.07845    866118.12542  23739937.1724                   23739935.9414
 -22544111.38747 -17558496.62145  20371593.9844                   20371590.8204
 -11981885.28146  -9328723.51643  21864669.9064                   21864667.1454
 -16030332.56646 -12482815.92244  22027684.6884                   22027684.9144
 11  8 13  1 57 30.0000000  0  7G29G12G02G04G05G10G25
  -8704208.17645  -6776505.40242  23979052.2664                   23979050.5084
 -19327825.82846 -15052858.55545  20758116.7504                   20758114.2704
 -16391474.93046 -12766173.66444  20982814.7974                   20982810.2544
   1205675.45745    948749.37542  23760116.6334                   23760114.9694
 -22547786.69546 -17561360.46145  20370895.0474                   20370891.7234
 -11882098.53946  -9250967.60243  21883658.4614                   21883656.3484
 -16057711.08646 -12504149.79344  22022474.7814                   22022474.7504
 11  8 13  1 58  0.0000000  0  7G29G12G02G04G05G10G25
  -8762095.90655  -6821612.72752  23968037.2584                   23968034.3554
 -19288704.53546 -15022374.46145  20765561.6644                   20765558.4184
 -16338284.30946 -12724726.40244  20992936.3364                   20992932.3914
   1311679.34445   1031349.83642  23780288.5164                   23780287.3164
 -22550892.90646 -17563780.85245  20370303.2504                   20370300.7704
 -11781878.46146  -9172874.03943  21902729.7894                   21902727.5084
 -16084581.31246 -12525087.60944  22017361.8284                   22017361.6414
 11  8 13  1 58 30.0000000  0  7G29G12G02G04G05G10G25
  -8820023.45345  -6866751.04342  23957012.6954                   23957011.1764
 -19248999.67646 -14991435.61745  20773116.3914                   20773114.3164
 -16284947.11346 -12683164.95344  21003085.6884                   21003081.7424
   1417648.59845   1113923.30542  23800453.0164                   23800452.2934
 -22553423.77046 -17565752.93745  20369821.4304                   20369819.3054
 -11681222.29346  -9094440.68043  21921883.3674                   21921881.3634
 -16110935.53946 -12545623.34044  22012346.2034                   22012346.1334
 11  8 13  1 59  0.0000000  0  7G29G12G02G04G05G10G25
  -8878000.62145  -6911927.98442  23945981.6334                   23945978.5084
 -19208721.71146 -14960050.19145  20780781.9064                   20780778.4884
 -16231474.20746 -12641497.72744  21013261.7504                   21013257.2584
   1523573.16045   1196461.91442  23820610.1094                   23820608.8364
 -22555388.37946 -17567283.75445  20369447.6954                   20369445.0984
 -11580142.60946  -9015677.28543  21941118.7814                   21941115.9614
 -16136782.04746 -12565763.42244  22007427.9924                   22007427.8134
 11  8 13  1 59 30.0000000  0  7G29G12G02G04G05G10G25
  -8936026.94146  -6957143.34443  23934938.1024                   23934936.9774
 -19167872.12147 -14928219.42646  20788554.8364                   20788551.8134
 -16177867.59047 -12599726.40646  21023462.6884                   21023458.1254
   1629450.95746   1278964.01243  23840757.4614                   23840756.6174
 -22556787.76647 -17568374.22746  20369181.2424                   20369178.8444
 -11478643.23847  -8936586.94544  21960432.5314                   21960430.9414
 -16162120.31247 -12585507.55545  22002606.3524                   22002606.2974
 11  8 13  2  0  0.0000000  0  7G29G12G02G04G05G10G25
  -8994101.98446  -7002396.59443  23923887.4774                   23923886.1954
 -19126451.68047 -14895943.75446  20796436.8594                   20796434.2894
 -16124128.00447 -12557851.38345  21033688.9774                   21033684.2894
   1735281.44946   1361429.33243  23860897.0164                   23860895.3794
 -22557620.95347 -17569023.41846  20369022.6094                   20369020.2854
 -11376726.47747  -8857171.28144  21979827.3834                   21979825.5474
 -16186948.41847 -12604854.08245  21997881.5314                   21997881.7114
 11  8 13  2  0 30.0000000  0  7G29G12G02G04G05G10G25
  -9052226.51646  -7047688.39143  23912826.3284                   23912825.1604
 -19084462.73447 -14863225.08646  20804426.5864                   20804424.2734
 -16070258.25047 -12515874.93445  21043939.9774                   21043935.3634
   1841062.34046   1443856.03143  23881025.4064                   23881024.8874
 -22557889.29747 -17569232.48846  20368973.6484                   20368969.8284
 -11274397.42247  -8777434.36344  21999299.6254                   21999297.5864
 -16211266.51247 -12623803.18745  21993253.7114                   21993254.6414
 11  8 13  2  1  0.0000000  0  7G29G12G02G04G05G10G25
  -9110404.96546  -7093022.23043  23901755.4064                   23901754.4024
 -19041911.71147 -14830068.44546  20812524.2974                   20812521.3954
 -16016264.59847 -12473801.94145  21054214.8284                   21054210.3284
   1946787.50446   1526239.30843  23901145.6024                   23901143.7894
 -22557597.74647 -17569005.26246  20369026.9064                   20369024.9264
 -11171663.97347  -8697382.32044  22018849.2814                   22018847.3324
 -16235078.27747 -12642357.75845  21988722.4304                   21988722.4614
 11  8 13  2  1 30.0000000  0  7G29G12G02G04G05G10G25
  -9168628.54346  -7138391.26243  23890675.6884                   23890674.0354
 -18998791.45347 -14796468.25446  20820730.2424                   20820726.9774
 -15962140.03547 -12431626.93045  21064514.3594                   21064509.7034
   2052464.12146   1608584.73443  23921254.3444                   23921253.3284
 -22556738.37947 -17568335.57046  20369190.0394                   20369188.0944
 -11068521.49247  -8617011.55144  22038476.3594                   22038474.4694
 -16258374.43447 -12660510.53945  21984289.4454                   21984289.7774
 11  8 13  2  2  0.0000000  0  7G29G12G02G04G05G10G25
  -9226895.36346  -7183793.92243  23879587.5704                   23879586.0514
 -18955101.45347 -14762424.07846  20829043.7034                   20829040.9494
 -15907884.89147 -12389350.18045  21074838.8134                   21074834.5784
   2158092.17245   1690892.26243  23941354.4774                   23941353.4144
 -22555309.87547 -17567222.40246  20369462.5004                   20369459.8754
 -10964971.54746  -8536323.28144  22058181.2664                   22058179.3484
 -16281152.82847 -12678259.87145  21979954.9924                   21979955.0664
 11  8 13  2  2 30.0000000  0  7G29G12G02G04G05G10G25
  -9285193.90246  -7229221.34443  23868494.2424                   23868493.1414
 -18910832.36347 -14727928.65645  20837467.4774                   20837464.7814
 -15853489.00847 -12346963.75045  21085189.4614                   21085185.3364
   2263681.99245   1773170.00843  23961446.6884                   23961446.2344
 -22553301.00047 -17565656.98046  20369844.8134                   20369841.7274
 -10861006.13746  -8455311.27344  22077965.3674                   22077963.2424
 -16303400.77347 -12695595.86745  21975721.6334                   21975721.2344
 11  8 13  2  3  0.0000000  0  7G29G12G02G04G05G10G25
  -9343533.32446  -7274680.62143  23857392.0004                   23857391.2154
 -18865995.13347 -14692990.54346  20845999.9454                   20845997.5234
 -15798963.34047 -12304476.21545  21095565.6804                   21095560.7194
   2369222.86745   1855409.63743  23981531.3594                   23981530.6134
 -22550721.33647 -17563646.80146  20370335.3284                   20370332.8054
 -10756638.43047  -8373985.78944  22097825.8754                   22097823.9614
 -16325126.92647 -12712525.27045  21971586.8364                   21971586.8834
 11  8 13  2  3 30.0000000  0  7G29G12G02G04G05G10G25
  -9401913.85246  -7320171.89843  23846282.9844                   23846281.6254
 -18820591.62547 -14657611.16446  20854640.3444                   20854637.0744
 -15744309.79347 -12261889.01246  21105965.9534                   21105961.6254
   2474713.15645   1937609.85943  24001605.6804                   24001604.5274
 -22547571.74247 -17561192.51246  20370934.8594                   20370932.1604
 -10651872.41847  -8292349.92644  22117762.1254                   22117760.4024
 -16346330.84047 -12729047.73045  21967551.8914                   21967551.6484
 11  8 13  2  4  0.0000000  0  7G29G12G02G04G05G10G25
  -9460336.82446  -7365696.26643  23835165.0394                   23835163.7774
 -18774624.86347 -14621792.87946  20863387.1724                   20863384.3554
 -15689531.77047 -12219204.83645  21116389.4224                   21116385.2504
   2580149.68846   2019768.14543  24021670.4144                   24021668.3834
 -22543854.75448 -17558296.10546  20371642.1414                   20371639.3324
 -10546713.32847  -8210407.79744  22137773.3444                   22137771.7974
 -16367013.44147 -12745163.99245  21963616.2114                   21963616.0744
 11  8 13  2  4 30.0000000  0  7G29G12G02G04G05G10G25
  -9518796.82746  -7411249.44943  23824040.0554                   23824039.5124
 -18728091.73847 -14585533.28146  20872242.2734                   20872239.1994
 -15634625.87147 -12176421.00845  21126838.2504                   21126833.6604
   2685535.99646   2101887.32843  24041724.4844                   24041723.5984
 -22539565.57047 -17554953.83246  20372457.7034                   20372455.3364
 -10441159.75847  -8128158.28144  22157860.0704                   22157857.8404
 -16387169.03147 -12760869.59845  21959780.1644                   21959780.2894
 11  8 13  2  5  0.0000000  0  7G29G12G02G04G05G10G25
  -9577285.30146  -7456824.77043  23812910.1414                   23812909.8284
 -18680984.89147 -14548826.62146  20881206.2734                   20881203.4734
 -15579584.73047 -12133531.79745  21137311.9924                   21137307.8324
   2790880.03146   2183973.56343  24061770.6094                   24061770.5124
 -22534695.75847 -17551159.14146  20373384.5634                   20373382.2424
 -10335206.24247  -8045597.10544  22178021.7344                   22178019.7934
 -16406787.87547 -12776156.96945  21956047.0164                   21956046.8524
 11  8 13  2  5 30.0000000  0  7G29G12G02G04G05G10G25
  -9635806.05946  -7502425.27043  23801773.7664                   23801773.3404
 -18633310.85947 -14511678.00045  20890277.6644                   20890275.8874
 -15524414.72347 -12090542.17245  21147810.5634                   21147806.1094
   2896175.37546   2266021.88743  24081807.5004                   24081807.1294
 -22529250.62947 -17546916.13746  20374421.2034                   20374418.3134
 -10228861.28546  -7962730.91044  22198258.4224                   22198256.7704
 -16425874.16047 -12791029.35945  21952414.6254                   21952415.0004
 11  8 13  2  6  0.0000000  0  7G29G12G02G04G05G10G25
  -9694361.21546  -7548052.53943  23790631.4694                   23790630.8554
 -18585073.26247 -14474090.23845  20899457.3984                   20899454.8324
 -15469119.40247 -12047454.90645  21158332.6174                   21158328.4614
   3001419.05146   2348029.94543  24101835.2664                   24101833.9924
 -22523232.84447 -17542226.91846  20375565.9384                   20375563.4774
 -10122130.59046  -7879564.12544  22218568.1804                   22218566.8134
 -16444429.24647 -12805487.82845  21948884.2274                   21948883.9924
 11  8 13  2  6 30.0000000  0  7G29G12G02G04G05G10G25
  -9752949.52746  -7593705.59443  23779482.0084                   23779481.4344
 -18536273.38747 -14436064.33645  20908744.1334                   20908741.1094
 -15413699.64147 -12004270.67645  21168879.4694                   21168874.3594
   3106609.93046   2429996.87143  24121852.4614                   24121850.7424
 -22516642.28147 -17537091.37546  20376819.9924                   20376817.7234
 -10015017.05546  -7796099.05544  22238952.0004                   22238949.5044
 -16462451.83247 -12819531.36345  21945454.1884                   21945454.4734
 11  8 13  2  7  0.0000000  0  7G29G12G02G04G05G10G25
  -9811568.19146  -7639382.29343  23768326.3914                   23768326.3054
 -18486910.09847 -14397599.40645  20918137.3914                   20918134.8954
 -15358154.15247 -11960988.47745  21179449.1254                   21179444.4184
   3211750.25046   2511924.42643  24141860.4694                   24141857.2114
 -22509477.05547 -17531508.05146  20378183.4454                   20378180.6804
  -9907521.39846  -7712336.19944  22259407.3444                   22259405.5124
 -16479938.20347 -12833157.07045  21942126.6724                   21942126.8444
 11  8 13  2  7 30.0000000  0  7G29G12G02G04G05G10G25
  -9870214.68446  -7685080.70743  23757167.0864                   23757165.8874
 -18436983.07847 -14358695.21945  20927638.3204                   20927635.1174
 -15302482.24647 -11917607.78145  21190043.4774                   21190038.1684
   3316840.12546   2593812.66043  24161857.9924                   24161856.3014
 -22501735.55547 -17525475.69546  20379656.6724                   20379654.1024
  -9799645.18046  -7628276.80544  22279935.9384                   22279933.7584
 -16496885.82447 -12846362.99245  21938901.7894                   21938901.6954
 11  8 13  2  8  0.0000000  0  7G29G12G02G04G05G10G25
  -9928886.34046  -7730798.73443  23746002.0234                   23746001.6604
 -18386491.73447 -14319351.29345  20937246.3054                   20937243.4184
 -15246683.12147 -11874127.93745  21200661.1954                   21200656.7734
   3421881.22746   2675662.78942  24181847.0084                   24181844.8554
 -22493415.61747 -17518992.59846  20381240.2664                   20381237.1954
  -9691389.63346  -7543921.81644  22300536.4454                   22300534.0004
 -16513291.67247 -12859146.72345  21935779.6334                   21935779.9654
 11  8 13  2  8 30.0000000  0  7G29G12G02G04G05G10G25
  -9987587.23846  -7776539.57843  23734832.0474                   23734830.9964
 -18335442.31647 -14279572.51645  20946961.0394                   20946957.4494
 -15190762.85947 -11830553.69945  21211302.8594                   21211297.4304
   3526867.49646   2757470.31642  24201824.4454                   24201822.5824
 -22484522.52347 -17512062.89846  20382932.6334                   20382929.8244
  -9582762.46547  -7459277.27744  22321207.0084                   22321204.9574
 -16529159.46147 -12871511.20745  21932759.9924                   21932759.9414
 11  8 13  2  9  0.0000000  0  7G29G12G02G04G05G10G25
 -10046317.23846  -7822303.08243  23723656.4534                   23723654.3674
 -18283836.77347 -14239360.38745  20956780.9614                   20956777.9064
 -15134723.17647 -11786886.41045  21221966.6804                   21221961.7854
   3631797.59446   2839233.97342  24221792.8444                   24221790.2424
 -22475057.45347 -17504687.48846  20384733.1254                   20384731.0394
  -9473767.80946  -7374346.36344  22341948.1334                   22341946.2274
 -16544488.94147 -12883456.21945  21929843.0084                   21929843.0944
 11  8 13  2  9 30.0000000  0  7G29G12G02G04G05G10G25
 -10105070.25846  -7868084.54743  23712475.2114                   23712473.9844
 -18231671.48047 -14198712.09045  20966707.6174                   20966704.4614
 -15078559.91847 -11743122.81645  21232653.6644                   21232649.5514
   3736676.20745   2920957.65242  24241749.1644                   24241747.3054
 -22465015.22347 -17496862.35246  20386644.2734                   20386641.9494
  -9364403.63746  -7289127.53144  22362759.4304                   22362757.2544
 -16559273.88347 -12894976.91845  21927029.4844                   21927029.9574
 11  8 13  2 10  0.0000000  0  7G29G12G02G04G05G10G25
 -10163848.61346  -7913885.76643  23701290.1804                   23701289.5434
 -18178950.72747 -14157630.98045  20976740.2504                   20976737.0204
 -15022276.82447 -11699265.84445  21243364.1884                   21243359.5634
   3841499.54745   3002638.21942  24261696.8204                   24261694.9184
 -22454398.99247 -17488589.93446  20388664.2114                   20388661.5984
  -9254675.94546  -7203625.44544  22383640.3594                   22383637.9454
 -16573516.22347 -12906074.80945  21924319.2664                   21924319.1914
 11  8 13  2 10 30.0000000  0  7G29G12G02G04G05G10G25
 -10222652.61346  -7959706.93043  23690100.8594                   23690098.9184
 -18125677.59447 -14116119.41445  20986877.5784                   20986874.6564
 -14965876.44547 -11655317.46545  21254097.2194                   21254092.4104
   3946265.148 5                  24281634.023
 -22443210.67647 -17479871.74246  20390793.7584                   20390791.2234
  -9144589.54346  -7117843.79744  22404588.6024                   22404587.2114
 -16587216.40247 -12916750.22345  21921712.2344                   21921712.2664
 11  8 13  2 11  0.0000000  0  7G29G12G02G04G05G10G25
 -10281475.34046  -8005542.71943  23678906.7034                   23678904.5004
 -18071847.47347 -14074173.85945  20997121.1334                   20997118.1454
 -14909353.88347 -11611273.87945  21264852.4384                   21264847.7814
                                  24301559.555
 -22431444.25047 -17470703.07446  20393032.6414                   20393029.9384
  -9034141.45346  -7031780.36743  22425606.3674                   22425603.8794
 -16600367.27047 -12926997.61745  21919209.7734                   21919209.4654
 11  8 13  2 11 30.0000000  0  7G29G12G02G04G05G10G25
 -10340310.45346  -8051388.18443  23667710.8134                   23667708.9844
 -18017455.66447 -14031790.62945  21007471.8284                   21007468.6684
 -14852704.15647 -11567131.19945  21275632.8834                   21275628.5514
   4155645.46515                  24321477.602
 -22419094.41847 -17461079.80946  20395382.5784                   20395380.2114
  -8923328.98046  -6945433.01643  22446692.3364                   22446691.3914
 -16612962.23447 -12936811.84445  21916813.3134                   21916812.9844
 11  8 13  2 12  0.0000000  0  7G29G12G02G04G05G10G25
 -10399166.93746  -8097250.28543  23656510.7114                   23656508.7194
 -17962514.41046 -13988979.24245  21017926.8594                   21017923.3874
 -14795938.49647 -11522898.17245  21286435.1024                   21286430.2544
   4260253.945 5                  24341382.984
 -22406171.71947 -17451010.13346  20397841.9384                   20397838.9774
  -8812165.41846  -6858812.05943  22467847.2974                   22467844.6994
 -16625010.46147 -12946200.03545  21914520.2584                   21914520.1884
 11  8 13  2 12 30.0000000  0  7G29G12G02G04G05G10G25
 -10458045.77346  -8143129.86743  23645306.6024                   23645304.7274
 -17907026.35947 -13945741.83246  21028485.2504                   21028482.6294
 -14739059.38747 -11478576.77346  21297258.8284                   21297253.6604
   4364802.17215                  24361277.859
 -22392678.26247 -17440495.75446  20400409.7664                   20400406.9734
  -8700655.48046  -6771921.23444  22489066.4304                   22489064.1134
 -16636512.78947 -12955162.88745  21912331.2504                   21912331.2464
 11  8 13  2 13  0.0000000  0  7G29G12G02G04G05G10G25
 -10516948.71946  -8189028.20343  23634097.0704                   23634095.8914
 -17850996.21947 -13902081.96946  21039147.9064                   21039144.5824
 -14682071.06247 -11434170.25045  21308102.7274                   21308098.3714
   4469286.406 6                  24381160.164
 -22378617.55948 -17429539.34046  20403085.0004                   20403082.0434
  -8588805.60546  -6684765.51644  22510350.9844                   22510348.8404
 -16647471.22747 -12963701.89545  21910245.7344                   21910245.8914
 11  8 13  2 13 30.0000000  0  7G29G12G02G04G05G10G25
 -10575867.47746  -8234938.88744  23622885.9304                   23622884.0084
 -17794418.23447 -13857995.18746  21049914.0944                   21049911.1414
 -14624966.72347 -11389673.34045  21318969.3524                   21318965.3364
   4573713.68046   3573194.64853  24401032.7504                   24401031.3984
 -22363982.36747 -17418135.25846  20405870.3754                   20405867.2034
  -8476611.37146  -6597341.46144  22531701.0164                   22531698.5944
 -16657877.51247 -12971810.66445  21908266.2274                   21908265.5744
 11  8 13  2 14  0.0000000  0  7G29G12G02G04G05G10G25
 -10634804.20346  -8280863.58644  23611670.0314                   23611668.5554
 -17737296.98847 -13813485.07846  21060783.5784                   21060781.0554
 -14567750.26647 -11345089.06245  21329857.9304                   21329853.2304
   4678080.03146   3654519.10243  24420892.3914                   24420891.0664
 -22348776.18747 -17406286.25846  20408763.6414                   20408761.0744
  -8364078.73446  -6509653.70344  22553114.4924                   22553113.4304
 -16667733.74647 -12979490.81645  21906390.3204                   21906389.8134
 11  8 13  2 14 30.0000000  0  7G29G12G02G04G05G10G25
 -10693755.68046  -8326799.78943  23600451.2664                   23600450.3794
 -17679631.98447 -13768551.23446  21071757.1094                   21071754.0354
 -14510420.73447 -11300416.67645  21340767.0704                   21340762.4414
   4782386.98046   3735797.24643  24440741.4224                   24440740.1454
 -22332997.31647 -17393991.00846  20411766.2974                   20411763.7584
  -8251208.66446  -6421702.99644  22574593.6024                   22574591.4454
 -16677036.96947 -12986740.05145  21904619.5704                   21904619.7854
 11  8 13  2 15  0.0000000  0  8G26G29G12G02G04G05G10G25
  -6401529.75815                  24935971.969
 -10752721.98846  -8372747.55144  23589230.3364                   23589229.3594
 -17621425.52747 -13723195.48446  21082833.2194                   21082830.2344
 -14452979.97747 -11255657.62145  21351697.4224                   21351693.4304
   4886633.14846   3817028.06643  24460579.2504                   24460577.8594
 -22316647.38347 -17381250.77046  20414877.5474                   20414874.7424
  -8138005.63746  -6333492.86344  22596135.4144                   22596133.4614
 -16685787.40647 -12993558.55545  21902954.4304                   21902954.0904
 11  8 13  2 15 30.0000000  0  8G26G29G12G02G04G05G10G25
  -6470542.266 5                  24922838.633
 -10811705.05146  -8418708.40244  23578006.8834                   23578005.2114
 -17562682.52047 -13677421.64846  21094011.8984                   21094008.5234
 -14395431.67247 -11210814.75845  21362648.5784                   21362644.1374
   4990814.71146   3898208.46143  24480404.1414                   24480402.2664
 -22299729.53547 -17368067.99646  20418096.9844                   20418094.0864
  -8024475.52746  -6245027.85544  22617739.7034                   22617737.3714
 -16693987.14547 -12999947.93445  21901394.0234                   21901393.9844
 11  8 13  2 16  0.0000000  0  8G26G29G12G02G04G05G10G25
  -6539684.85545  -5077852.16053  24909681.4454                   24909678.8244
 -10870699.08946  -8464677.80744  23566780.1954                   23566779.1024
 -17503400.34847 -13631227.70746  21105292.9844                   21105289.6764
 -14337771.98047 -11165885.10945  21373620.8134                   21373616.1884
   5094935.81646   3979341.82043  24500217.2114                   24500216.5274
 -22282239.87547 -17354439.66446  20421425.1024                   20421422.3244
  -7910617.05146  -6156306.99244  22639406.2034                   22639403.9264
 -16701630.78147 -13005903.99245  21899939.9224                   21899939.4144
 11  8 13  2 16 30.0000000  0  8G26G29G12G02G04G05G10G25
  -6608960.66845  -5131833.23042  24896498.0234                   24896496.7704
 -10929708.95746  -8510659.53144  23555550.7504                   23555549.8984
 -17443585.80547 -13584618.92246  21116675.2114                   21116672.0204
 -14280007.85547 -11120874.08645  21384613.3754                   21384608.2424
   5198990.12946   4060423.09443  24520019.1884                   24520017.4104
 -22264184.71147 -17340370.67646  20424860.6724                   20424858.0434
  -7796438.98846  -6067337.11344  22661133.6414                   22661131.8714
 -16708723.32447 -13011430.62945  21898589.7664                   21898589.9104
 11  8 13  2 17  0.0000000  0  8G26G29G12G02G04G05G10G25
  -8253782.80945  -6413512.72343  24583499.3054                   24583498.4264
 -12564149.35246  -9784249.44944  23244526.9924                   23244526.4264
 -18958652.43047 -14765190.28946  20828367.3984                   20828364.3014
 -15797551.91847 -12303375.93045  21095833.5394                   21095829.3324
   3727566.97746   2913859.57442  24240015.6174                   24240015.6174
 -23820977.76647 -18553456.14146  20128612.7114                   20128610.0164
  -9257354.39146  -7205712.76244  22383130.1484                   22383128.3754
 -18290677.94947 -14244122.52745  21597553.7814                   21597554.0704
 11  8 13  2 17 30.0000000  0  8G26G29G12G02G04G05G10G25
  -8323303.94546  -6467684.95343  24570269.8914                   24570269.1294
 -12623174.85246  -9830243.35243  23233295.0004                   23233293.8834
 -18897766.05947 -14717746.32445  20839953.7814                   20839950.7974
 -15739568.63747 -12258194.12945  21106867.4534                   21106863.1954
   3831498.96546   2994845.53542  24259794.3984                   24259792.3794
 -23801780.52047 -18538497.23446  20132266.0554                   20132263.2074
  -9142533.60546  -7116242.03544  22404979.9534                   22404978.0354
 -18296653.23447 -14248778.57845  21596416.6954                   21596417.2154
 11  8 13  2 18  0.0000000  0  8G26G29G12G02G04G05G10G25
  -8392946.93046  -6521952.10543  24557016.8594                   24557016.2464
 -12682209.77046  -9876244.55544  23222061.4614                   23222060.6994
 -18836349.61347 -14669889.30545  20851640.6174                   20851637.6804
 -15681479.91847 -12212930.17245  21117921.4304                   21117916.6524
   3935365.76646   3075780.73842  24279558.9454                   24279557.2854
 -23782016.03547 -18523096.30546  20136027.3984                   20136024.3134
  -9027399.15246  -7026526.90643  22426889.6254                   22426887.0824
 -18302071.87947 -14253000.88345  21595385.9694                   21595385.7774
 11  8 13  2 18 30.0000000  0  8G26G29G12G02G04G05G10G25
  -8462701.78546  -6576306.46542  24543742.5634                   24543741.5944
 -12741245.40646  -9922246.29744  23210827.3754                   23210826.4774
 -18774397.11747 -14621614.60545  20863430.2344                   20863427.0744
 -15623279.33647 -12167579.03945  21128996.7894                   21128991.9884
   4039174.41045   3156670.57042  24299313.0394                   24299311.2814
 -23761677.69547 -18507248.23846  20139897.3914                   20139894.7034
  -8911946.75446  -6936564.01243  22448858.7814                   22448857.4654
 -18306925.73847 -14256783.09445  21594461.9064                   21594461.6564
 11  8 13  2 19  0.0000000  0  8G26G29G12G02G04G05G10G25
  -8532565.93446  -6630746.03142  24530448.1804                   24530446.8594
 -12800281.24246  -9968248.18744  23199592.7504                   23199592.4574
 -18711911.12147 -14572924.20346  20875320.8754                   20875317.3444
 -15564968.30547 -12122141.85545  21140093.1804                   21140088.8834
   4142923.59045   3237514.09842  24319055.7584                   24319053.8164
 -23740766.93747 -18490954.11346  20143876.6954                   20143873.3164
  -8796180.26246  -6846356.35544  22470889.1724                   22470887.1884
 -18311214.87147 -14260125.26245  21593646.2034                   21593646.1724
 11  8 13  2 19 30.0000000  0  8G26G29G12G02G04G05G10G25
  -8602539.05946  -6685270.46542  24517133.3204                   24517130.8714
 -12859317.76646 -10014250.57044  23188358.8364                   23188357.4144
 -18648895.00447 -14523820.73845  20887312.1414                   20887309.0354
 -15506549.29747 -12076620.53145  21151209.7424                   21151205.4344
   4246611.30145   3318309.63342  24338786.6024                   24338784.6604
 -23719286.17247 -18474215.84046  20147964.3444                   20147961.2304
  -8680104.52046  -6755907.73444  22492977.5784                   22492975.8014
 -18314940.39847 -14263028.25445  21592937.1414                   21592937.1684
 11  8 13  2 20  0.0000000  0  8G26G29G12G02G04G05G10G25
  -8672615.47346  -6739875.45742  24503797.9694                   24503794.8984
 -12918351.75446 -10060250.98844  23177124.6334                   23177124.4144
 -18585348.26247 -14474303.80145  20899405.1024                   20899401.8484
 -15448020.79347 -12031013.89545  21162347.2194                   21162342.7504
   4350239.46945   3399058.90242  24358507.1414                   24358503.7464
 -23697232.81647 -18457031.38746  20152160.8444                   20152158.4614
  -8563720.27046  -6665218.71143  22515124.7194                   22515122.9774
 -18318098.99647 -14265489.48445  21592336.1564                   21592335.5314
 11  8 13  2 20 30.0000000  0  8G26G29G12G02G04G05G10G25
  -8742793.12546  -6794559.30942  24490442.6644                   24490440.6214
 -12977382.46946 -10106248.81244  23165891.0234                   23165889.9614
 -18521273.07447 -14424375.10945  20911597.6024                   20911595.2544
 -15389383.87547 -11985322.79745  21173506.0164                   21173501.3364
   4453806.83645   3479760.72742  24378215.6334                   24378211.9144
 -23674608.88347 -18439402.32446  20156465.7194                   20156462.9104
  -8447031.23446  -6574292.18443  22537330.2814                   22537328.0124
 -18320690.92247 -14267509.14545  21591842.6954                   21591842.8284
 11  8 13  2 21  0.0000000  0  8G26G29G12G02G04G05G10G25
  -8813070.73045  -6849320.98042  24477069.2894                   24477067.0554
 -13036409.85246 -10152244.01244  23154658.8444                   23154657.7624
 -18456673.18047 -14374037.55145  20923890.4224                   20923887.8954
 -15330640.66047 -11939548.86345  21184683.7344                   21184679.6954
   4557311.99245   3560414.21142  24397911.2974                   24397908.1524
 -23651416.25847 -18421330.12546  20160879.5634                   20160876.1334
  -8330041.60946  -6483131.44143  22559592.2424                   22559590.1524
 -18322716.66447 -14269087.62545  21591457.0474                   21591457.2854
 11  8 13  2 21 30.0000000  0  8G26G29G12G02G04G05G10G25
  -8883446.32445  -6904158.99642  24463676.6644                   24463675.3284
 -13095433.87546 -10198236.60944  23143428.0084                   23143424.8364
 -18391550.92247 -14323292.93045  20936283.5784                   20936280.1844
 -15271792.55947 -11893693.21945  21195882.7344                   21195877.8134
   4660753.11746   3641017.66842  24417596.6484                   24417592.7034
 -23627656.45347 -18402815.96946  20165401.0784                   20165397.7854
  -8212755.34046  -6391739.53544  22581911.4844                   22581909.6564
 -18324176.55947 -14270225.16445  21591179.0474                   21591179.4734
 11  8 13  2 22  0.0000000  0  8G26G29G12G02G04G05G10G25
  -8953919.21945  -6959072.86742  24450267.6884                   24450264.9774
 -13154455.55946 -10244227.35944  23132195.8594                   23132193.8794
 -18325910.03947 -14272144.19145  20948774.0394                   20948771.0784
 -15212843.01647 -11847758.50045  21207100.1724                   21207095.3484
   4764127.71546   3721569.31342  24437267.0944                   24437264.7194
 -23603332.76247 -18383862.41846  20170029.2114                   20170026.3554
  -8095177.99646  -6300120.84843  22604285.4304                   22604283.1134
 -18325072.41047 -14270923.19945  21591009.0474                   21591008.7194
 11  8 13  2 22 30.0000000  0  8G26G29G12G02G04G05G10G25
  -9024481.42645  -7014056.32842  24436839.8054                   24436838.0634
 -13213468.53946 -10290211.34444  23120965.2194                   23120964.3714
 -18259747.80547 -14220589.17645  20961364.6094                   20961361.6174
 -15153787.70347 -11801741.37945  21218338.0784                   21218333.7274
   4867440.64146   3802072.93442  24456926.5004                   24456925.2194
 -23578440.59047 -18364465.88746  20174766.0784                   20174762.7584
  -7977307.22446  -6208273.48743  22626715.7194                   22626713.7544
 -18325398.34847 -14271177.12945  21590946.6334                   21590946.7034
 11  8 13  2 23  0.0000000  0  8G26G29G12G02G04G05G10G25
  -9095135.77045  -7069111.54342  24423394.5944                   24423392.2194
 -13272477.02046 -10336191.84044  23109736.8674                   23109735.0984
 -18193071.43747 -14168633.51245  20974053.0634                   20974049.6804
 -15094632.53547 -11755646.45345  21229595.2034                   21229590.6294
   4970686.07446   3882523.97342  24476573.6024                   24476572.7504
 -23552986.02047 -18344631.12546  20179609.9064                   20179606.7664
  -7859151.67646  -6116204.21943  22649199.6414                   22649197.4614
 -18325159.56647 -14270991.02345  21590992.0864                   21590992.3054
 11  8 13  2 23 30.0000000  0  8G26G29G12G02G04G05G10G25
  -9165870.30145  -7124229.36342  24409933.6954                   24409931.7854
 -13331470.74446 -10382160.81744  23098510.6024                   23098509.1604
 -18125873.94947 -14116271.79745  20986839.7274                   20986836.5434
 -15035369.09847 -11709467.16445  21240872.6484                   21240867.9734
   5073872.48046   3962929.02043  24496208.9064                   24496208.1214
 -23526961.20347 -18324352.02046  20184562.4924                   20184559.3054
  -7740705.75446  -6023908.69143  22671739.3754                   22671737.2544
 -18324346.46947 -14270357.39545  21591146.5634                   21591146.8364
 11  8 13  2 24  0.0000000  0  8G26G29G12G02G04G05G10G25
  -9236686.14545  -7179410.42642  24396457.0234                   24396455.8754
 -13390452.45846 -10428120.43644  23087285.5164                   23087284.9024
 -18058161.43047 -14063508.77345  20999724.7974                   20999721.8674
 -14976002.27747 -11663207.31245  21252169.7034                   21252164.8984
   5176995.30946   4043284.51243  24515833.4144                   24515831.9804
 -23500371.21947 -18303632.52746  20189622.1414                   20189619.5204
  -7621976.36746  -5931392.30143  22694332.4224                   22694331.0664
 -18322962.61747 -14269279.03545  21591410.3914                   21591410.1954
 11  8 13  2 24 30.0000000  0  8G26G29G12G02G04G05G10G25
  -9307587.10246  -7234657.86742  24382965.6804                   24382964.0514
 -13449427.69946 -10474075.02343  23076062.9224                   23076062.3204
 -17989942.27747 -14010350.98845  21012706.6174                   21012703.3444
 -14916539.33647 -11616872.55145  21263484.3204                   21263480.5164
   5280047.62546   4123585.09843  24535443.6724                   24535442.3794
 -23473223.10947 -18282478.12546  20194787.9454                   20194785.4694
  -7502973.35946  -5838662.66843  22716978.6024                   22716976.2464
 -18321014.30547 -14267760.82445  21591780.5234                   21591781.2584
 11  8 13  2 25  0.0000000  0  8G26G29G12G02G04G05G10G25
  -9378562.18046  -7289963.07842  24369460.0164                   24369458.6054
 -13508386.84846 -10520017.07843  23064843.4534                   23064842.3054
 -17921210.45347 -13956793.73845  21025786.4774                   21025782.7504
 -14856972.60547 -11570456.90645  21274819.7974                   21274815.5704
   5383037.30146   4203836.82043  24555041.4774                   24555040.2734
 -23445509.83247 -18260883.34446  20200061.8204                   20200058.9964
  -7383691.31346  -5745715.63343  22739676.6564                   22739675.2464
 -18318492.77347 -14265795.93445  21592260.8594                   21592260.4884
 11  8 13  2 25 30.0000000  0  8G26G29G12G02G04G05G10G25
  -9449609.96146  -7345324.91042  24355939.8204                   24355937.7424
 -13567330.59046 -10565947.16843  23053627.4384                   23053625.5474
 -17851969.51247 -13902839.78945  21038961.8284                   21038958.8014
 -14797304.70747 -11523962.41445  21286174.3984                   21286169.8754
   5485962.34445   4284038.18842  24574626.5554                   24574626.2584
 -23417233.80147 -18238850.04746  20205442.3984                   20205439.7974
  -7264135.01646  -5652554.87143  22762426.3834                   22762425.5554
 -18315399.32847 -14263385.41045  21592849.0084                   21592849.6094
 11  8 13  2 26  0.0000000  0  8G26G29G12G02G04G05G10G25
  -9520728.77746  -7400742.14142  24342406.4534                   24342404.9964
 -13626258.39546 -10611864.85544  23042413.9774                   23042412.0434
 -17782221.91447 -13848491.04345  21052234.9614                   21052231.3444
 -14737537.38747 -11477390.46545  21297547.7974                   21297542.8164
   5588821.29745   4364188.09842  24594200.9454                   24594200.6414
 -23388397.02347 -18216379.80946  20210930.3054                   20210927.3204
  -7144308.49046  -5559183.59143  22785230.1094                   22785228.4184
 -18311734.64547 -14260529.75445  21593546.5634                   21593546.5514
 11  8 13  2 26 30.0000000  0  8G26G29G12G02G04G05G10G25
  -9591911.14846  -7456208.87943  24328860.5944                   24328859.6094
 -13685164.59846 -10657765.70744  23031203.0784                   23031202.1334
 -17711966.32847 -13793746.43045  21065604.2424                   21065600.9454
 -14677666.73447 -11430738.00445  21308940.6484                   21308936.1054
   5691618.28145   4444289.68442  24613762.1484                   24613760.8164
 -23358996.07047 -18193469.96146  20216524.8054                   20216521.9804
  -7024210.55546  -5465600.75443  22808083.2894                   22808081.6524
 -18307494.00447 -14257225.30145  21594353.1564                   21594353.5664
 11  8 13  2 27  0.0000000  0  7G26G29G12G02G05G10G25
  -9663155.11746  -7511723.60943  24315303.2034                   24315301.6604
 -13744048.80946 -10703649.44543  23019999.1804                   23019996.6484
 -17641205.16847 -13738607.83645  21079068.8984                   21079065.9224
 -14617694.21147 -11384006.14145  21320353.0634                   21320348.9804
 -23329032.87947 -18170122.00046  20222226.8914                   20222223.7854
  -6903845.07046  -5371809.47343  22830988.8594                   22830986.4734
 -18302678.05947 -14253472.57845  21595270.1644                   21595270.0554
 11  8 13  2 27 30.0000000  0  7G26G29G12G02G05G10G25
  -9734457.02345  -7567283.47342  24301735.5864                   24301732.9694
 -13802908.83646 -10749514.32843  23008797.5634                   23008796.0864
 -17569940.04747 -13683076.52345  21092630.3674                   21092627.5944
 -14557619.62947 -11337194.75845  21331784.8674                   21331780.7074
 -23298507.53147 -18146335.98446  20228035.8284                   20228032.6174
  -6783214.44546  -5277811.56243  22853944.3444                   22853941.2274
 -18297285.59047 -14249270.59445  21596296.0164                   21596296.1024
 11  8 13  2 28  0.0000000  0  7G26G29G12G02G05G10G25
  -9805813.45745  -7622885.79742  24288155.7274                   24288154.6214
 -13861742.94546 -10795359.01643  22997601.7664                   22997600.1684
 -17498172.49647 -13627153.72345  21106286.9454                   21106284.1294
 -14497443.44547 -11290304.21145  21343236.0234                   21343231.2664
 -23267420.66447 -18122112.41046  20233951.3444                   20233948.0904
  -6662321.34846  -5183609.15643  22876949.5944                   22876946.8014
 -18291315.92647 -14244618.84045  21597432.0784                   21597432.0204
 11  8 13  2 28 30.0000000  0  7G26G29G12G02G05G10G25
  -9877218.46145  -7678526.03942  24274568.2894                   24274566.0594
 -13920546.72346 -10841180.08243  22986412.5084                   22986410.3364
 -17425901.48047 -13570838.62945  21120040.1094                   21120037.0594
 -14437163.34847 -11243332.68044  21354707.0944                   21354701.8954
 -23235770.99647 -18097450.28945  20239974.0784                   20239970.8284
  -6541166.05946  -5089202.41842  22900004.5704                   22900001.4304
 -18284766.09047 -14239515.02045  21598678.6954                   21598678.1884
 11  8 13  2 29  0.0000000  0  7G26G29G12G02G05G10G25
  -9948670.96545  -7734203.18742  24260972.3364                   24260968.6374
 -13979320.71145 -10886977.85943  22975228.0864                   22975225.9964
 -17353131.31246 -13514134.53944  21133887.8834                   21133884.6214
 -14376781.62946 -11196281.93044  21366197.6564                   21366192.4694
 -23203560.54746 -18072351.16445  20246103.0864                   20246100.0944
  -6419753.16445  -4994594.93742  22923108.4224                   22923105.9304
 -18277637.45746 -14233960.12945  21600035.4694                   21600034.7234
 11  8 13  2 29 30.0000000  0  7G26G29G12G02G05G10G25
 -10020163.53145  -7789911.76242  24247366.5554                   24247364.1134
 -14038059.19146 -10932748.09444  22964049.8834                   22964048.4224
 -17279859.91047 -13457040.00445  21147830.7894                   21147827.8054
 -14316294.55147 -11149149.18445  21377707.4224                   21377702.9734
 -23170786.08647 -18046812.67246  20252340.1564                   20252337.1294
  -6298081.25846  -4899785.74643  22946260.8834                   22946259.5274
 -18269925.45347 -14227950.78945  21601502.5784                   21601502.3444
 11  8 13  2 30  0.0000000  0  7G26G29G12G02G05G10G25
 -10091701.05145  -7845655.25042  24233753.4924                   24233750.6294
 -14096768.57046 -10978495.58244  22952877.9534                   22952876.6524
 -17206096.97747 -13399562.37945  21161867.8364                   21161863.9614
 -14255710.50447 -11101940.80945  21389236.8364                   21389231.7384
 -23137457.01647 -18020841.93446  20258682.0554                   20258679.3204
  -6176161.13346  -4804783.07843  22969462.1804                   22969459.8364
 -18261637.77747 -14221492.79345  21603079.1644                   21603079.1454
 11  8 13  2 30 30.0000000  0  7G26G29G12G02G05G10G25
 -10163287.570 5                  24220133.336
 -14155454.78946 -11024224.97743  22941709.1094                   22941708.6644
 -17131851.74746 -13341708.92144  21175995.7734                   21175993.0514
 -14195037.27746 -11054662.90644  21400782.3674                   21400776.8484
 -23103581.46546 -17994445.31645  20265128.8834                   20265125.7814
  -6054003.30945  -4709595.11742  22992708.3754                   22992705.2304
 -18252781.56247 -14214591.77045  21604764.6174                   21604764.5234
 11  8 13  2 31  0.0000000  0  7G26G29G12G02G05G10G25
                                  24206501.945
 -14214106.44145 -11069927.40243  22930548.5084                   22930547.3404
 -17057116.39846 -13283473.51244  21190217.5474                   21190214.5594
 -14134265.19546 -11007307.94944  21412347.2034                   21412341.9104
 -23069150.52746 -17967615.92245  20271680.1484                   20271677.6844
  -5931600.62945  -4614216.35942  23016000.5314                   23015998.8794
 -18243346.64546 -14207239.82444  21606560.1564                   21606560.1414
 11  8 13  2 31 30.0000000  0  7G26G29G12G02G05G10G25
 -10306559.43716                  24192867.383
 -14272715.57846 -11115596.85944  22919396.2734                   22919394.9614
 -16981887.21547 -13224853.44945  21204533.0474                   21204529.7384
 -14073388.94547 -10959871.98445  21423930.8204                   21423926.4734
 -23034159.07447 -17940349.94146  20278339.1174                   20278336.1484
  -5808949.83246  -4518644.43443  23039340.4534                   23039338.0234
 -18233326.52047 -14199431.97746  21608466.7034                   21608466.3134
 11  8 13  2 32  0.0000000  0  7G26G29G12G02G05G10G25
 -10378239.102 6                  24179227.063
 -14331287.35946 -11161237.12144  22908251.1254                   22908248.5864
 -16906173.19947 -13165855.46145  21218940.6954                   21218938.1294
 -14012415.45347 -10912360.15245  21435533.7114                   21435529.1844
 -22998615.03147 -17912653.26246  20285102.5314                   20285099.6844
  -5686060.73846  -4422886.71943  23062725.4614                   23062723.7504
 -18222727.83247 -14191173.22745  21610483.8674                   21610483.6214
 11  8 13  2 32 30.0000000  0  7G26G29G12G02G05G10G25
 -10449955.758 6                  24165580.609
 -14389830.40246 -11206854.98044  22897110.1254                   22897107.5744
 -16829985.88347 -13106488.66045  21233438.6414                   21233435.7704
 -13951355.19947 -10864780.69145  21447152.9924                   21447147.9064
 -22962529.37947 -17884534.55946  20291969.6484                   20291966.8164
  -5562946.11346  -4326953.25043  23086152.8284                   23086151.0234
 -18211560.30547 -14182471.23045  21612608.5634                   21612608.2154
 11  8 13  2 33  0.0000000  0  7G26G29G12G02G05G10G25
 -10521702.50446  -8180721.14552  24151926.6884                   24151923.6724
 -14448339.42246 -11252446.34044  22885976.0004                   22885974.4144
 -16753323.91447 -13046752.00045  21248027.0314                   21248024.1054
 -13890204.82847 -10817131.02345  21458789.5784                   21458784.8984
 -22925899.41847 -17855991.70746  20298939.9144                   20298937.1094
  -5439605.12146  -4230843.41043  23109624.3204                   23109621.6294
 -18199820.12147 -14173323.00445  21614842.8914                   21614842.7154
 11  8 13  2 33 30.0000000  0  7G26G29G12G02G05G10G25
 -10593474.01246  -8236646.92242  24138270.3914                   24138266.8914
 -14506810.39146 -11298008.05144  22874849.6564                   22874847.5744
 -16676187.34047 -12986645.56245  21262705.8444                   21262702.6024
 -13828962.58647 -10769409.76245  21470443.7814                   21470438.3014
 -22888724.12947 -17827023.93746  20306013.9144                   20306011.4614
  -5316038.34046  -4134557.63343  23133138.1724                   23133136.2424
 -18187504.82047 -14163726.63345  21617186.4924                   21617185.9924
 11  8 13  2 34  0.0000000  0  7G26G29G12G02G05G10G25
 -10665262.08646  -8292585.66443  24124608.2114                   24124605.4654
 -14565236.94146 -11343535.11744  22863730.0474                   22863728.9384
 -16598573.56647 -12926167.26245  21277475.2734                   21277472.2814
 -13767623.97747 -10721613.41845  21482116.0314                   21482111.5434
 -22850999.78547 -17797628.32446  20313192.9844                   20313190.4104
  -5192243.80946  -4038094.39543  23156695.0864                   23156692.7154
 -18174609.53147 -14153678.32845  21619640.1644                   21619639.4774
 11  8 13  2 34 30.0000000  0  7G26G29G12G02G05G10G25
 -10737067.80546  -8348538.12543  24110944.1804                   24110941.8284
 -14623621.85946 -11389029.79344  22852620.0944                   22852618.8054
 -16520488.97347 -12865322.09845  21292333.9384                   21292331.0514
 -13706193.58247 -10673745.54745  21493806.0704                   21493801.2154
 -22812731.80147 -17767809.09446  20320474.9924                   20320471.9144
  -5068228.86346  -3941459.39143  23180294.2974                   23180292.1604
 -18161138.44947 -14143181.35545  21622203.6954                   21622202.6564
 11  8 13  2 35  0.0000000  0  7G26G29G12G02G05G10G25
 -10808884.65246  -8404499.22743  24097277.0864                   24097276.3244
 -14681959.91046 -11434487.94144  22841518.6174                   22841517.1254
 -16441932.18047 -12804108.99645  21307283.6174                   21307280.0314
 -13644668.37547 -10625803.78945  21505514.3594                   21505509.6804
 -22773918.02747 -17737564.57046  20327861.2194                   20327857.9224
  -4943992.91046  -3844652.18443  23203935.8914                   23203933.8164
 -18147088.09047 -14132232.98445  21624877.4304                   21624877.1134
 11  8 13  2 35 30.0000000  0  7G26G29G12G02G05G10G25
 -10880711.38346  -8460468.03543  24083609.6724                   24083607.7544
 -14740251.77746 -11479910.09444  22830426.2114                   22830424.3524
 -16362908.15647 -12742531.80545  21322320.9924                   21322317.6524
 -13583051.07047 -10577790.28145  21517238.7034                   21517234.4414
 -22734561.75447 -17706897.31646  20335350.3754                   20335347.6054
  -4819540.80146  -3747676.53543  23227619.3284                   23227616.2034
 -18132460.61747 -14120834.91845  21627660.8364                   21627660.3484
 11  8 13  2 36  0.0000000  0  7G26G29G12G02G05G10G25
 -10952537.24645  -8516436.17643  24069941.5634                   24069939.8094
 -14798488.12146 -11525288.98444  22819344.4924                   22819342.4654
 -16283411.32447 -12680586.19145  21337448.7344                   21337445.6334
 -13521334.32447 -10529699.30145  21528983.3134                   21528978.5164
 -22694656.83247 -17675802.53146  20342943.8444                   20342940.7464
  -4694867.93446  -3650528.84043  23251342.8204                   23251340.3834
 -18117248.41447 -14108981.20345  21630555.9384                   21630555.3404
 11  8 13  2 36 30.0000000  0  7G26G29G12G02G05G10G25
 -11024358.66845  -8572400.83643  24056273.2114                   24056273.0864
 -14856667.05946 -11570623.15244  22808273.9614                   22808271.4654
 -16203443.53547 -12618273.60545  21352665.9534                   21352662.9774
 -13459518.49247 -10481531.11345  21540747.0394                   21540741.6134
 -22654204.13347 -17644280.91446  20350642.0084                   20350638.4654
  -4569976.80146  -3553211.07842  23275109.6094                   23275106.5594
 -18101451.41847 -14096671.82445  21633561.7034                   21633560.9304
 11  8 13  2 37  0.0000000  0  7G26G29G12G02G05G10G25
 -11096178.80945  -8628364.51642  24042607.5314                   24042606.2074
 -14914793.31346 -11615916.22644  22797212.5474                   22797210.0944
 -16123013.20346 -12555600.55945  21367971.5864                   21367967.9964
 -13397609.85246 -10433290.58244  21552527.2344                   21552522.6884
 -22613211.10947 -17612338.23045  20358442.5634                   20358439.0634
  -4444876.47745  -3455730.32042  23298915.6094                   23298911.9494
 -18085075.74247 -14083911.47345  21636677.4774                   21636677.2274
 11  8 13  2 37 30.0000000  0  7G26G29G12G02G05G10G25
 -11167996.38346  -8684326.30142  24028939.6024                   24028938.3834
 -14972867.05147 -11661168.46544  22786161.2664                   22786158.9774
 -16042125.01247 -12492570.84845  21383363.4304                   21383360.1954
 -13335610.84847 -10384979.73445  21564325.2114                   21564320.5984
 -22571681.22747 -17579977.33646  20366345.0784                   20366342.6454
  -4319571.90646  -3358090.44143  23322759.7194                   23322756.5744
 -18068123.61347 -14070702.06645  21639903.3134                   21639903.0124
 11  8 13  2 38  0.0000000  0  7G26G29G12G02G05G10G25
 -11239806.83645  -8740282.38343  24015275.2734                   24015273.6054
 -15030885.83646 -11706377.78144  22775120.3594                   22775118.2704
 -15960780.28147 -12429185.27745  21398842.8284                   21398839.4694
 -13273520.91447 -10336597.93745  21576140.9454                   21576135.6644
 -22529614.79347 -17547198.23846  20374350.1334                   20374347.4304
  -4194065.15246  -3260292.96143  23346642.6024                   23346640.5554
 -18050594.12947 -14057042.67245  21643239.4774                   21643238.8164
 11  8 13  2 38 30.0000000  0  7G26G29G12G02G05G10G25
 -11311614.87945  -8796236.60542  24001611.2194                   24001609.3714
 -15088855.75446 -11751549.03544  22764089.0084                   22764087.1094
 -15878989.12947 -12365451.89145  21414407.4844                   21414404.3164
 -13211348.24647 -10288151.70745  21587971.8594                   21587966.7894
 -22487020.84847 -17514008.12146  20382455.8364                   20382452.5864
  -4068366.68846  -3162346.10943  23370563.0864                   23370560.6334
 -18032495.24247 -14042939.60545  21646683.2194                   21646682.8484
 11  8 13  2 39  0.0000000  0  7G26G29G12G02G05G10G25
 -11383412.56245  -8852182.79342  23987947.8444                   23987946.2814
 -15146770.41046 -11796677.24244  22753067.4534                   22753065.4344
 -15796749.03147 -12301368.68045  21430056.9924                   21430053.8914
 -13149088.40647 -10239637.53145  21599819.0634                   21599814.9224
 -22443896.32047 -17480404.56646  20390661.9844                   20390658.6374
  -3942474.73046  -3064248.50843  23394518.8914                   23394516.9614
 -18013822.47347 -14028389.35545  21650236.6884                   21650236.2624
 11  8 13  2 39 30.0000000  0  7G26G29G12G02G05G10G25
 -11455192.75045  -8908115.26642  23974288.0234                   23974286.5984
 -15204624.35246 -11841758.12544  22742058.2894                   22742056.7234
 -15714059.08647 -12236934.94145  21445792.1644                   21445789.5164
 -13086737.94947 -10191052.73845  21611684.8834                   21611679.9924
 -22400238.84847 -17446385.71546  20398969.7814                   20398966.3794
  -3816388.53546  -2965999.49643  23418512.6174                   23418510.4104
 -17994572.34047 -14013389.20345  21653899.6644                   21653899.5044
 11  8 13  2 40  0.0000000  0  7G26G29G12G02G05G10G25
 -11526954.50045  -8964033.44942  23960632.7034                   23960631.1804
 -15262417.91846 -11886791.95744  22731061.0634                   22731058.3874
 -15630923.50447 -12172153.93045  21461612.7424                   21461609.1684
 -13024299.63347 -10142399.48445  21623565.7344                   21623561.3634
 -22356052.09047 -17411954.43445  20407378.7584                   20407374.9184
  -3690112.82046  -2867602.80543  23442541.6954                   23442539.3094
 -17974747.16047 -13997940.95745  21657672.7814                   21657671.4534
 11  8 13  2 40 30.0000000  0  7G26G29G12G02G05G10G25
 -11598691.15245  -9019932.05142  23946982.0474                   23946978.9224
 -15320146.32846 -11931775.03544  22720075.9224                   22720073.3554
 -15547341.88346 -12107025.39545  21477517.3054                   21477514.3444
 -12961770.43046 -10093675.43044  21635464.4304                   21635459.6454
 -22311334.00447 -17377109.14845  20415888.0234                   20415884.9884
  -3563647.50045  -2769058.41043  23466606.4924                   23466605.1334
 -17954344.16447 -13982042.49245  21661555.1334                   21661554.6844
 11  8 13  2 41  0.0000000  0  7G26G29G12G02G05G10G25
 -11670395.51645  -9075805.55942  23933338.6644                   23933334.3094
 -15377803.93446 -11976702.94944  22709103.7194                   22709101.6454
 -15463312.24246 -12041547.77345  21493507.5864                   21493504.7424
 -12899146.27047 -10044877.38344  21647381.8834                   21647376.6134
 -22266082.10547 -17341847.90645  20424499.0944                   20424495.7464
  -3436991.23045  -2670365.22743  23490708.9224                   23490706.9304
 -17933359.39547 -13965690.68045  21665547.9774                   21665548.2274
 11  8 13  2 41 30.0000000  0  7G26G29G12G02G05G10G25
 -11742068.82445  -9131654.82042  23919698.0004                   23919695.0124
 -15435393.87146 -12021578.12144  22698144.8284                   22698142.2664
 -15378842.25446 -11975727.02044  21509581.8594                   21509578.8284
 -12836432.87546  -9996009.77744  21659315.8754                   21659311.3794
 -22220302.80547 -17306175.68745  20433210.0634                   20433207.0204
  -3310152.02045  -2571529.49242  23514846.3674                   23514844.0084
 -17911798.29347 -13948889.77345  21669651.3594                   21669650.9224
 11  8 13  2 42  0.0000000  0  7G26G29G12G02G05G10G25
 -11813708.22345  -9187477.65642  23906065.7894                   23906062.6914
 -15492914.48846 -12066399.27743  22687199.5394                   22687196.2154
 -15293934.29346 -11909564.98444  21525739.5784                   21525736.4614
 -12773630.43046  -9947072.79344  21671266.7894                   21671261.6334
 -22173997.64147 -17270093.70345  20442021.6724                   20442018.8554
  -3183132.39145  -2472553.12142  23539016.9454                   23539015.2774
 -17889661.13346 -13931639.98444  21673863.9224                   21673863.1174
 11  8 13  2 42 30.0000000  0  7G26G29G12G02G05G10G25
 -11885306.64845  -9243268.66442  23892441.5394                   23892437.4924
 -15550360.35246 -12111162.21143  22676266.9144                   22676264.3794
 -15208587.22346 -11843060.80144  21541981.1484                   21541977.4414
 -12710735.73046  -9898063.93744  21683235.2424                   21683230.6414
 -22127164.63747 -17233600.44545  20450934.3134                   20450930.8954
  -3055931.53945  -2373435.61342  23563222.3674                   23563220.0744
 -17866944.68447 -13913938.83645  21678186.2114                   21678185.6294
 11  8 13  2 43  0.0000000  0  7G26G29G12G02G05G10G25
 -11956862.87145  -9299026.60542  23878823.2424                   23878821.2584
 -15607732.43746 -12155867.64543  22665349.0394                   22665346.8204
 -15122806.22346 -11776218.44944  21558303.3054                   21558300.8754
 -12647751.46146  -9848985.25044  21695220.0084                   21695215.7274
 -22079807.73446 -17196698.92245  20459945.6174                   20459942.9264
  -2928554.92245  -2274181.10542  23587461.6724                   23587460.1134
 -17843651.97346 -13895788.62944  21682618.7974                   21682618.3874
 11  8 13  2 43 30.0000000  0  7G26G29G12G02G05G10G25
 -12028376.99645  -9354751.82042  23865215.7584                   23865212.2194
 -15665031.89146 -12200516.49643  22654446.0704                   22654443.3874
 -15036596.95746 -11709042.39144  21574709.4224                   21574705.9534
 -12584681.08246  -9799839.47744  21707223.3054                   21707217.6414
 -22031931.78146 -17159392.95345  20469056.3444                   20469053.1844
  -2801008.48845  -2174794.29742  23611733.7584                   23611730.2114
 -17819786.46546 -13877192.08644  21687159.7734                   21687159.7384
 11  8 13  2 44  0.0000000  0  7G26G29G12G02G05G10G25
 -12099848.00445  -9410443.53142  23851615.5004                   23851611.7624
 -15722259.16446 -12245109.12143  22643555.7974                   22643553.0314
 -14949964.07846 -11641536.27344  21591194.7424                   21591191.8524
 -12521527.00846  -9750628.52744  21719240.5784                   21719235.3874
 -21983540.48046 -17121685.45345  20478264.9304                   20478261.3874
  -2673297.49245  -2075279.23842  23636034.3204                   23636033.6374
 -17795350.91446 -13858151.40244  21691810.3364                   21691810.1604
 11  8 13  2 44 30.0000000  0  7G26G29G12G02G05G10G25
 -12171264.64545  -9466092.84442  23838025.8914                   23838021.6374
 -15779404.64146 -12289638.00843  22632680.5944                   22632678.4384
 -14862902.57846 -11573696.15644  21607762.8754                   21607759.2624
 -12458281.91446  -9701346.62544  21731275.6414                   21731270.4494
 -21934627.71546 -17083571.59045  20487573.2194                   20487569.1414
  -2545416.95345  -1975632.04742  23660371.1954                   23660366.9224
 -17770338.03146 -13838660.82444  21696570.8754                   21696569.4574
 11  8 13  2 45  0.0000000  0  7G26G29G12G02G05G10G25
 -12242622.94545  -9521696.63742  23824444.8984                   23824442.8134
 -15836466.41046 -12334101.70743  22621822.7114                   22621819.4184
 -14775413.76646 -11505523.06644  21624411.1334                   21624407.6334
 -12394945.63746  -9651993.69544  21743328.0164                   21743323.0944
 -21885194.56247 -17045052.25845  20496978.8834                   20496976.0744
  -2417368.83245  -1875854.27742  23684737.0704                   23684733.9654
 -17744747.62547 -13818720.23845  21701439.8914                   21701438.9454
 11  8 13  2 45 30.0000000  0  7G26G29G12G02G05G10G25
 -12313924.52345  -9577256.30542  23810877.2504                   23810874.5704
 -15893447.71546 -12378502.67243  22610979.3984                   22610976.8554
 -14687506.03546 -11437023.55144  21641139.0784                   21641135.9024
 -12331523.17246  -9602573.58644  21755397.1254                   21755392.2584
 -21835247.39147 -17006132.35945  20506484.1094                   20506481.0514
  -2289161.04746  -1775952.09442  23709134.2504                   23709131.0234
 -17718585.41447 -13798334.07845  21706417.7424                   21706417.4614
 11  8 13  2 46  0.0000000  0  8G26G29G12G02G15G05G10G25
 -12385166.17246  -9632769.27343  23797320.4774                   23797317.6914
 -15950346.52347 -12422839.41444  22600151.7664                   22600148.8834
 -14599181.95747 -11368199.65245  21657946.4454                   21657943.9104
 -12268014.91847  -9553086.67245  21767482.1644                   21767477.0274
  -7977770.16816                  24725020.625
 -21784788.36347 -16966813.68046  20516085.8914                   20516082.9264
  -2160796.39846  -1675927.77042  23733561.4614                   23733558.5234
 -17691852.12547 -13777502.97745  21711505.0394                   21711504.6994
 11  8 13  2 46 30.0000000  0  8G26G29G12G02G15G05G10G25
 -12456346.09446  -9688234.05143  23783773.8834                   23783773.1804
 -16007162.81246 -12467111.77744  22589340.2274                   22589337.5084
 -14510445.92247 -11299054.66045  21674832.5634                   21674829.3164
 -12204423.20747  -9503534.65645  21779582.4844                   21779578.6914
  -8047670.543 5                  24711718.227
 -21733821.34847 -16927099.08246  20525784.4384                   20525781.5704
  -2032279.50046  -1575784.67243  23758016.8524                   23758014.5634
 -17664550.01647 -13756228.57045  21716700.5004                   21716699.8834
 11  8 13  2 47  0.0000000  0  8G26G29G12G02G15G05G10G25
 -12527465.85245  -9743652.02743  23770240.9454                   23770239.6094
 -16063899.93746 -12511322.45344  22578543.2894                   22578540.6054
 -14421305.37147 -11229594.46945  21691796.1024                   21691791.8554
 -12140752.66847  -9453921.22745  21791699.2114                   21791694.8204
  -8117706.492 5                  24698391.883
 -21682351.88747 -16886992.98046  20535578.8914                   20535575.9844
  -1903618.30546  -1475529.15243  23782500.7664                   23782498.3054
 -17636684.67247 -13734515.29745  21722003.2424                   21722002.6884
 11  8 13  2 47 30.0000000  0  8G26G29G12G02G15G05G10G25
 -12598518.87545  -9799017.90643  23756721.3134                   23756719.0004
 -16120552.44546 -12555467.13344  22567763.0004                   22567760.0944
 -14331759.93046 -11159818.77344  21708835.6644                   21708832.0824
 -12077000.50446  -9404244.15244  21803831.4614                   21803825.8284
  -8187872.469 5                  24685039.898
 -21630378.71546 -16846494.35945  20545469.3834                   20545466.2384
  -1774811.88345  -1375160.46942  23807011.5554                   23807009.8484
 -17608253.42246 -13712361.01245  21727413.4144                   21727412.9024
 11  8 13  2 48  0.0000000  0  8G26G29G12G02G15G05G10G25
 -12669497.24245  -9854325.59042  23743213.6484                   23743211.6994
 -16177114.34446 -12599541.23443  22556999.3594                   22556996.6414
 -14241807.55946 -11089726.00844  21725952.6644                   21725949.2464
 -12013162.65246  -9354500.31644  21815979.0864                   21815973.6374
                                  24671663.984
 -21577899.60546 -16805601.50045  20555456.2974                   20555452.6994
  -1645858.89845  -1274677.57842  23831549.7504                   23831548.0164
 -17579252.58246 -13689762.89844  21732932.4534                   21732931.3634
 11  8 13  2 48 30.0000000  0  7G26G29G12G02G05G10G25
 -12740391.36345  -9909567.71942  23729723.3364                   23729719.4844
 -16233577.74245 -12643538.55943  22546255.0704                   22546251.9454
 -14151444.80946 -11019313.40244  21743147.8284                   21743144.5704
 -11949233.16046  -9304685.05943  21828144.6024                   21828138.9224
 -21524910.07446 -16764310.88344  20565538.7424                   20565535.8094
                                  23856119.5864                   23856114.3714
 -17549676.74246 -13666716.71944  21738560.9224                   21738559.1334
 11  8 13  2 49  0.0000000  0  7G26G29G12G02G05G10G25
 -12811200.11345  -9964743.37542  23716249.1414                   23716244.6684
 -16289942.63345 -12687459.19543  22535529.0004                   22535525.7704
 -14060676.46546 -10948584.80944  21760421.4694                   21760417.1294
 -11885214.31646  -9254800.22343  21840325.7274                   21840321.4804
 -21471413.79746 -16722625.45344  20575718.8674                   20575715.4454
                                  23880713.469
 -17519528.69946 -13643224.71744  21744297.2584                   21744295.9224
 11  8 13  2 49 30.0000000  0  8G26G29G12G02G15G05G10G25
 -14457345.96946 -11247454.41443  23402997.7734                   23402994.7704
 -17921632.99647 -13958906.25845  22225027.9844                   22225025.6374
 -15544926.26647 -12105143.21145  21477977.1174                   21477973.8404
 -13396528.17247 -10432447.49245  21552732.8054                   21552727.9924
  -9500557.16015                  24331612.344
 -22992834.69947 -17908148.34046  20286202.1254                   20286199.0944
  -2833537.00856  -2200141.17653  23605542.3524                   23605542.0354
 -19064232.05147 -14846889.76645  21450350.0944                   21450349.5824
 11  8 13  2 50  0.0000000  0  8G26G29G12G02G15G05G10G25
 -14527979.51246 -11302493.50043  23389555.8914                   23389553.8874
 -17977801.91447 -14002674.16444  22214339.1254                   22214336.9734
 -15453361.42647 -12033793.96945  21495401.2974                   21495398.1954
 -13332337.60947 -10382428.85245  21564947.9304                   21564943.5474
  -9571302.34045  -7744052.94552  24318149.4614                   24318147.3054
 -22938336.66847 -17865682.33646  20296573.1724                   20296570.0204
  -2704013.19546  -2099213.57043  23630189.4064                   23630188.2344
 -19032948.24647 -14822512.75445  21456303.1884                   21456302.6644
 11  8 13  2 50 30.0000000  0  8G26G29G12G02G15G05G10G25
 -14598525.31346 -11357464.16843  23376131.5394                   23376129.6994
 -18033875.09446 -14046367.46144  22203669.0004                   22203666.6954
 -15361407.35547 -11962141.44145  21512900.3204                   21512896.9494
 -13268066.51647 -10332347.46945  21577178.6094                   21577173.6334
  -9642162.48446  -7799268.50043  24304666.4064                   24304663.3324
 -22883345.37547 -17822831.94546  20307036.6414                   20307034.1024
  -2574360.37146  -1998185.42243  23654862.6644                   23654860.7934
 -19001102.62147 -14797697.96145  21462363.0234                   21462362.4924
 11  8 13  2 51  0.0000000  0  8G26G29G12G02G15G05G10G25
 -14668980.23446 -11412363.99243  23362724.6884                   23362722.1254
 -18089851.09046 -14089985.03944  22193017.0944                   22193014.4224
 -15269066.89547 -11890187.81645  21530471.3444                   21530468.3284
 -13203715.26647 -10282203.62945  21589424.2424                   21589419.3714
  -9713135.24646  -7854571.87143  24291160.7194                   24291157.8364
 -22827863.54747 -17779599.34046  20317595.0084                   20317591.7894
  -2444581.94146  -1897059.39543  23679559.1254                   23679556.5434
 -18968696.60247 -14772446.49245  21468529.6174                   21468529.2894
 11  8 13  2 51 30.0000000  0  8G26G29G12G02G15G05G10G25
 -14739335.85546 -11467186.46543  23349336.0554                   23349333.3794
 -18145722.84446 -14133521.39545  22182384.1414                   22182382.4884
 -15176338.26647 -11817931.72745  21548117.4924                   21548114.4414
 -13139279.25847 -10231993.73045  21601685.6564                   21601681.0434
  -9784213.30346  -7909957.26643  24277634.9224                   24277632.5354
 -22771887.60247 -17735981.68746  20328247.0704                   20328243.8484
  -2314675.52746  -1795833.62543  23704279.9844                   23704276.9144
 -18935725.89147 -14746754.99245  21474803.7974                   21474803.3754
 11  8 13  2 52  0.0000000  0  8G26G29G12G02G15G05G10G25
 -14809589.80546 -11521929.69543  23335967.0704                   23335964.0594
 -18201489.66046 -14176975.97744  22171772.9304                   22171770.9384
 -15083224.92647 -11745375.85545  21565835.5394                   21565833.2974
 -13074759.47747 -10181718.56245  21613963.3914                   21613958.5314
  -9855394.92646  -7965423.35243  24264089.7504                   24264086.9614
 -22715420.26647 -17691981.16046  20338992.0944                   20338989.2704
  -2184644.80946  -1694510.95343  23729022.6724                   23729020.8284
 -18902192.32047 -14720624.90645  21481184.8364                   21481184.1214
 11  8 13  2 52 30.0000000  0  8G26G29G12G02G15G05G10G25
 -14879731.82446 -11576585.76643  23322619.5784                   23322616.7384
 -18257142.91446 -14220342.06645  22161182.3914                   22161179.4614
 -14989723.16047 -11672517.32045  21583629.3204                   21583625.5124
 -13010149.72347 -10131373.28545  21626258.6174                   21626253.5864
  -9926671.09046  -8020963.10543  24250526.0234                   24250523.9494
 -22658456.85947 -17647594.05946  20349831.9924                   20349828.9104
  -2054485.82446  -1593088.38342  23753791.7894                   23753789.2274
 -18868090.38347 -14694051.93745  21487674.4224                   21487673.7344
 11  8 13  2 53  0.0000000  0  8G26G29G12G02G15G05G10G25
 -14949757.87546 -11631151.43043  23309294.1884                   23309291.0824
 -18312680.02047 -14263617.68444  22150614.3594                   22150611.4024
 -14895835.24647 -11599357.89145  21601495.3444                   21601491.9614
 -12945449.43047 -10080957.45745  21638570.2734                   21638566.0514
  -9998038.78146  -8076574.18843  24236945.1954                   24236943.1564
 -22600998.91047 -17602821.60546  20360766.1254                   20360762.6214
  -1924200.74646  -1491567.53142  23778583.3204                   23778581.3754
 -18833420.28547 -14667036.25445  21494271.6644                   21494271.1374
 11  8 13  2 53 30.0000000  0  8G26G29G12G02G15G05G10G25
 -15019668.65246 -11685627.31243  23295990.0784                   23295988.0314
 -18368102.94146 -14306804.30144  22140067.6254                   22140064.5744
 -14801567.80547 -11525902.70345  21619433.9454                   21619430.1994
 -12880662.86747 -10030474.40645  21650898.4924                   21650894.6604
 -10069499.50046  -8132257.74643  24223345.8674                   24223344.4024
 -22543052.44147 -17557668.49645  20371792.9924                   20371789.1214
  -1793796.41846  -1389953.85942  23803398.3594                   23803396.4804
 -18798187.16847 -14639581.84845  21500975.9924                   21500975.9144
 11  8 13  2 54  0.0000000  0  8G26G29G12G02G15G05G10G25
 -15089462.62145 -11740012.16843  23282708.7424                   23282706.7384
 -18423412.23446 -14349902.38744  22129542.4614                   22129540.1644
 -14706925.78147 -11452155.65645  21637443.2194                   21637440.0984
 -12815792.07047  -9979925.73045  21663243.4774                   21663238.3244
 -10141052.61745  -8188013.29743  24209729.7974                   24209727.3834
 -22484621.67647 -17512138.01245  20382911.3524                   20382908.7584
  -1663277.16445  -1288250.55542  23828235.9924                   23828233.2584
 -18762393.94547 -14611690.99645  21507787.4064                   21507787.5004
 11  8 13  2 54 30.0000000  0  8G26G29G12G02G15G05G10G25
 -15159131.90245 -11794299.89143  23269449.8834                   23269449.4734
 -18478601.31646 -14392906.82044  22119040.0164                   22119037.0044
 -14611907.35246 -11378115.30145  21655524.7344                   21655521.5004
 -12750832.77746  -9929308.08644  21675605.0394                   21675600.1524
 -10212691.18445  -8243835.46543  24196096.1644                   24196095.1054
 -22425703.15247 -17466227.44945  20394123.4224                   20394120.6564
  -1532641.50445  -1186456.51642  23853094.0394                   23853092.6214
 -18726037.15247 -14583360.99645  21514706.5554                   21514705.3244
 11  8 13  2 55  0.0000000  0  8G26G29G12G02G15G05G10G25
 -15228673.96946 -11848488.44143  23256216.8364                   23256215.9414
 -18533669.71146 -14435817.20744  22108561.2814                   22108558.2774
 -14516516.95747 -11303785.09845  21673677.0554                   21673674.3284
 -12685786.46947  -9878622.64545  21687982.8444                   21687977.7274
 -10284413.87545  -8299723.17242  24182447.9924                   24182446.6054
 -22366300.80947 -17419939.89845  20405426.8284                   20405423.6724
  -1401893.37145  -1084574.82042  23877975.8914                   23877973.3794
 -18689119.23847 -14554593.75445  21521731.2114                   21521731.0594
 11  8 13  2 55 30.0000000  0  8G26G29G12G02G15G05G10G25
 -15298085.75846 -11902575.47343  23243008.8134                   23243007.3984
 -18588615.40646 -14478631.96544  22098105.2344                   22098102.5164
 -14420757.69546 -11229167.47345  21691899.5944                   21691896.3204
 -12620653.64846  -9827869.78944  21700377.5314                   21700371.8014
 -10356218.28145  -8355674.47742  24168784.7424                   24168782.4774
 -22306416.82847 -17373277.02745  20416823.0944                   20416819.7114
  -1271035.94545   -982608.05542  23902877.2114                   23902875.0984
 -18651641.46147 -14525390.26245  21528863.1254                   21528862.6644
 11  8 13  2 56  0.0000000  0  8G26G29G12G02G15G05G10G25
 -15367363.67646 -11956558.18743  23229825.7894                   23229823.6054
 -18643436.54746 -14521349.67644  22087672.4384                   22087670.0354
 -14324632.13746 -11154264.41044  21710191.5704                   21710188.0704
 -12555434.57846  -9777049.71544  21712787.8984                   21712783.2664
 -10428101.78945  -8411687.55142  24155107.1024                   24155102.5354
 -22246053.03947 -17326240.28945  20428309.9144                   20428306.7194
  -1140071.36345   -880557.73842  23927798.2974                   23927796.5394
 -18613604.88747 -14495751.33645  21536101.0864                   21536100.6254
 11  8 13  2 56 30.0000000  0  8G26G29G12G02G15G05G10G25
 -15436505.53946 -12010434.92643  23216669.0784                   23216666.9534
 -18698132.37947 -14563969.80545  22077264.6094                   22077261.6294
 -14228144.57447 -11079079.34845  21728552.7194                   21728549.3324
 -12490130.06347  -9726163.12545  21725214.4924                   21725209.7854
 -10500063.22356  -8467761.23452  24141411.5234                   24141407.0084
 -22185212.70347 -17278832.27746  20439887.2344                   20439884.4924
  -1009003.66056   -778427.11752  23952740.0474                   23952737.9414
 -18575012.02047 -14465679.01245  21543444.8984                   21543444.4144
 11  8 13  2 57  0.0000000  0  8G26G29G12G02G15G05G10G25
 -15505504.38346 -12064200.18443  23203538.1644                   23203536.5944
 -18752697.41847 -14606487.93445  22066881.2584                   22066878.5904
 -14131294.44147 -11003611.65645  21746981.8914                   21746979.3204
 -12424736.93447  -9675207.38745  21737658.4844                   21737653.3954
 -10572096.67246  -8523891.10542  24127703.4924                   24127701.0204
 -22123894.37547 -17231051.73046  20451555.6954                   20451552.4694
   -877831.87946   -676215.30143  23977701.2894                   23977698.7504
 -18535860.34847 -14435171.16445  21550895.1884                   21550895.3834
 11  8 13  2 57 30.0000000  0  8G26G29G12G02G15G05G10G25
 -15574359.31346 -12117853.32443  23190435.6484                   23190433.8714
 -18807132.49647 -14648904.81644  22056522.7034                   22056519.6994
 -14034087.22347 -10927865.75445  21765480.3914                   21765476.8364
 -12359258.14847  -9624184.94545  21750118.9614                   21750113.9024
 -10644201.94146  -8580076.85242  24113983.1174                   24113979.8094
 -22062102.74647 -17182902.38346  20463314.3054                   20463311.3164
   -746561.43445   -573926.64842  24002681.0554                   24002679.0784
 -18496153.75047 -14404230.92645  21558451.1334                   21558450.7304
 11  8 13  2 58  0.0000000  0  8G26G29G12G02G15G05G10G25
 -15643070.84845 -12171394.66042  23177361.3204                   23177357.6484
 -18861439.65245 -14691221.89843  22046187.8914                   22046184.9304
 -13936530.02745 -10851847.03143  21784045.1484                   21784041.3094
 -12293697.85945  -9573098.88343  21762595.0234                   21762589.6604
 -10716380.43444  -8636319.76642  24100248.8054                   24100244.9384
 -21999844.43446 -17134389.28144  20475161.7114                   20475157.9144
   -615199.31344   -471566.49642  24027680.1174                   24027676.7194
 -18455897.60246 -14372862.37544  21566112.0784                   21566111.0904
 11  8 13  2 58 30.0000000  0  8G26G29G12G02G15G05G10G25
 -15711628.53145 -12224816.13342  23164314.5704                   23164310.9024
 -18915610.57845 -14733432.98443  22035880.3204                   22035876.6374
 -13838618.75445 -10775552.52043  21802676.7814                   21802673.1844
 -12228049.17245  -9521944.06243  21775087.4924                   21775081.8094
 -10788622.77715                  24086502.000
 -21937114.25446 -17085508.63744  20487098.8444                   20487095.3794
   -483741.38314                  24052694.242
 -18415086.32046 -14341061.36744  21573878.3834                   21573877.0354
 11  8 13  2 59  0.0000000  0  8G26G29G12G02G15G05G10G25
 -15780026.66446 -12278113.46143  23151297.9614                   23151296.5664
 -18969640.28946 -14775534.11344  22025598.2584                   22025595.1604
 -13740353.51246 -10698982.30944  21821376.0944                   21821372.8204
 -12162310.10247  -9470718.92644  21787597.3444                   21787592.1764
 -10860923.78546  -8748950.80953  24072741.4064                   24072740.6454
 -21873911.67647 -17036259.97345  20499126.1564                   20499123.0984
   -352187.32455   -266622.16453  24077728.4694                   24077726.0044
 -18373718.66447 -14308826.92645  21581749.7114                   21581749.2274
 11  8 13  2 59 30.0000000  0  8G26G29G12G02G15G05G10G25
 -15848260.25446 -12331282.46543  23138314.6334                   23138311.2734
 -19023525.27347 -14817522.37545  22015344.1484                   22015341.0824
 -13641736.31647 -10622137.75445  21840142.1804                   21840138.9654
 -12096479.37147  -9419422.26645  21800123.7424                   21800119.1174
 -10933279.66846  -8805331.94143  24058973.7034                   24058970.8524
 -21810237.73847 -16986643.92646  20511242.4454                   20511239.4064
   -220538.56346   -164038.71543  24102780.0004                   24102777.8134
 -18331794.66447 -14276158.87945  21589727.6484                   21589727.0594
 11  8 13  3  0  0.0000000  0  8G26G29G12G02G15G05G10G25
 -15916345.63346 -12384336.00443  23125356.9924                   23125355.6024
 -19077283.77347 -14859412.05945  22005114.2344                   22005112.0314
 -13542790.33647 -10545036.98045  21858970.2814                   21858967.1844
 -12030576.57447  -9368069.41445  21812664.7974                   21812659.8164
 -11005707.69546  -8861769.28943  24045190.1804                   24045188.5784
 -21746114.09447 -16936677.43446  20523445.2114                   20523441.7384
    -88817.41046    -61398.84443  24127845.0784                   24127842.9104
 -18289335.29347 -14243073.63345  21597807.4614                   21597807.0474
 11  8 13  3  0 30.0000000  0  8G26G29G12G02G15G05G10G25
 -15984267.97746 -12437262.60543  23112433.1644                   23112430.8674
 -19130902.45747 -14901192.80545  21994910.3444                   21994907.7384
 -13443507.01247 -10467673.34445  21877863.8594                   21877860.9264
 -11964590.53547  -9316651.73045  21825221.6174                   21825216.8754
 -11078193.87546  -8918251.94943  24031396.8524                   24031394.9024
 -21681531.86747 -16886353.65246  20535734.9774                   20535731.5744
     42984.65245     41304.04742  24152926.9534                   24152925.1174
 -18246330.78547 -14209563.62545  21605990.8054                   21605990.0474
 11  8 13  3  1  0.0000000  0  8G26G29G12G02G15G05G10G25
 -16052015.50846 -12490052.93443  23099540.8134                   23099538.3134
 -19184371.03547 -14942856.55945  21984735.7424                   21984732.8634
 -13343880.92647 -10390042.62545  21896821.9924                   21896819.0594
 -11898513.51647  -9265163.14545  21837795.6254                   21837790.7074
 -11150727.48046  -8974771.55543  24017593.8524                   24017592.0204
 -21616484.97747 -16835667.74246  20548112.2584                   20548109.2584
    174873.05145    144074.22742  24178024.5554                   24178022.7584
 -18202774.31647 -14175623.50445  21614279.4694                   21614278.5474
 11  8 13  3  1 30.0000000  0  8G26G29G12G02G15G05G10G25
 -16119595.41946 -12542712.61243  23086680.5554                   23086678.3674
 -19237698.40247 -14984410.29345  21974588.5084                   21974585.0744
 -13243925.92247 -10312155.59045  21915842.9534                   21915840.1134
 -11832356.21947  -9213612.02745  21850384.9694                   21850379.6764
 -11223316.44946  -9031334.29343  24003781.1414                   24003778.2934
 -21550986.59047 -16784630.05146  20560576.6174                   20560573.1564
    306834.60245    246901.44942  24203136.7274                   24203132.8134
 -18158678.08247 -14141262.79345  21622670.8284                   21622669.7774
 11  8 13  3  2  0.0000000  0  8G26G29G12G02G15G05G10G25
 -16186996.84746 -12595233.11043  23073854.7114                   23073852.1564
 -19290875.37147 -15025846.83645  21964468.8674                   21964465.9144
 -13143637.78147 -10234008.98445  21934927.1724                   21934923.9614
 -11766111.62147  -9161992.87145  21862990.8594                   21862985.6954
 -11295951.27745  -9087932.81643  23989958.1024                   23989956.5434
 -21485031.65247 -16733236.58246  20573127.5474                   20573124.4884
    438873.89845    349789.18042  24228261.7734                   24228259.5314
 -18114036.30147 -14106476.98045  21631165.2664                   21631165.0744
 11  8 13  3  2 30.0000000  0  8G26G29G12G02G15G05G10G25
 -16254215.81646 -12647611.46143  23061062.8134                   23061060.2734
 -19343899.15247 -15067164.00445  21954378.9614                   21954375.9884
 -13043018.67247 -10155604.45745  21954074.5554                   21954071.6454
 -11699778.79747  -9110304.94544  21875613.4614                   21875608.5084
 -11368628.08245  -9144563.97743  23976128.4924                   23976126.1804
 -21418621.43047 -16681488.34046  20585764.8364                   20585761.7344
    570989.21945    452736.22342  24253402.1724                   24253399.9344
 -18068849.55947 -14071266.51245  21639764.7424                   21639764.0204
 11  8 13  3  3  0.0000000  0  8G26G29G12G02G15G05G10G25
 -16321247.34046 -12699843.72343  23048307.2664                   23048305.3954
 -19396766.52047 -15108359.31645  21944317.9064                   21944315.4024
 -12942070.27747 -10076943.36345  21973284.3134                   21973280.8164
 -11633356.94147  -9058547.68744  21888252.9844                   21888248.4804
 -11441343.35546  -9201225.14843  23962291.2194                   23962288.3594
 -21351757.04747 -16629386.22746  20598488.3204                   20598485.4494
    703179.05145    555741.29742  24278556.8284                   24278555.1994
 -18023118.23047 -14035631.69545  21648466.5474                   21648466.6524
 11  8 13  3  3 30.0000000  0  8G26G29G12G02G15G05G10G25
 -16388093.00846 -12751931.13743  23035587.2584                   23035584.7814
 -19449480.17246 -15149434.83645  21934286.7424                   21934284.5984
 -12840800.98447  -9998032.19944  21992554.8204                   21992551.4534
 -11566850.77047  -9006724.70345  21900908.8134                   21900903.6684
 -11514099.09445  -9257917.80543  23948446.0704                   23948443.7814
 -21284445.52747 -16576935.68446  20611297.7814                   20611294.5744
    835436.25445    658798.89142  24303724.6804                   24303722.6134
 -17976848.73847 -13999577.52045  21657271.4694                   21657271.1414
 11  8 13  3  4  0.0000000  0  8G26G29G12G02G15G05G10G25
 -16454744.93046 -12803867.59043  23022904.1094                   23022900.8204
 -19502034.18047 -15190385.97345  21924286.5864                   21924283.4804
 -12739209.52047  -9918870.01245  22011886.8674                   22011884.0824
 -11500256.19947  -8954832.82444  21913581.3444                   21913576.6174
 -11586888.62146  -9314636.86343  23934594.2974                   23934591.6684
 -21216684.77347 -16524135.07846  20624192.1024                   20624188.6484
    967762.19545    761910.01243  24328906.2114                   24328903.5984
 -17930038.34447 -13963101.86745  21666179.6024                   21666178.8134
 11  8 13  3  4 30.0000000  0  8G26G29G12G02G15G05G10G25
 -16521204.94946 -12855654.53543  23010257.1174                   23010254.4144
 -19554431.44546 -15231214.94944  21914314.6024                   21914312.4144
 -12637304.10547  -9839463.16445  22031280.1804                   22031275.8364
 -11433578.50447  -8902876.16044  21926269.4614                   21926264.5274
 -11659714.25845  -9371384.01243  23920736.7664                   23920733.7934
 -21148482.57447 -16470990.49645  20637170.7974                   20637167.2344
   1100149.19545    865068.81242  24354098.2814                   24354096.4844
 -17882693.91047 -13926210.07045  21675188.0234                   21675188.0474
 11  8 13  3  5  0.0000000  0  8G26G29G12G02G15G05G10G25
 -16587465.36746 -12907285.98043  22997647.8594                   22997645.3204
 -19606666.21146 -15271917.28544  21904375.6024                   21904372.5044
 -12535083.82446  -9759810.94144  22050731.1334                   22050728.0984
 -11366813.84446  -8850851.71144  21938974.0394                   21938969.5864
 -11732569.52045  -9428154.25842  23906872.5314                   23906869.4304
 -21079836.99246 -16417500.38345  20650233.6564                   20650230.4104
                                  24379303.1564                   24379301.8594
 -17834812.97346 -13888900.19144  21684300.3834                   21684299.4414
 11  8 13  3  5 30.0000000  0  8G26G29G12G02G15G05G10G25
 -16653520.44145 -12958757.43043  22985077.9694                   22985075.5824
 -19658733.97346 -15312489.50444  21894467.5944                   21894464.6094
 -12432548.70746  -9679913.40644  22070242.9064                   22070239.0634
 -11299959.79746  -8798757.62143  21951696.8754                   21951691.1484
 -11805449.16845  -9484943.49242  23893005.1024                   23893001.0274
 -21010748.06646 -16363664.81245  20663380.3134                   20663377.3204
                                  24404520.7584                   24404517.7704
 -17786394.75046 -13851171.66844  21693513.5704                   21693513.3754
 11  8 13  3  6  0.0000000  0  8G26G29G12G02G15G05G10G25
 -16719370.98445 -13010069.47742  22972546.9614                   22972544.7464
 -19710637.02746 -15352933.35243  21884590.9304                   21884586.9534
 -12329707.42246  -9599777.29743  22089812.7424                   22089809.8634
 -11233021.05146  -8746597.53143  21964435.0314                   21964429.0514
 -11878355.00845  -9541753.17242  23879129.9064                   23879127.2464
 -20941222.53546 -16309489.03144  20676610.1414                   20676607.4884
   1497677.00454   1174830.78952  24429745.7734                   24429744.0164
 -17737445.41446 -13813029.27744  21702828.4304                   21702828.0944
 11  8 13  3  6 30.0000000  0  8G26G29G12G02G15G05G10G25
 -16785013.04345 -13061219.11742  22960055.8364                   22960052.7814
 -19762372.96145 -15393247.00443  21874744.7114                   21874742.2034
 -12226561.77046  -9519404.05543  22109440.2584                   22109437.1294
 -11165997.07046  -8694371.04743  21977188.2814                   21977183.2504
 -11951283.91045  -9598580.80542  23865254.7034                   23865248.8984
 -20871261.96546 -16254974.29744  20689923.6564                   20689920.0944
                                  24454984.5784                   24454980.1844
 -17687966.05146 -13774473.91044  21712244.4534                   21712243.1524
 11  8 13  3  7  0.0000000  0  7G26G29G12G02G15G05G25
 -16850441.32445 -13112202.15642  22947605.7274                   22947601.9144
 -19813938.50445 -15433427.90643  21864933.1884                   21864928.8324
 -12123113.72345  -9438795.16443  22129125.7664                   22129122.2974
 -11098886.54745  -8642077.10543  21989960.4774                   21989953.5904
                                  23851371.2974                   23851366.1994
 -20800867.51646 -16200121.45344  20703319.5634                   20703315.5784
 -17637957.08646 -13735505.85244  21721761.4844                   21721759.4304
 11  8 13  3  7 30.0000000  0  8G26G29G12G02G15G05G10G25
 -16915659.14546 -13163021.25843  22935194.5084                   22935192.9184
 -19865337.79747 -15473479.38345  21855151.8364                   21855149.1724
 -12019372.75447  -9357958.16844  22148867.4064                   22148864.1884
 -11031696.03947  -8589721.01244  22002745.7424                   22002739.9414
 -12097202.85546  -9712283.85543  23837485.5004                   23837481.1254
 -20730048.14147 -16144937.64145  20716795.8754                   20716792.8164
  -9364919.49215                  24505482.906
 -17587426.69947 -13696131.66445  21731376.4844                   21731375.6174
 11  8 13  3  8  0.0000000  0  9G26G29G12G02G15G05G10G25G21
 -16980663.03146 -13213673.55543  22922824.8524                   22922822.2114
 -19916569.11746 -15513399.82844  21845402.7664                   21845399.7074
 -11915342.33246  -9276895.48844  22168663.2734                   22168660.3404
 -10964425.67246  -8537302.52344  22015547.0554                   22015541.5864
 -12170193.79745  -9769159.86742  23823594.2194                   23823592.2384
 -20658806.29747 -16089424.50045  20730352.9844                   20730349.4844
                                  24530744.523
 -17536376.74247 -13656352.44945  21741090.6564                   21741090.0594
  -9517266.52315                  25140861.703
 11  8 13  3  8 30.0000000  0  9G26G29G12G02G15G05G10G25G21
 -17045449.37546 -13264156.31243  22910496.2274                   22910493.3594
 -19967630.16046 -15553187.62144  21835686.1954                   21835683.4534
 -11811025.35946  -9195609.50044  22188514.9144                   22188511.5554
 -10897075.53946  -8484821.91444  22028362.5084                   22028357.5944
 -12243202.31345  -9826049.55543  23809702.4694                   23809699.6334
 -20587144.45347 -16033584.09045  20743989.8054                   20743986.5234
  -9099370.17215                  24556016.742
 -17484808.88347 -13616169.69145  21750903.7424                   21750903.3984
  -9550639.10915                  25134510.578
 11  8 13  3  9  0.0000000  0  9G26G29G12G02G15G05G10G25G21
 -17110011.90246 -13314464.70343  22898210.8204                   22898207.5864
 -20018516.10947 -15592838.96545  21826002.7194                   21826000.1454
 -11706421.94547  -9114100.34445  22208419.8914                   22208416.6214
 -10829642.84047  -8432276.94544  22041194.9614                   22041189.7624
 -12316222.72745  -9882948.51643  23795807.3984                   23795804.1954
 -20515061.70347 -15977415.72346  20757706.5084                   20757703.6294
  -8966537.695 5                  24581292.133
 -17432722.15647 -13575582.64145  21760815.5784                   21760814.7544
  -9584009.45315                  25128160.047
 11  8 13  3  9 30.0000000  0  8G26G29G12G02G15G05G10G25
 -17174342.72745 -13364592.44142  22885968.2274                   22885965.2384
 -20069220.56646 -15632348.74243  21816352.9844                   21816351.0474
 -11601531.14545  -9032367.11743  22228380.0634                   22228376.5554
 -10762123.16446  -8379664.10243  22054043.7034                   22054038.2464
                                  23781912.6954                   23781908.1804
 -20442555.94146 -15920917.58644  20771503.5084                   20771499.8054
                                  24606579.055
 -17380113.99646 -13534589.14144  21770826.8444                   21770825.8794
 11  8 13  3 10  0.0000000  0  8G26G29G12G02G15G05G25G21
 -17238438.39846 -13414537.12943  22873770.8444                   22873768.2194
 -20119741.79347 -15671716.03545  21806739.8444                   21806737.4344
 -11496356.18447  -8950412.69145  22248394.1564                   22248390.8364
 -10694516.73447  -8326983.87945  22066908.2974                   22066903.5634
 -12462275.36356  -9996755.60253  23768013.6024                   23768011.5904
 -20369630.02347 -15864092.30946  20785381.5394                   20785377.9264
 -17326986.36747 -13493191.10545  21780936.4534                   21780935.5864
  -9650742.23415                  25115462.531
 11  8 13  3 10 30.0000000  0  8G26G29G12G02G15G05G25G21
 -17302293.06746 -13464293.91243  22861620.5164                   22861617.0944
 -20170075.37947 -15710936.94545  21797161.5634                   21797159.0354
 -11390898.15646  -8868237.60244  22268462.0234                   22268458.9534
 -10626821.49246  -8274234.31644  22079790.1174                   22079785.0664
 -12535300.10946 -10053657.91043  23754117.1644                   23754115.1484
 -20296284.44147 -15806939.88345  20799338.5394                   20799335.0394
 -17273339.05547 -13451388.00445  21791144.9454                   21791144.5434
  -9684094.793 5                  25109115.117
 11  8 13  3 11  0.0000000  0  8G26G29G12G02G15G05G25G21
 -17365908.73846 -13513864.51643  22849514.7194                   22849511.9964
 -20220224.64547 -15750014.24245  21787619.1644                   21787615.5084
 -11285165.47346  -8785848.48844  22288582.6484                   22288578.8674
 -10559042.48046  -8221419.49244  22092688.7344                   22092683.4694
 -12608324.81645 -10110560.23043  23740221.4064                   23740218.8484
 -20222526.69547 -15749466.28145  20813373.8834                   20813370.4844
 -17219179.20347 -13409185.50845  21801451.5164                   21801450.6724
  -9717446.73415                  25102768.734
 11  8 13  3 11 30.0000000  0  8G26G29G12G02G15G05G25G21
 -17429276.45746 -13563241.82443  22837455.7424                   22837453.2894
 -20270182.15646 -15788942.06644  21778112.2814                   21778109.3054
 -11179156.08246  -8703243.70344  22308755.7194                   22308752.2424
 -10491174.25446  -8168535.10244  22105603.6954                   22105598.2664
 -12681341.14845 -10167455.94943  23726327.6884                   23726324.5004
 -20148353.93446 -15691669.26645  20827488.5554                   20827484.9614
 -17164503.34046 -13366580.88744  21811855.3834                   21811855.0984
                                  25096425.078
 11  8 13  3 12  0.0000000  0  8G26G29G12G02G15G05G25G21
 -17492383.09045 -13612415.68742  22825447.2664                   22825444.3094
 -20319935.94946 -15827711.14144  21768643.8204                   21768641.5824
 -11072863.19145  -8620418.02043  22328983.4304                   22328979.2814
 -10423207.57845  -8115573.98843  22118537.5004                   22118531.7664
 -12754336.95345 -10224335.64542  23712436.4454                   23712432.5394
 -20073758.73446 -15633543.05144  20841683.8984                   20841680.1604
 -17109303.74646 -13323568.14844  21822360.2034                   21822359.3014
                                  25090082.063
 11  8 13  3 12 30.0000000  0  8G26G29G12G02G15G05G25G21
 -17555225.68046 -13661383.99243  22813488.6094                   22813486.0004
 -20369484.55546 -15866320.50444  21759215.9064                   21759212.7664
 -10966290.37946  -8537374.37544  22349263.1334                   22349259.1884
 -10355142.91046  -8062536.68044  22131489.2424                   22131484.1174
 -12827309.82445 -10281197.67643  23698549.6094                   23698546.5744
 -19998744.07846 -15575090.16045  20855958.2424                   20855955.1604
 -17053582.86346 -13280149.36745  21832962.9774                   21832962.5164
                                  25083740.523
 11  8 13  3 13  0.0000000  0  7G26G29G12G02G15G05G25
 -17617806.25045 -13710147.92643  22801578.9614                   22801576.2974
 -20418832.00846 -15904772.92243  21749825.0084                   21749821.7974
 -10859446.78145  -8454119.52043  22369594.1644                   22369590.6174
 -10286986.18446  -8009427.45743  22144459.5004                   22144453.9384
 -12900262.75445 -10338043.93442  23684666.6254                   23684663.8714
 -19923318.43446 -15516316.80544  20870312.1094                   20870308.0514
 -16997348.46546 -13236330.26644  21843664.1414                   21843662.8874
 11  8 13  3 13 30.0000000  0  7G26G29G12G02G15G05G25
 -17680126.98845 -13758709.52342  22789722.0634                   22789717.3444
 -20467981.08646 -15943070.85543  21740471.8594                   21740468.4224
 -10752340.94945  -8370660.40243  22389975.6484                   22389972.1094
 -10218742.45745  -7956250.50843  22157445.9454                   22157440.0594
 -12973198.51255 -10394876.96952  23670789.1804                   23670783.5554
 -19847489.42246 -15457229.25844  20884741.8364                   20884737.4064
 -16940607.90246 -13192116.83644  21854461.5084                   21854460.9184
 11  8 13  3 14  0.0000000  0  7G26G29G12G02G15G05G25
 -17742183.34445 -13807065.16442  22777911.1024                   22777908.6094
 -20516929.28946 -15981212.28943  21731157.5554                   21731154.3054
 -10644975.50045  -8286999.00843  22410406.9694                   22410402.4924
 -10150410.89845  -7903005.10943  22170447.5084                   22170443.1524
                                  23656913.5704                   23656907.9454
 -19771258.84846 -15397828.81244  20899247.3754                   20899243.2974
 -16883362.49246 -13147510.02344  21865355.4534                   21865353.6174
 11  8 13  3 14 30.0000000  0  7G26G29G12G02G15G05G25
 -17803966.62145 -13855207.97342  22766155.4304                   22766151.3954
 -20565669.28546 -16019191.45744  21721882.7734                   21721879.1094
 -10537348.18445  -8203133.56343  22430887.2194                   22430883.2034
 -10081986.59045  -7849687.44943  22183468.6024                   22183464.4064
 -13119000.01255 -10508488.41852  23643044.3204                   23643037.8754
 -19694623.81646 -15338113.18444  20913830.6484                   20913826.4614
 -16825609.07846 -13102507.35944  21876344.9454                   21876343.9804
 11  8 13  3 15  0.0000000  0  8G26G29G12G02G15G05G25G21
 -17865478.57846 -13903139.48444  22754449.9534                   22754446.8794
 -20614203.86747 -16057010.73445  21712646.9924                   21712644.0594
 -10429467.38747  -8119070.73844  22451415.9384                   22451413.0744
 -10013474.77047  -7796301.74645  22196506.4144                   22196501.5594
 -13191860.10956 -10565262.62953  23629177.4454                   23629174.5474
 -19617592.24647 -15278088.71546  20928489.1174                   20928485.7774
 -16767354.94947 -13057114.66045  21887430.6254                   21887430.0824
  -9984009.74656  -7773249.30953  25052045.8054                   25052044.6484
 11  8 13  3 15 30.0000000  0  8G26G29G12G02G15G05G25G21
 -17926718.73846 -13950859.05944  22742795.2664                   22742793.1484
 -20662534.60547 -16094671.01245  21703449.9694                   21703446.6954
 -10321339.53547  -8034815.25845  22471992.3984                   22471988.5234
  -9944878.34447  -7742849.97745  22209560.2344                   22209555.2734
 -13264694.22346 -10622016.43043  23615317.7274                   23615315.0554
 -19540169.59447 -15217759.36746  20943221.6094                   20943218.9454
 -16708605.39147 -13011335.78945  21898609.9224                   21898609.1884
 -10017322.71546  -7799207.34043  25045706.7274                   25045703.6884
 11  8 13  3 16  0.0000000  0  8G26G29G12G02G15G05G25G21
 -17987689.37946 -13998368.57844  22731192.6954                   22731190.7774
 -20710664.42247 -16132174.73045  21694290.7894                   21694287.9774
 -10212973.80147  -7950374.41844  22492613.8284                   22492610.4494
  -9876203.12147  -7689336.82844  22222628.7034                   22222623.5354
 -13337505.51246 -10678752.44543  23601461.5944                   23601459.1134
 -19462364.39547 -15157131.93745  20958028.2114                   20958024.8984
 -16649368.19947 -12965176.92245  21909882.7424                   21909882.0864
 -10050647.08646  -7825174.21542  25039364.9454                   25039362.5124
 11  8 13  3 16 30.0000000  0  8G26G29G12G02G15G05G25G21
 -18048379.56246 -14045659.59443  22719644.2114                   22719641.4614
 -20758584.00447 -16169514.63345  21685172.3134                   21685169.3984
 -10104365.62546  -7865744.65244  22513281.2274                   22513277.6374
  -9807441.64146  -7635756.42644  22235713.3054                   22235708.6414
 -13410283.33646 -10735462.38743  23587613.2114                   23587609.8834
 -19384171.37947 -15096202.30945  20972907.2274                   20972904.3524
 -16589637.98047 -12918633.89845  21921248.8674                   21921248.7034
 -10083975.79745  -7851144.46942  25033021.3674                   25033019.4344
 11  8 13  3 17  0.0000000  0  8G26G29G12G02G15G05G25G21
 -18108778.12946 -14092723.28943  22708150.2114                   22708148.3834
 -20806283.91846 -16206683.33644  21676094.9844                   21676091.7974
  -9995510.89546  -7780922.74644  22533995.7734                   22533992.4224
  -9738586.13746  -7582102.75044  22248815.7814                   22248811.0354
 -13483017.64845 -10792138.41443  23573773.5864                   23573769.1994
 -19305585.94546 -15034966.85945  20987862.4844                   20987858.2194
 -16529409.32446 -12871702.43044  21932710.2344                   21932709.3244
 -10117302.44545  -7877113.11742  25026679.8984                   25026676.9064
 11  8 13  3 17 30.0000000  0  8G26G29G12G02G15G05G25G21
 -18168886.02045 -14139560.48843  22696712.3134                   22696708.8674
 -20853766.05146 -16243682.28943  21667059.2114                   21667056.4734
  -9886416.81645  -7695914.26243  22554755.7584                   22554751.8524
  -9669640.78145  -7528379.00043  22261936.6414                   22261930.9304
 -13555709.49245 -10848781.32442  23559939.1804                   23559936.3094
 -19226614.25446 -14973430.39544  21002889.8204                   21002885.7304
 -16468688.71146 -12824387.59844  21944265.2814                   21944263.8484
 -10150631.81654  -7903083.83252  25020340.1724                   25020334.4304
 11  8 13  3 18  0.0000000  0  8G26G29G12G02G15G05G25G21
 -18228697.51245 -14186166.79742  22685332.1564                   22685327.0084
 -20901026.53145 -16280508.59843  21658066.5314                   21658062.1914
  -9777084.80145  -7610720.48843  22575560.7504                   22575556.7234
  -9600604.03145  -7474584.09843  22275073.4844                   22275068.3404
 -13628354.93455 -10905388.10552  23546116.6414                   23546111.8914
 -19147257.03146 -14911593.60244  21017991.0864                   21017986.8324
 -16407476.39546 -12776689.66843  21955912.2424                   21955911.8444
                                  25013995.8134                   25013991.5944
 11  8 13  3 18 30.0000000  0  8G26G29G12G02G15G05G25G21
 -18288209.39545 -14232539.68042  22674006.6094                   22674002.2814
 -20948063.30145 -16317160.60244  21649115.3444                   21649112.0394
  -9667518.27345  -7525343.97743  22596410.8594                   22596406.7304
  -9531475.81645  -7420717.94543  22288229.1564                   22288221.6954
 -13700950.52055 -10961956.12152  23532302.3284                   23532296.7624
 -19067517.25446 -14849458.71544  21033164.6564                   21033160.9534
 -16345774.78146 -12728610.50044  21967653.6414                   21967652.8284
                                  25007654.1724                   25007647.6684
 11  8 13  3 19  0.0000000  0  8G26G29G12G02G15G05G25G21
 -18347414.59045 -14278673.52042  22662740.2814                   22662736.2074
 -20994870.81646 -16353633.96943  21640208.6174                   21640204.4614
  -9557716.81645  -7439784.39143  22617305.2894                   22617301.1764
  -9462252.38745  -7366777.60943  22301401.1334                   22301395.0704
                                  23518498.2584                   23518493.0744
 -18987393.82446 -14787024.87944  21048412.3834                   21048407.9494
 -16283582.48046 -12680148.97344  21979489.3444                   21979487.5664
                                  25001309.8984                   25001304.2734
 11  8 13  3 19 30.0000000  0  8G26G29G12G02G15G05G25G21
 -18406318.02745 -14324572.34442  22651532.4694                   22651526.8484
 -21041455.04345 -16389933.31643  21631344.0704                   21631339.6604
  -9447692.05145  -7354050.83243  22638241.4924                   22638238.3014
  -9392941.84845  -7312769.39543  22314590.0314                   22314584.1954
 -13845979.14554 -11074965.35952  23504703.5704                   23504698.6484
 -18906897.64145 -14724300.57843  21063728.8054                   21063725.8754
 -16220910.06345 -12631313.29743  21991416.5554                   21991414.3554
                                  24994966.5234                   24994959.3134
 11  8 13  3 20  0.0000000  0  7G26G29G12G02G15G05G25
                                  22640381.3284                   22640376.6994
 -21087811.66045 -16426055.32443  21622522.2504                   21622518.0044
  -9337445.16845  -7268144.13743  22659222.5864                   22659217.0704
  -9323542.90245  -7258692.31343  22327796.1174                   22327789.8874
 -13918412.91454 -11131407.21952  23490920.1954                   23490915.0394
 -18826029.15246 -14661286.17244  21079119.3284                   21079114.8164
 -16157757.83246 -12582103.79343  22003433.1094                   22003431.9184
 11  8 13  3 20 30.0000000  0  7G26G29G12G02G15G05G25
 -18523199.94545 -14415649.13742  22629290.0394                   22629284.5314
 -21133939.48045 -16461999.07443  21613744.4384                   21613740.6334
  -9226980.15645  -7182067.50043  22680242.9064                   22680238.1374
  -9254055.45345  -7204546.24643  22341018.9534                   22341013.1294
 -13990789.14855 -11187804.20752  23477147.2424                   23477142.0274
 -18744791.76645 -14597984.31643  21094577.6564                   21094573.3594
 -16094128.71146 -12532522.65643  22015541.5234                   22015539.7894
 11  8 13  3 21  0.0000000  0  7G26G29G12G02G15G05G25
                                  22618258.5314                   22618253.4694
 -21179834.81245 -16497761.62943  21605011.2584                   21605006.6914
  -9116298.81345  -7095822.28943  22701304.3284                   22701299.8754
  -9184478.11745  -7150330.14842  22354259.8054                   22354253.6374
                                  23463386.7344                   23463380.9924
 -18663186.28945 -14534395.63744  21110107.0944                   21110103.0394
 -16030023.53145 -12482570.56243  22027740.2974                   22027738.4064
 11  8 13  3 21 30.0000000  0  8G26G29G12G02G15G05G25G21
 -18638828.16047 -14505749.19144  22607285.3134                   22607282.4844
 -21225500.47747 -16533345.44145  21596320.2734                   21596318.0434
  -9005408.89147  -7009414.75844  22722405.7274                   22722402.0554
  -9114815.46147  -7096047.75444  22367515.7974                   22367509.8674
 -14135358.35256 -11300455.78553  23449635.7194                   23449631.8754
 -18581220.16447 -14470526.11346  21125704.2504                   21125701.3594
 -15965449.52347 -12432253.35245  22040027.8444                   22040027.2734
                                  24969569.953
 11  8 13  3 22  0.0000000  0  8G26G29G12G02G15G05G25G21
 -18696164.53546 -14550426.80943  22596373.6644                   22596371.8364
 -21270930.68046 -16568745.46144  21587675.7664                   21587672.7034
  -8894310.20346  -6922844.23443  22743547.1094                   22743543.9734
  -9045064.06346  -7041695.89143  22380788.5704                   22380783.2664
 -14207546.75045 -11356706.36343  23435899.0394                   23435896.2894
 -18498892.54746 -14406374.60945  21141371.4384                   21141367.5164
 -15900405.40646 -12381569.51244  22052405.1954                   22052404.6334
                                  24963217.734
 11  8 13  3 22 30.0000000  0  8G26G29G12G02G15G05G25G21
 -20328608.42647 -15822461.09844  22285730.9924                   22285728.4534
 -22891554.59447 -17831569.34445  21279281.0634                   21279277.8094
 -10358432.41446  -8063718.75844  22464933.9774                   22464930.3954
 -10550651.69147  -8214881.16444  22094285.4924                   22094279.9884
 -15855098.34046 -12640512.83243  23122380.3594                   23122377.9534
 -19991633.28947 -15569549.28945  20857311.2974                   20857308.4184
 -17410321.40647 -13558127.49245  21765078.0394                   21765077.3094
 -11099412.09015                  24657066.367
 11  8 13  3 23  0.0000000  0  8G26G29G12G02G15G05G25G21
 -20385300.39546 -15866636.61343  22274943.0314                   22274940.7074
 -22936514.89546 -17866603.28545  21270725.5784                   21270722.3954
 -10246933.94146  -7976836.79744  22486151.2344                   22486147.9064
 -10480730.54746  -8160397.13344  22107590.8444                   22107586.0124
 -15927153.27345 -12696659.47743  23108668.8834                   23108665.7194
 -19908598.18046 -15504846.57045  20873112.6644                   20873109.1914
 -17344352.02347 -13506722.75044  21777631.5394                   21777631.0554
 -11132830.871 5                  24650706.320
 11  8 13  3 23 30.0000000  0  8G26G29G12G02G15G05G25G21
 -20441662.33646 -15910555.02044  22264217.6644                   22264214.5474
 -22981234.45347 -17901449.70745  21262215.5314                   21262212.3444
 -10135237.61746  -7889800.73844  22507406.4384                   22507402.9184
 -10410721.59447  -8105844.73444  22120913.4224                   22120907.4384
 -15999134.62546 -12752748.89143  23094970.7504                   23094967.5274
 -19825210.30947 -15439869.03945  20888980.9774                   20888977.9414
 -17277920.87547 -13454958.25045  21790273.2894                   21790272.4774
 -11166263.121 5                  24644344.156
 11  8 13  3 24  0.0000000  0  8G26G29G12G02G15G05G25G21
 -20497685.85946 -15954209.64543  22253556.6644                   22253553.6024
 -23025706.15646 -17936102.89144  21253752.6484                   21253749.9694
 -10023341.80146  -7802609.10943  22528698.9224                   22528695.8984
 -10340619.87946  -8051219.96143  22134252.4064                   22134247.5124
 -16071034.77345 -12808774.87543  23081289.1724                   23081285.4964
 -19741467.53546 -15374614.85245  20904916.4614                   20904913.2624
 -17211025.52746 -13402831.93044  21803002.6254                   21803002.4414
                                  24637982.305
 11  8 13  3 24 30.0000000  0  8G26G29G12G02G15G05G25G21
 -20553363.35246 -15997594.71143  22242961.4844                   22242958.6484
 -23069923.77746 -17970558.14544  21245338.3674                   21245335.4224
  -9911245.65246  -7715261.46943  22550030.2974                   22550027.3524
 -10270421.15246  -7996519.66843  22147610.7424                   22147605.7894
 -16142846.37145 -12864731.95343  23067623.5474                   23067620.4924
 -19657368.55946 -15309083.19545  20920919.8594                   20920916.8914
 -17143664.22346 -13350342.60244  21815821.4844                   21815820.9384
                                  24631616.711
 11  8 13  3 25  0.0000000  0  8G26G29G12G02G15G05G25G21
 -20608696.16446 -16040711.15643  22232432.1804                   22232429.3164
 -23113889.73446 -18004817.34844  21236972.4924                   21236969.0354
  -9798957.09446  -7627763.92243  22571398.8594                   22571395.2194
 -10200129.77746  -7941747.17643  22160987.8984                   22160982.4384
 -16214571.21945 -12920621.43043  23053975.5944                   23053972.2774
 -19572920.08246 -15243279.19545  20936990.1334                   20936986.8754
 -17075844.21546 -13297495.86344  21828727.2344                   21828726.5744
 -11266611.961 5                  24625249.438
 11  8 13  3 25 30.0000000  0  8G26G29G12G02G15G05G25G21
 -20663677.05946 -16083553.39843  22221969.7664                   22221966.7074
 -23157598.07046 -18038875.75044  21228654.9534                   21228651.7774
  -9686475.80145  -7540116.15643  22592802.9534                   22592799.7194
 -10129742.25845  -7886899.71543  22174381.4694                   22174376.1564
 -16286203.14145 -12976438.48043  23040343.9144                   23040340.8134
 -19488121.42846 -15177202.29245  20953127.3754                   20953123.3674
 -17007564.20746 -13244290.66044  21841720.5784                   21841719.2384
 -11300079.602 5                  24618881.234
 11  8 13  3 26  0.0000000  0  8G26G29G12G02G15G05G25G21
 -20718306.16046 -16126121.51243  22211574.1884                   22211571.2304
 -23201049.97346 -18072734.33244  21220385.9844                   21220382.8204
  -9573808.57846  -7452323.52343  22614242.6954                   22614239.3324
 -10059261.85246  -7831979.93043  22187793.8054                   22187788.3914
 -16357742.70745 -13032183.57843  23026730.4924                   23026727.2274
 -19402978.90346 -15110857.46244  20969329.1094                   20969325.2544
 -16938830.18446 -13190731.66044  21854800.2974                   21854799.0124
 -11333559.86715                  24612508.734
 11  8 13  3 26 30.0000000  0  8G26G29G12G02G15G05G25G21
 -20772578.09846 -16168411.35243  22201246.7584                   22201243.5474
 -23244241.80146 -18106390.32445  21212166.7734                   21212164.0434
  -9460956.42646  -7364386.80543  22635718.1564                   22635714.3054
  -9988686.64846  -7776986.30943  22201223.9454                   22201218.4384
 -16429184.53545 -13087852.50843  23013135.7504                   23013132.0394
 -19317492.86346 -15044245.00045  20985596.6254                   20985593.0594
 -16869642.78946 -13136819.45344  21867965.4614                   21867964.7344
 -11367051.43415                  24606135.047
 11  8 13  3 27  0.0000000  0  8G26G29G12G02G15G05G25G21
 -20826485.96145 -16210417.37143  22190988.4614                   22190985.0124
 -23287167.80946 -18139839.05944  21203998.4844                   21203995.5474
  -9347919.25845  -7276305.82043  22657229.2274                   22657224.5944
  -9918013.03946  -7721915.88743  22214672.5084                   22214667.4184
 -16500522.54745 -13143440.47343  22999559.1174                   22999556.7584
 -19231662.46946 -14977364.10544  21001929.0084                   21001925.3244
 -16800001.12146 -13082553.16844  21881217.9224                   21881217.6644
 -11400551.508 5                  24599761.695
 11  8 13  3 27 30.0000000  0  8G26G29G12G02G15G05G25G21
 -20880029.44545 -16252139.55943  22180798.5704                   22180795.4964
 -23329828.84446 -18173081.39544  21195879.9614                   21195876.8914
  -9234703.71545  -7188085.93443  22678771.8364                   22678768.7424
  -9847243.98445  -7666771.17243  22228140.0784                   22228133.5594
 -16571757.38745 -13198948.12943  22986003.9144                   22986001.1884
 -19145493.54746 -14910219.46544  21018326.8754                   21018323.2234
 -16729910.71946 -13027937.25044  21894555.5234                   21894555.5984
 -11434063.871 5                  24593384.344
 11  8 13  3 28  0.0000000  0  8G26G29G12G02G15G05G25G21
 -20933204.43045 -16293574.57843  22170680.3754                   22170677.0944
 -23372222.00046 -18206115.00844  21187813.5784                   21187809.8954
  -9121311.87945  -7099728.68043  22700348.8834                   22700346.9494
  -9776378.46546  -7611551.27043  22241624.5634                   22241618.8164
 -16642884.73845 -13254372.02043  22972470.3754                   22972466.2504
 -19058987.75846 -14842812.35944  21034788.6174                   21034784.6604
 -16659373.40246 -12972973.14844  21907979.1954                   21907977.9804
 -11467587.941 4                  24587003.141
 11  8 13  3 28 30.0000000  0  8G26G29G12G02G15G05G25G21
 -20986013.41045 -16334724.39543  22160632.4384                   22160627.8954
 -23414351.25046 -18238942.95744  21179795.2974                   21179792.5204
  -9007753.29745  -7011241.41843  22721960.0474                   22721956.0984
  -9705422.27345  -7556260.73043  22255126.4144                   22255121.6024
 -16713908.11745 -13309714.82843  22958954.2894                   22958950.2704
 -18972153.74646 -14775149.47744  21051311.5784                   21051308.1994
 -16588397.75846 -12917667.45744  21921484.5784                   21921484.2234
                                  24580620.344
 11  8 13  3 29  0.0000000  0  8G26G29G12G02G15G05G25G21
 -21038448.10245 -16375582.59443  22150652.8444                   22150650.3404
 -23456209.27046 -18271559.57044  21171830.1954                   21171827.6254
  -8894026.29745  -6922623.01643  22743601.3524                   22743597.6564
  -9634370.89545  -7500896.03543  22268648.3524                   22268643.0274
 -16784819.83645 -13364970.67243  22945459.3594                   22945456.6024
 -18884989.50846 -14707229.28544  21067899.3754                   21067895.6484
 -16516981.60946 -12862018.49644  21935075.6414                   21935074.7154
                                  24574236.031
 11  8 13  3 29 30.0000000  0  8G26G29G12G02G15G05G25G21
 -21090504.16045 -16416145.64843  22140746.6334                   22140744.0434
 -23497792.64546 -18303962.12544  21163917.8594                   21163914.6174
  -8780132.82045  -6833874.82443  22765274.8364                   22765270.5634
  -9563223.06345  -7445456.13343  22282186.8364                   22282181.2384
 -16855615.48445 -13420136.03943  22931988.1804                   22931984.2034
 -18797496.91046 -14639053.16844  21084548.5944                   21084544.9344
 -16445126.29346 -12806027.30544  21948748.9064                   21948747.8794
 -11568261.18814                  24567846.688
 11  8 13  3 30  0.0000000  0  8G26G29G12G02G15G05G25G21
 -21142177.51645 -16456410.60243  22130913.4774                   22130910.3984
 -23539098.80145 -18336148.71144  21156056.7894                   21156053.5084
  -8666075.87945  -6744999.29343  22786979.2734                   22786974.5784
  -9491977.55545  -7389940.17243  22295743.5554                   22295738.7074
 -16926291.78945 -13475208.49643  22918538.3914                   22918535.4884
 -18709677.20746 -14570622.24244  21101259.4454                   21101255.9344
 -16372833.96946 -12749695.63743  21962505.9144                   21962504.5084
                                  24561454.969
 11  8 13  3 30 30.0000000  0  8G26G29G12G02G15G05G25G21
 -21193469.46945 -16496378.34043  22121152.3594                   22121149.8954
 -23580130.60946 -18368121.52744  21148248.9144                   21148245.5704
  -8551863.17245  -6656002.37143  22808713.0474                   22808709.4144
  -9420639.23445  -7334351.88743  22309319.1954                   22309313.7584
 -16996850.52745 -13530189.30942  22905111.0554                   22905108.5594
 -18621538.03146 -14501942.36344  21118032.1414                   21118028.0124
 -16300112.00046 -12693029.19943  21976344.7814                   21976343.5904
                                  24555060.266
 11  8 13  3 31  0.0000000  0  8G26G29G12G02G15G05G25G21
 -21244373.37945 -16536043.72342  22111466.4384                   22111462.4774
 -23620882.09845 -18399875.89144  21140494.6644                   21140490.3094
  -8437494.36745  -6566883.85242  22830476.6724                   22830472.0044
  -9349204.50045  -7278688.43043  22322912.8524                   22322907.8094
 -17067285.50445 -13585073.61742  22891708.6564                   22891704.0044
 -18533078.59846 -14433012.91843  21134864.7344                   21134861.1884
 -16226959.65245 -12636027.37543  21990263.4454                   21990263.3054
                                  24548661.547
 11  8 13  3 31 30.0000000  0  8G26G29G12G02G15G05G25G21
 -21294889.11745 -16575406.59443  22101855.0474                   22101849.8524
 -23661354.44146 -18431412.77044  21132793.3524                   21132789.6334
  -8322976.52745  -6477649.19143  22852268.2504                   22852264.5904
  -9277676.48055  -7222952.32853  22336523.5864                   22336519.3794
 -17137597.09845 -13639861.87943  22878328.2894                   22878324.9144
 -18444304.96146 -14363838.64144  21151757.8914                   21151754.6024
 -16153382.85946 -12578694.82043  22004266.4454                   22004265.0554
                                  24542257.695
 11  8 13  3 32  0.0000000  0  8G26G29G12G02G15G05G25G21
 -21345011.77746 -16614463.25843  22092315.5634                   22092312.6524
 -23701544.06646 -18462729.39844  21125144.5164                   21125141.6024
  -8208311.17246  -6388299.61743  22874088.3984                   22874084.4614
  -9206053.72746  -7167142.43443  22350154.3134                   22350148.4534
 -17207780.85555 -13694550.57053  22864972.8054                   22864969.5984
 -18355218.37146 -14294420.59045  21168711.0394                   21168707.4454
 -16079382.89146 -12521032.59044  22018346.9224                   22018346.5164
 -11736385.60515                  24535853.141
 11  8 13  3 32 30.0000000  0  9G26G29G12G02G15G05G18G25G21
 -21394739.03145 -16653211.73843  22082852.7424                   22082849.5744
 -23741449.55146 -18493824.54744  21117551.3444                   21117547.7934
  -8093502.11745  -6298838.04343  22895934.7894                   22895932.6024
  -9134336.57845  -7111258.93843  22363800.8754                   22363795.5204
 -17277834.38345 -13749137.70343  22851642.5234                   22851639.6844
 -18265822.06646 -14224761.10544  21185722.8914                   21185719.4964
                                  24570652.781
 -16004963.12146 -12463043.14544  22032509.0084                   22032508.4694
 -11770070.957 5                  24529442.836
 11  8 13  3 33  0.0000000  0  9G26G29G12G02G15G05G18G25G21
 -21444077.69146 -16691657.44943  22073463.4384                   22073461.3714
 -23781078.80546 -18524704.50445  21110009.8444                   21110006.6054
  -7978563.16046  -6209275.25043  22917808.9844                   22917804.3954
  -9062535.19146  -7055309.87543  22377464.2504                   22377458.9454
 -17347765.26245 -13803629.30943  22838334.7114                   22838331.7974
 -18176128.98846 -14154870.42245  21202790.5004                   21202787.0164
 -11259599.91414                  24558162.203
 -15930136.49646 -12404736.72744  22046748.7114                   22046747.3554
 -11803788.46915                  24523026.070
 11  8 13  3 33 30.0000000  0  9G26G29G12G02G15G05G18G25G21
 -21493006.11345 -16729783.41843  22064152.8754                   22064149.6414
 -23820411.68746 -18555353.43044  21102525.0634                   21102521.7424
  -7863479.32845  -6119599.46143  22939707.6414                   22939704.2074
  -8990631.53545  -6999280.98043  22391147.1564                   22391141.6804
 -17417552.43445 -13858008.86343  22825053.9304                   22825051.6884
 -18086123.55146 -14084736.25044  21219917.5004                   21219914.8524
                                  24545705.258
 -15854887.62146 -12346101.17244  22061067.3594                   22061066.9344
                                  24516606.531
 11  8 13  3 34  0.0000000  0  9G26G29G12G02G15G05G18G25G21
 -21541533.22345 -16767596.73443  22054918.1724                   22054914.9304
 -23859457.92246 -18585779.03944  21095095.2034                   21095091.4384
  -7748265.40645  -6029822.38743  22961631.9304                   22961628.5394
  -8918637.22345  -6943181.49643  22404846.7734                   22404842.0044
 -17487204.55145 -13912283.14543  22811800.3134                   22811797.2704
 -17995820.32846 -14014370.09044  21237102.3204                   21237098.5314
                                  24533276.719
 -15779231.32846 -12287148.18843  22075464.7344                   22075463.7854
 -11871280.57414                  24510184.078
 11  8 13  3 34 30.0000000  0  8G26G29G12G02G15G05G25G21
 -21589651.80145 -16805091.72743  22045762.7664                   22045758.8364
 -23898211.71546 -18615976.79744  21087721.1484                   21087717.1994
  -7632921.39545  -5939943.96543  22983582.5944                   22983578.1994
  -8846548.42245  -6887008.42243  22418565.6884                   22418559.8364
 -17556715.30145 -13966447.35243  22798574.0864                   22798570.0944
 -17905218.27046 -13943771.08644  21254343.6024                   21254339.8484
 -15703166.59446 -12227876.98443  22089939.5474                   22089938.8554
                                  24503754.328
 11  8 13  3 35  0.0000000  0  7G26G29G12G02G15G05G25
 -21637350.77345 -16842259.73443  22036685.6334                   22036682.0044
 -23936662.67246 -18645938.56644  21080403.3284                   21080399.4884
  -7517442.78945  -5849960.63343  23005556.6644                   23005552.9384
  -8774357.07845  -6830755.42243  22432302.0864                   22432297.0744
 -17626073.97745 -14020493.07043  22785373.0704                   22785371.0044
 -17814312.34846 -13872935.30144  21271642.7274                   21271638.4184
 -15626688.24646 -12168283.45344  22104492.6414                   22104492.0904
 11  8 13  3 35 30.0000000  0  7G26G29G12G02G15G05G25
 -21684626.43445 -16879097.85943  22027688.0314                   22027685.4694
 -23974808.62946 -18675662.66044  21073144.2344                   21073140.4494
  -7401832.22345  -5759874.50442  23027557.4534                   23027552.6134
  -8702062.55545  -6774422.05143  22446060.4844                   22446054.8714
 -17695277.15645 -14074417.62542  22772204.6484                   22772201.6564
 -17723104.80146 -13801864.48044  21288998.1174                   21288994.0664
 -15549798.79346 -12108369.60243  22119124.8524                   22119123.3634
 11  8 13  3 36  0.0000000  0  7G26G29G12G02G15G05G25
 -21731477.16445 -16915604.89542  22018773.3834                   22018770.2464
 -24012649.18446 -18705148.78144  21065943.9774                   21065939.5864
  -7286095.00845  -5669689.66042  23049580.5554                   23049575.7814
  -8629666.54745  -6718009.55543  22459836.0004                   22459830.8444
                                  22759065.3984                   22759062.3484
 -17631599.85246 -13730561.92644  21306411.5474                   21306407.0394
 -15472502.83246 -12048138.97343  22133832.8834                   22133831.2854
 11  8 13  3 36 30.0000000  0  8G26G29G12G02G15G05G25G21
 -21777900.90645 -16951779.23443  22009938.9144                   22009936.5634
 -24050182.74646 -18734395.69544  21058801.4454                   21058797.3014
  -7170234.96945  -5579409.09442  23071628.5314                   23071623.6454
  -8557169.73845  -6661518.52343  22473632.8204                   22473626.5004
 -17833211.64545 -14181899.00843  22745956.7734                   22745954.1564
 -17539801.24246 -13659030.51644  21323880.2894                   21323875.5274
 -15394804.14846 -11987594.55143  22148618.0784                   22148617.1844
                                  24478005.031
 11  8 13  3 37  0.0000000  0  8G26G29G12G02G15G05G25G21
 -21823896.46545 -16987619.91842  22001186.3914                   22001183.1054
 -24087409.71546 -18763403.70744  21051716.5394                   21051713.0434
  -7054257.71555  -5489037.24252  23093698.5394                   23093692.6094
  -8484574.23445  -6604950.62143  22487447.8364                   22487440.6564
 -17901940.10945 -14235453.66043  22732878.6564                   22732874.7894
 -17447713.56246 -13587273.89844  21341403.0314                   21341399.5314
 -15316707.61345 -11926740.11743  22163479.7814                   22163478.2424
                                  24471556.750
 11  8 13  3 37 30.0000000  0  9G26G29G12G02G15G05G18G25G21
 -21869456.04346 -17023120.89543  21992516.1644                   21992514.6414
 -24124322.87146 -18792167.23444  21044692.9454                   21044689.5944
  -6938161.76245  -5398572.93843  23115790.1174                   23115785.8954
  -8411875.28945  -6548302.12943  22501281.1094                   22501275.6954
 -17970501.53955 -14288878.11353  22719831.3204                   22719828.2774
 -17355335.03946 -13515290.67244  21358982.1414                   21358978.7854
 -11219535.02714                  24447175.109
 -15238211.65646 -11865574.46544  22178416.7814                   22178416.0824
 -11129128.56615                  24465104.609
 11  8 13  3 38  0.0000000  0  9G26G29G12G02G15G05G18G25G21
 -21914578.52046 -17058281.32844  21983930.8524                   21983927.9804
 -24160922.51247 -18820686.48845  21037727.6644                   21037724.8634
  -6821952.16046  -5308020.08243  23137904.4614                   23137901.0704
  -8339074.69946  -6491574.44143  22515134.6564                   22515128.7854
 -18038895.28146 -14342172.00843  22706817.2194                   22706814.3284
 -17262670.47747 -13443084.59045  21376615.6954                   21376612.1374
 -11283481.117 5                  24435006.781
 -15159321.05546 -11804101.36344  22193428.8364                   22193428.7664
 -11163055.313 5                  24458647.203
 11  8 13  3 38 30.0000000  0  9G26G29G12G02G15G05G18G25G21
 -21959264.17646 -17093101.29344  21975427.5944                   21975424.3134
 -24197209.59047 -18848962.10545  21030822.5864                   21030819.7304
  -6705636.07046  -5217384.18043  23160038.4614                   23160034.8404
  -8266175.77746  -6434770.10943  22529007.4844                   22529001.2384
 -18107121.81646 -14395335.51243  22693833.6024                   22693830.9694
 -17169726.37147 -13370660.60245  21394302.5554                   21394299.1374
 -11347255.297 5                  24422869.805
 -15080042.38346 -11742325.78144  22208515.0784                   22208514.9304
 -11197009.078 5                  24452186.469
 11  8 13  3 39  0.0000000  0  9G26G29G12G02G15G05G18G25G21
 -22003511.23846 -17127579.47343  21967007.8674                   21967004.5394
 -24233183.90246 -18876993.98044  21023976.5394                   21023973.2114
  -6589217.80545  -5126668.63743  23182191.5704                   23182188.2154
  -8193179.54346  -6377889.87943  22542897.7114                   22542892.2034
 -18175179.21945 -14448367.18043  22680882.4454                   22680879.3094
 -17076505.85246 -13298021.18044  21412041.1174                   21412038.4344
 -11410858.008 5                  24410766.836
 -15000379.55946 -11680250.82044  22223674.7664                   22223673.9224
 -11230991.395 5                  24445719.375
 11  8 13  3 39 30.0000000  0  9G26G29G12G02G15G05G18G25G21
 -22047308.84046 -17161707.48843  21958672.6254                   21958670.4694
 -24268835.53946 -18904774.46944  21017192.9614                   21017189.2154
  -6472693.28545  -5035870.34043  23204365.8594                   23204361.7934
  -8120078.47346  -6320928.04343  22556807.5164                   22556802.5394
 -18243057.49245 -14501259.34843  22667965.8754                   22667963.1024
 -16983004.57046 -13225163.05144  21429834.2504                   21429831.3444
 -11474280.72715                  24398698.906
 -14920328.27346 -11617873.22744  22238907.2894                   22238907.1804
 -11264995.73415                  24439250.102
 11  8 13  3 40  0.0000000  0  9G26G29G12G02G15G05G18G25G21
 -22090655.60946 -17195484.12943  21950424.0474                   21950421.0704
 -24304164.10546 -18932303.17644  21010469.8524                   21010466.6914
  -6356067.56645  -4944993.18843  23226559.3054                   23226555.7624
  -8046874.18846  -6263885.71543  22570738.3364                   22570733.0634
 -18310755.33645 -14554010.85543  22655083.3834                   22655080.2774
 -16889226.57846 -13152089.26244  21447679.6884                   21447676.2464
                                  24386663.063
 -14839893.08246 -11555196.44543  22254214.9534                   22254213.8014
 -11299024.488 5                  24432774.219
 11  8 13  3 40 30.0000000  0  9G26G29G12G02G15G05G18G25G21
 -22133549.46545 -17228907.86743  21942261.6804                   21942259.4184
 -24339168.38746 -18959579.18444  21003808.9304                   21003805.7074
  -6239344.50045  -4854040.11343  23248771.1564                   23248766.7894
  -7973567.72345  -6206763.78143  22584688.4924                   22584682.9734
 -18378270.81645 -14606620.23043  22642235.8834                   22642232.5594
 -16795175.99646 -13078803.06644  21465576.6414                   21465573.7934
                                  24374663.164
 -14759077.96146 -11492223.60543  22269594.1884                   22269591.7704
 -11333079.289 5                  24426293.547
 11  8 13  3 41  0.0000000  0  9G26G29G12G02G15G05G18G25G21
 -22175981.48046 -17261971.78543  21934186.9144                   21934184.2504
 -24373839.98846 -18986596.00445  20997211.5234                   20997207.5164
  -6122521.62545  -4763009.37943  23271002.2974                   23270998.3754
  -7900152.55145  -6149557.20343  22598657.2504                   22598653.0824
 -18445594.97745 -14659080.62143  22629424.1644                   22629422.0204
 -16700849.48446 -13005301.89844  21483526.9384                   21483523.0594
                                  24362697.094
 -14677879.96946 -11428952.48443  22285045.1954                   22285043.2704
 -11367154.60545 -10200093.88752  24419809.4534                   24419806.5004
 11  8 13  3 41 30.0000000  0  9G26G29G12G02G15G05G18G25G21
 -22217954.22346 -17294677.82043  21926200.4304                   21926197.1844
 -24408183.09446 -19013356.88345  20990675.4924                   20990672.1254
  -6005608.28146  -4671908.15243  23293248.9924                   23293245.6174
  -7826634.63746  -6092270.53943  22612648.3364                   22612643.4774
 -18512731.06646 -14711394.46543  22616649.0084                   22616645.9024
 -16606255.59446 -12931592.40244  21501526.9454                   21501524.3134
 -11726160.39815                  24350768.359
 -14596307.99246 -11365389.95744  22300567.1334                   22300566.8014
 -11401257.14145 -10226667.30942  24413319.1954                   24413314.4884
 11  8 13  3 42  0.0000000  0  9G26G29G12G02G15G05G18G25G21
 -22259463.26646 -17327022.52744  21918301.5084                   21918297.6374
 -24442194.02347 -19039858.90245  20984203.7974                   20984200.2274
  -5888606.10246  -4580737.65243  23315512.9614                   23315510.6334
  -7753012.24246  -6034902.44543  22626658.8444                   22626653.3634
 -18579674.41046 -14763558.07443  22603909.3444                   22603906.5864
 -16511395.63746 -12857675.57845  21519578.9144                   21519575.5394
 -11788672.434 5                  24338870.367
 -14514363.46946 -11301537.10244  22316160.6414                   22316160.3244
 -11435385.91045 -10253261.06642  24406824.2664                   24406819.5354
 11  8 13  3 42 30.0000000  0  9G26G29G12G02G15G05G18G25G21
 -22300503.56646 -17359001.94943  21910491.1954                   21910488.4884
 -24475868.63346 -19066098.82845  20977796.3134                   20977792.0744
  -5771516.43046  -4489499.00043  23337795.2584                   23337792.2304
  -7679283.30546  -5977451.31643  22640688.0944                   22640683.7424
 -18646420.30546 -14815567.83643  22591208.4064                   22591205.0984
 -16416269.75846 -12783551.49644  21537680.1094                   21537676.8164
 -11850997.60915                  24327010.523
 -14432047.34846 -11237394.68844  22331825.2194                   22331824.0354
 -11469539.71145 -10279874.32842  24400324.8914                   24400320.0124
 11  8 13  3 43  0.0000000  0  9G26G29G12G02G15G05G18G25G21
 -22341071.16046 -17390613.02743  21902771.0314                   21902768.9024
 -24509203.84846 -19092074.28945  20971452.2194                   20971448.4224
  -5654341.69145  -4398194.03943  23360093.2504                   23360089.5204
  -7605446.83246  -5919916.41043  22654739.4534                   22654733.9024
 -18712965.07046 -14867420.86743  22578545.1724                   22578542.2344
 -16320880.30946 -12709222.04744  21555831.8054                   21555829.0744
 -11913134.50415                  24315187.031
 -14349362.02046 -11172964.55544  22347559.9224                   22347558.5514
 -11503718.20345 -10306506.86342  24393821.8594                   24393816.7344
 11  8 13  3 43 30.0000000  0  9G26G29G12G02G15G05G18G25G21
 -22381161.63346 -17421852.30943  21895141.5394                   21895139.8954
 -24542196.48446 -19117782.80144  20965174.3054                   20965170.2934
  -5537083.05545  -4306823.65643  23382406.8524                   23382403.1564
  -7531501.08246  -5862296.33243  22668810.7504                   22668805.6254
 -18779303.95746 -14919113.48843  22565921.5704                   22565918.7154
 -16225228.24246 -12634687.95344  21574034.5634                   21574030.8164
 -11975080.352 5                  24303400.266
 -14266308.76646 -11108247.74644  22363364.3754                   22363362.8794
 -11537920.32845 -10333157.83642  24387312.7194                   24387306.9844
 11  8 13  3 44  0.0000000  0  9G26G29G12G02G15G05G18G25G21
 -22420778.38747 -17452722.54744  21887603.4144                   21887600.9144
 -24574850.78147 -19143227.76646  20958959.5864                   20958956.1054
  -5419750.81346  -4215396.04343  23404734.3134                   23404730.9304
  -7457452.48847  -5804596.22744  22682901.2274                   22682896.4774
 -18845441.03946 -14970648.88744  22553336.1094                   22553333.1414
 -16129322.69547 -12559956.42245  21592284.7274                   21592281.3634
 -12036841.270 6                  24291646.086
 -14182897.43847 -11043252.00445  22379236.8284                   22379236.0314
 -11572153.68046 -10359833.16042  24380797.8674                   24380792.7274
 11  8 13  3 44 30.0000000  0  9G26G29G12G02G15G05G18G25G21
 -22459907.75046 -17483212.87543  21880157.6414                   21880154.5514
 -24607154.01646 -19168399.04745  20952812.7114                   20952809.1214
  -5302337.56345  -4123905.20343  23427077.8674                   23427073.2424
  -7383289.78546  -5746807.03943  22697014.5474                   22697008.9574
 -18911362.55946 -15022016.23043  22540791.4614                   22540788.5904
 -16033155.80546 -12485021.11344  21610584.9454                   21610581.3204
 -12098405.12915                  24279931.539
 -14099120.27046 -10977971.05944  22395179.6094                   22395178.2424
 -11606408.05145 -10386524.77342  24374280.0394                   24374274.2504
